<?xml version="1.0" encoding="UTF-8" standalone="no" ?>
<gpx xmlns="http://www.topografix.com/GPX/1/1" xmlns:xsi="http://www.w3.org/2001/XMLSchema-instance" xsi:schemaLocation="http://www.topografix.com/GPX/1/1 http://www.topografix.com/GPX/1/1/gpx.xsd" version="1.1" creator="VisuGPX - https://www.visugpx.com">
  <metadata>
    <name>1-2 Escape TL01GTW Autrans Lans</name>
    <desc><![CDATA[1-2 Escape TL01GTW Autrans Lans]]></desc>
  </metadata>
  <trk>
    <name><![CDATA[1-2 Escape TL01GTW Autrans Lans]]></name>
    <desc><![CDATA[1-2 Escape TL01GTW Autrans Lans]]></desc>
    <extensions>
      <line xmlns="http://www.topografix.com/GPX/gpx_style/0/2">
        <color>0000FF</color>
        <width>4</width>
      </line>
    </extensions>
    <trkseg>
      <trkpt lat="45.14573" lon="5.545">
        <ele>1006</ele>
        <time>2022-06-29T14:14:25.000Z</time>
      </trkpt>
      <trkpt lat="45.14602" lon="5.54553">
        <ele>1011</ele>
        <time>2022-06-29T14:14:26.000Z</time>
      </trkpt>
      <trkpt lat="45.14637" lon="5.5462">
        <ele>1019</ele>
        <time>2022-06-29T14:14:27.000Z</time>
      </trkpt>
      <trkpt lat="45.14638" lon="5.54623">
        <ele>1019</ele>
        <time>2022-06-29T14:14:28.000Z</time>
      </trkpt>
      <trkpt lat="45.1464" lon="5.54626">
        <ele>1019</ele>
        <time>2022-06-29T14:14:29.000Z</time>
      </trkpt>
      <trkpt lat="45.14679" lon="5.54702">
        <ele>1016</ele>
        <time>2022-06-29T14:14:30.000Z</time>
      </trkpt>
      <trkpt lat="45.1475" lon="5.54842">
        <ele>1012</ele>
        <time>2022-06-29T14:14:31.000Z</time>
      </trkpt>
      <trkpt lat="45.14762" lon="5.54869">
        <ele>1012</ele>
        <time>2022-06-29T14:14:32.000Z</time>
      </trkpt>
      <trkpt lat="45.14764" lon="5.54877">
        <ele>1012</ele>
        <time>2022-06-29T14:14:33.000Z</time>
      </trkpt>
      <trkpt lat="45.14794" lon="5.54889">
        <ele>1018</ele>
        <time>2022-06-29T14:14:34.000Z</time>
      </trkpt>
      <trkpt lat="45.14821" lon="5.5491">
        <ele>1012</ele>
        <time>2022-06-29T14:14:35.000Z</time>
      </trkpt>
      <trkpt lat="45.14844" lon="5.54919">
        <ele>1012</ele>
        <time>2022-06-29T14:14:36.000Z</time>
      </trkpt>
      <trkpt lat="45.14928" lon="5.54942">
        <ele>1019</ele>
        <time>2022-06-29T14:14:37.000Z</time>
      </trkpt>
      <trkpt lat="45.14948" lon="5.54956">
        <ele>1019</ele>
        <time>2022-06-29T14:14:38.000Z</time>
      </trkpt>
      <trkpt lat="45.15032" lon="5.5503">
        <ele>1031</ele>
        <time>2022-06-29T14:14:39.000Z</time>
      </trkpt>
      <trkpt lat="45.15069" lon="5.55049">
        <ele>1035</ele>
        <time>2022-06-29T14:14:40.000Z</time>
      </trkpt>
      <trkpt lat="45.1508" lon="5.55061">
        <ele>1028</ele>
        <time>2022-06-29T14:14:41.000Z</time>
      </trkpt>
      <trkpt lat="45.15088" lon="5.5508">
        <ele>1028</ele>
        <time>2022-06-29T14:14:42.000Z</time>
      </trkpt>
      <trkpt lat="45.15097" lon="5.55097">
        <ele>1028</ele>
        <time>2022-06-29T14:14:43.000Z</time>
      </trkpt>
      <trkpt lat="45.15107" lon="5.55109">
        <ele>1028</ele>
        <time>2022-06-29T14:14:44.000Z</time>
      </trkpt>
      <trkpt lat="45.15121" lon="5.55114">
        <ele>1028</ele>
        <time>2022-06-29T14:14:45.000Z</time>
      </trkpt>
      <trkpt lat="45.1516" lon="5.55137">
        <ele>1031</ele>
        <time>2022-06-29T14:14:46.000Z</time>
      </trkpt>
      <trkpt lat="45.15196" lon="5.55162">
        <ele>1031</ele>
        <time>2022-06-29T14:14:47.000Z</time>
      </trkpt>
      <trkpt lat="45.15207" lon="5.55171">
        <ele>1031</ele>
        <time>2022-06-29T14:14:48.000Z</time>
      </trkpt>
      <trkpt lat="45.15221" lon="5.55178">
        <ele>1035</ele>
        <time>2022-06-29T14:14:49.000Z</time>
      </trkpt>
      <trkpt lat="45.15234" lon="5.55185">
        <ele>1035</ele>
        <time>2022-06-29T14:14:50.000Z</time>
      </trkpt>
      <trkpt lat="45.15463" lon="5.55289">
        <ele>1046</ele>
        <time>2022-06-29T14:14:51.000Z</time>
      </trkpt>
      <trkpt lat="45.15516" lon="5.55316">
        <ele>1047</ele>
        <time>2022-06-29T14:14:52.000Z</time>
      </trkpt>
      <trkpt lat="45.15533" lon="5.55327">
        <ele>1047</ele>
        <time>2022-06-29T14:14:53.000Z</time>
      </trkpt>
      <trkpt lat="45.15577" lon="5.55361">
        <ele>1050</ele>
        <time>2022-06-29T14:14:54.000Z</time>
      </trkpt>
      <trkpt lat="45.15584" lon="5.55368">
        <ele>1050</ele>
        <time>2022-06-29T14:14:55.000Z</time>
      </trkpt>
      <trkpt lat="45.15596" lon="5.55385">
        <ele>1059</ele>
        <time>2022-06-29T14:14:56.000Z</time>
      </trkpt>
      <trkpt lat="45.15601" lon="5.55397">
        <ele>1059</ele>
        <time>2022-06-29T14:14:57.000Z</time>
      </trkpt>
      <trkpt lat="45.15615" lon="5.55383">
        <ele>1050</ele>
        <time>2022-06-29T14:14:58.000Z</time>
      </trkpt>
      <trkpt lat="45.15627" lon="5.55372">
        <ele>1050</ele>
        <time>2022-06-29T14:14:59.000Z</time>
      </trkpt>
      <trkpt lat="45.15633" lon="5.55365">
        <ele>1051</ele>
        <time>2022-06-29T14:15:00.000Z</time>
      </trkpt>
      <trkpt lat="45.15668" lon="5.55329">
        <ele>1051</ele>
        <time>2022-06-29T14:15:01.000Z</time>
      </trkpt>
      <trkpt lat="45.1569" lon="5.55311">
        <ele>1051</ele>
        <time>2022-06-29T14:15:02.000Z</time>
      </trkpt>
      <trkpt lat="45.15706" lon="5.55302">
        <ele>1051</ele>
        <time>2022-06-29T14:15:03.000Z</time>
      </trkpt>
      <trkpt lat="45.15721" lon="5.55297">
        <ele>1043</ele>
        <time>2022-06-29T14:15:04.000Z</time>
      </trkpt>
      <trkpt lat="45.15735" lon="5.55296">
        <ele>1043</ele>
        <time>2022-06-29T14:15:05.000Z</time>
      </trkpt>
      <trkpt lat="45.1575" lon="5.55294">
        <ele>1043</ele>
        <time>2022-06-29T14:15:06.000Z</time>
      </trkpt>
      <trkpt lat="45.15784" lon="5.55296">
        <ele>1043</ele>
        <time>2022-06-29T14:15:07.000Z</time>
      </trkpt>
      <trkpt lat="45.15833" lon="5.55296">
        <ele>1044</ele>
        <time>2022-06-29T14:15:08.000Z</time>
      </trkpt>
      <trkpt lat="45.15901" lon="5.55298">
        <ele>1045</ele>
        <time>2022-06-29T14:15:09.000Z</time>
      </trkpt>
      <trkpt lat="45.15952" lon="5.55298">
        <ele>1045</ele>
        <time>2022-06-29T14:15:10.000Z</time>
      </trkpt>
      <trkpt lat="45.16031" lon="5.55296">
        <ele>1047</ele>
        <time>2022-06-29T14:15:11.000Z</time>
      </trkpt>
      <trkpt lat="45.16057" lon="5.55295">
        <ele>1047</ele>
        <time>2022-06-29T14:15:12.000Z</time>
      </trkpt>
      <trkpt lat="45.16136" lon="5.55291">
        <ele>1049</ele>
        <time>2022-06-29T14:15:13.000Z</time>
      </trkpt>
      <trkpt lat="45.16167" lon="5.55289">
        <ele>1049</ele>
        <time>2022-06-29T14:15:14.000Z</time>
      </trkpt>
      <trkpt lat="45.16195" lon="5.55288">
        <ele>1049</ele>
        <time>2022-06-29T14:15:15.000Z</time>
      </trkpt>
      <trkpt lat="45.16204" lon="5.55287">
        <ele>1049</ele>
        <time>2022-06-29T14:15:16.000Z</time>
      </trkpt>
      <trkpt lat="45.16275" lon="5.55284">
        <ele>1051</ele>
        <time>2022-06-29T14:15:17.000Z</time>
      </trkpt>
      <trkpt lat="45.16278" lon="5.55284">
        <ele>1051</ele>
        <time>2022-06-29T14:15:18.000Z</time>
      </trkpt>
      <trkpt lat="45.16284" lon="5.55284">
        <ele>1051</ele>
        <time>2022-06-29T14:15:19.000Z</time>
      </trkpt>
      <trkpt lat="45.16288" lon="5.55284">
        <ele>1051</ele>
        <time>2022-06-29T14:15:20.000Z</time>
      </trkpt>
      <trkpt lat="45.16297" lon="5.55284">
        <ele>1051</ele>
        <time>2022-06-29T14:15:21.000Z</time>
      </trkpt>
      <trkpt lat="45.16317" lon="5.55282">
        <ele>1051</ele>
        <time>2022-06-29T14:15:22.000Z</time>
      </trkpt>
      <trkpt lat="45.16341" lon="5.55282">
        <ele>1051</ele>
        <time>2022-06-29T14:15:23.000Z</time>
      </trkpt>
      <trkpt lat="45.16355" lon="5.55281">
        <ele>1051</ele>
        <time>2022-06-29T14:15:24.000Z</time>
      </trkpt>
      <trkpt lat="45.16372" lon="5.55281">
        <ele>1051</ele>
        <time>2022-06-29T14:15:25.000Z</time>
      </trkpt>
      <trkpt lat="45.16382" lon="5.55282">
        <ele>1059</ele>
        <time>2022-06-29T14:15:26.000Z</time>
      </trkpt>
      <trkpt lat="45.16408" lon="5.55285">
        <ele>1059</ele>
        <time>2022-06-29T14:15:27.000Z</time>
      </trkpt>
      <trkpt lat="45.16457" lon="5.55292">
        <ele>1059</ele>
        <time>2022-06-29T14:15:28.000Z</time>
      </trkpt>
      <trkpt lat="45.1649" lon="5.55295">
        <ele>1064</ele>
        <time>2022-06-29T14:15:29.000Z</time>
      </trkpt>
      <trkpt lat="45.16524" lon="5.55295">
        <ele>1064</ele>
        <time>2022-06-29T14:15:30.000Z</time>
      </trkpt>
      <trkpt lat="45.16556" lon="5.55294">
        <ele>1069</ele>
        <time>2022-06-29T14:15:31.000Z</time>
      </trkpt>
      <trkpt lat="45.16566" lon="5.55293">
        <ele>1069</ele>
        <time>2022-06-29T14:15:32.000Z</time>
      </trkpt>
      <trkpt lat="45.16581" lon="5.55292">
        <ele>1069</ele>
        <time>2022-06-29T14:15:33.000Z</time>
      </trkpt>
      <trkpt lat="45.166" lon="5.55292">
        <ele>1069</ele>
        <time>2022-06-29T14:15:34.000Z</time>
      </trkpt>
      <trkpt lat="45.16738" lon="5.55286">
        <ele>1081</ele>
        <time>2022-06-29T14:15:35.000Z</time>
      </trkpt>
      <trkpt lat="45.16767" lon="5.55282">
        <ele>1081</ele>
        <time>2022-06-29T14:15:36.000Z</time>
      </trkpt>
      <trkpt lat="45.16784" lon="5.55279">
        <ele>1081</ele>
        <time>2022-06-29T14:15:37.000Z</time>
      </trkpt>
      <trkpt lat="45.16793" lon="5.55277">
        <ele>1081</ele>
        <time>2022-06-29T14:15:38.000Z</time>
      </trkpt>
      <trkpt lat="45.16855" lon="5.5526">
        <ele>1078</ele>
        <time>2022-06-29T14:15:39.000Z</time>
      </trkpt>
      <trkpt lat="45.16914" lon="5.55248">
        <ele>1077</ele>
        <time>2022-06-29T14:15:40.000Z</time>
      </trkpt>
      <trkpt lat="45.16917" lon="5.55247">
        <ele>1077</ele>
        <time>2022-06-29T14:15:41.000Z</time>
      </trkpt>
      <trkpt lat="45.16921" lon="5.55246">
        <ele>1077</ele>
        <time>2022-06-29T14:15:42.000Z</time>
      </trkpt>
      <trkpt lat="45.16928" lon="5.55245">
        <ele>1077</ele>
        <time>2022-06-29T14:15:43.000Z</time>
      </trkpt>
      <trkpt lat="45.16951" lon="5.55239">
        <ele>1077</ele>
        <time>2022-06-29T14:15:44.000Z</time>
      </trkpt>
      <trkpt lat="45.16973" lon="5.55231">
        <ele>1067</ele>
        <time>2022-06-29T14:15:45.000Z</time>
      </trkpt>
      <trkpt lat="45.16991" lon="5.55221">
        <ele>1067</ele>
        <time>2022-06-29T14:15:46.000Z</time>
      </trkpt>
      <trkpt lat="45.17008" lon="5.55208">
        <ele>1075</ele>
        <time>2022-06-29T14:15:47.000Z</time>
      </trkpt>
      <trkpt lat="45.17028" lon="5.5519">
        <ele>1075</ele>
        <time>2022-06-29T14:15:48.000Z</time>
      </trkpt>
      <trkpt lat="45.17047" lon="5.55166">
        <ele>1071</ele>
        <time>2022-06-29T14:15:49.000Z</time>
      </trkpt>
      <trkpt lat="45.17062" lon="5.55143">
        <ele>1071</ele>
        <time>2022-06-29T14:15:50.000Z</time>
      </trkpt>
      <trkpt lat="45.1709" lon="5.5508">
        <ele>1073</ele>
        <time>2022-06-29T14:15:51.000Z</time>
      </trkpt>
      <trkpt lat="45.17117" lon="5.5502">
        <ele>1068</ele>
        <time>2022-06-29T14:15:52.000Z</time>
      </trkpt>
      <trkpt lat="45.17148" lon="5.54955">
        <ele>1062</ele>
        <time>2022-06-29T14:15:53.000Z</time>
      </trkpt>
      <trkpt lat="45.17166" lon="5.54915">
        <ele>1062</ele>
        <time>2022-06-29T14:15:54.000Z</time>
      </trkpt>
      <trkpt lat="45.17204" lon="5.54832">
        <ele>1066</ele>
        <time>2022-06-29T14:15:55.000Z</time>
      </trkpt>
      <trkpt lat="45.17262" lon="5.54709">
        <ele>1052</ele>
        <time>2022-06-29T14:15:56.000Z</time>
      </trkpt>
      <trkpt lat="45.1728" lon="5.54671">
        <ele>1052</ele>
        <time>2022-06-29T14:15:57.000Z</time>
      </trkpt>
      <trkpt lat="45.17291" lon="5.54645">
        <ele>1052</ele>
        <time>2022-06-29T14:15:58.000Z</time>
      </trkpt>
      <trkpt lat="45.17304" lon="5.54618">
        <ele>1046</ele>
        <time>2022-06-29T14:15:59.000Z</time>
      </trkpt>
      <trkpt lat="45.17314" lon="5.54597">
        <ele>1046</ele>
        <time>2022-06-29T14:16:00.000Z</time>
      </trkpt>
      <trkpt lat="45.17323" lon="5.54579">
        <ele>1046</ele>
        <time>2022-06-29T14:16:01.000Z</time>
      </trkpt>
      <trkpt lat="45.17324" lon="5.54576">
        <ele>1046</ele>
        <time>2022-06-29T14:16:02.000Z</time>
      </trkpt>
      <trkpt lat="45.17339" lon="5.54546">
        <ele>1044</ele>
        <time>2022-06-29T14:16:03.000Z</time>
      </trkpt>
      <trkpt lat="45.17334" lon="5.54539">
        <ele>1044</ele>
        <time>2022-06-29T14:16:04.000Z</time>
      </trkpt>
      <trkpt lat="45.17338" lon="5.54515">
        <ele>1044</ele>
        <time>2022-06-29T14:16:05.000Z</time>
      </trkpt>
      <trkpt lat="45.17344" lon="5.54479">
        <ele>1044</ele>
        <time>2022-06-29T14:16:06.000Z</time>
      </trkpt>
      <trkpt lat="45.17345" lon="5.54471">
        <ele>1044</ele>
        <time>2022-06-29T14:16:07.000Z</time>
      </trkpt>
      <trkpt lat="45.17345" lon="5.5446">
        <ele>1043</ele>
        <time>2022-06-29T14:16:08.000Z</time>
      </trkpt>
      <trkpt lat="45.17347" lon="5.54456">
        <ele>1043</ele>
        <time>2022-06-29T14:16:09.000Z</time>
      </trkpt>
      <trkpt lat="45.1735" lon="5.54453">
        <ele>1043</ele>
        <time>2022-06-29T14:16:10.000Z</time>
      </trkpt>
      <trkpt lat="45.17357" lon="5.54449">
        <ele>1043</ele>
        <time>2022-06-29T14:16:11.000Z</time>
      </trkpt>
      <trkpt lat="45.17361" lon="5.54448">
        <ele>1043</ele>
        <time>2022-06-29T14:16:12.000Z</time>
      </trkpt>
      <trkpt lat="45.17365" lon="5.54448">
        <ele>1043</ele>
        <time>2022-06-29T14:16:13.000Z</time>
      </trkpt>
      <trkpt lat="45.17369" lon="5.5445">
        <ele>1043</ele>
        <time>2022-06-29T14:16:14.000Z</time>
      </trkpt>
      <trkpt lat="45.17373" lon="5.54453">
        <ele>1043</ele>
        <time>2022-06-29T14:16:15.000Z</time>
      </trkpt>
      <trkpt lat="45.17376" lon="5.54455">
        <ele>1043</ele>
        <time>2022-06-29T14:16:16.000Z</time>
      </trkpt>
      <trkpt lat="45.17378" lon="5.54458">
        <ele>1044</ele>
        <time>2022-06-29T14:16:17.000Z</time>
      </trkpt>
      <trkpt lat="45.17387" lon="5.5444">
        <ele>1044</ele>
        <time>2022-06-29T14:16:18.000Z</time>
      </trkpt>
      <trkpt lat="45.17396" lon="5.54423">
        <ele>1044</ele>
        <time>2022-06-29T14:16:19.000Z</time>
      </trkpt>
      <trkpt lat="45.17405" lon="5.54402">
        <ele>1044</ele>
        <time>2022-06-29T14:16:20.000Z</time>
      </trkpt>
      <trkpt lat="45.17428" lon="5.54353">
        <ele>1040</ele>
        <time>2022-06-29T14:16:21.000Z</time>
      </trkpt>
      <trkpt lat="45.17431" lon="5.54347">
        <ele>1040</ele>
        <time>2022-06-29T14:16:22.000Z</time>
      </trkpt>
      <trkpt lat="45.17444" lon="5.54317">
        <ele>1040</ele>
        <time>2022-06-29T14:16:23.000Z</time>
      </trkpt>
      <trkpt lat="45.17447" lon="5.5431">
        <ele>1040</ele>
        <time>2022-06-29T14:16:24.000Z</time>
      </trkpt>
      <trkpt lat="45.17453" lon="5.54298">
        <ele>1042</ele>
        <time>2022-06-29T14:16:25.000Z</time>
      </trkpt>
      <trkpt lat="45.17457" lon="5.5429">
        <ele>1042</ele>
        <time>2022-06-29T14:16:26.000Z</time>
      </trkpt>
      <trkpt lat="45.17459" lon="5.54286">
        <ele>1042</ele>
        <time>2022-06-29T14:16:27.000Z</time>
      </trkpt>
      <trkpt lat="45.1746" lon="5.54282">
        <ele>1042</ele>
        <time>2022-06-29T14:16:28.000Z</time>
      </trkpt>
      <trkpt lat="45.17474" lon="5.54252">
        <ele>1044</ele>
        <time>2022-06-29T14:16:29.000Z</time>
      </trkpt>
      <trkpt lat="45.17479" lon="5.54246">
        <ele>1044</ele>
        <time>2022-06-29T14:16:30.000Z</time>
      </trkpt>
      <trkpt lat="45.17484" lon="5.54245">
        <ele>1044</ele>
        <time>2022-06-29T14:16:31.000Z</time>
      </trkpt>
      <trkpt lat="45.17486" lon="5.54239">
        <ele>1044</ele>
        <time>2022-06-29T14:16:32.000Z</time>
      </trkpt>
      <trkpt lat="45.17488" lon="5.5423">
        <ele>1044</ele>
        <time>2022-06-29T14:16:33.000Z</time>
      </trkpt>
      <trkpt lat="45.175" lon="5.54193">
        <ele>1045</ele>
        <time>2022-06-29T14:16:34.000Z</time>
      </trkpt>
      <trkpt lat="45.175" lon="5.54195">
        <ele>1045</ele>
        <time>2022-06-29T14:16:35.000Z</time>
      </trkpt>
      <trkpt lat="45.1748" lon="5.54151">
        <ele>1045</ele>
        <time>2022-06-29T14:16:36.000Z</time>
      </trkpt>
      <trkpt lat="45.17548" lon="5.53953">
        <ele>1036</ele>
        <time>2022-06-29T14:16:37.000Z</time>
      </trkpt>
      <trkpt lat="45.17555" lon="5.53954">
        <ele>1036</ele>
        <time>2022-06-29T14:16:38.000Z</time>
      </trkpt>
      <trkpt lat="45.17589" lon="5.53975">
        <ele>1040</ele>
        <time>2022-06-29T14:16:39.000Z</time>
      </trkpt>
      <trkpt lat="45.17592" lon="5.53977">
        <ele>1040</ele>
        <time>2022-06-29T14:16:40.000Z</time>
      </trkpt>
      <trkpt lat="45.17594" lon="5.53978">
        <ele>1040</ele>
        <time>2022-06-29T14:16:41.000Z</time>
      </trkpt>
      <trkpt lat="45.17599" lon="5.53982">
        <ele>1040</ele>
        <time>2022-06-29T14:16:42.000Z</time>
      </trkpt>
      <trkpt lat="45.1764" lon="5.54009">
        <ele>1039</ele>
        <time>2022-06-29T14:16:43.000Z</time>
      </trkpt>
      <trkpt lat="45.17646" lon="5.54013">
        <ele>1039</ele>
        <time>2022-06-29T14:16:44.000Z</time>
      </trkpt>
      <trkpt lat="45.1767" lon="5.54033">
        <ele>1039</ele>
        <time>2022-06-29T14:16:45.000Z</time>
      </trkpt>
      <trkpt lat="45.17679" lon="5.54041">
        <ele>1039</ele>
        <time>2022-06-29T14:16:46.000Z</time>
      </trkpt>
      <trkpt lat="45.17729" lon="5.54093">
        <ele>1048</ele>
        <time>2022-06-29T14:16:47.000Z</time>
      </trkpt>
      <trkpt lat="45.17745" lon="5.54112">
        <ele>1048</ele>
        <time>2022-06-29T14:16:48.000Z</time>
      </trkpt>
      <trkpt lat="45.17752" lon="5.5412">
        <ele>1048</ele>
        <time>2022-06-29T14:16:49.000Z</time>
      </trkpt>
      <trkpt lat="45.17763" lon="5.54133">
        <ele>1048</ele>
        <time>2022-06-29T14:16:50.000Z</time>
      </trkpt>
      <trkpt lat="45.17768" lon="5.54141">
        <ele>1047</ele>
        <time>2022-06-29T14:16:51.000Z</time>
      </trkpt>
      <trkpt lat="45.17764" lon="5.54155">
        <ele>1047</ele>
        <time>2022-06-29T14:16:52.000Z</time>
      </trkpt>
      <trkpt lat="45.17759" lon="5.54171">
        <ele>1047</ele>
        <time>2022-06-29T14:16:53.000Z</time>
      </trkpt>
      <trkpt lat="45.17753" lon="5.54187">
        <ele>1047</ele>
        <time>2022-06-29T14:16:54.000Z</time>
      </trkpt>
      <trkpt lat="45.17741" lon="5.54211">
        <ele>1047</ele>
        <time>2022-06-29T14:16:55.000Z</time>
      </trkpt>
      <trkpt lat="45.17728" lon="5.54237">
        <ele>1047</ele>
        <time>2022-06-29T14:16:56.000Z</time>
      </trkpt>
      <trkpt lat="45.17722" lon="5.54247">
        <ele>1047</ele>
        <time>2022-06-29T14:16:57.000Z</time>
      </trkpt>
      <trkpt lat="45.17732" lon="5.54253">
        <ele>1047</ele>
        <time>2022-06-29T14:16:58.000Z</time>
      </trkpt>
      <trkpt lat="45.17734" lon="5.54254">
        <ele>1047</ele>
        <time>2022-06-29T14:16:59.000Z</time>
      </trkpt>
      <trkpt lat="45.17748" lon="5.54262">
        <ele>1047</ele>
        <time>2022-06-29T14:17:00.000Z</time>
      </trkpt>
      <trkpt lat="45.17756" lon="5.54267">
        <ele>1047</ele>
        <time>2022-06-29T14:17:01.000Z</time>
      </trkpt>
      <trkpt lat="45.17775" lon="5.54279">
        <ele>1047</ele>
        <time>2022-06-29T14:17:02.000Z</time>
      </trkpt>
      <trkpt lat="45.17788" lon="5.54288">
        <ele>1047</ele>
        <time>2022-06-29T14:17:03.000Z</time>
      </trkpt>
      <trkpt lat="45.17799" lon="5.54294">
        <ele>1044</ele>
        <time>2022-06-29T14:17:04.000Z</time>
      </trkpt>
      <trkpt lat="45.17812" lon="5.54303">
        <ele>1048</ele>
        <time>2022-06-29T14:17:05.000Z</time>
      </trkpt>
      <trkpt lat="45.17817" lon="5.54305">
        <ele>1048</ele>
        <time>2022-06-29T14:17:06.000Z</time>
      </trkpt>
      <trkpt lat="45.17878" lon="5.54338">
        <ele>1048</ele>
        <time>2022-06-29T14:17:07.000Z</time>
      </trkpt>
      <trkpt lat="45.17897" lon="5.54347">
        <ele>1050</ele>
        <time>2022-06-29T14:17:08.000Z</time>
      </trkpt>
      <trkpt lat="45.17916" lon="5.54358">
        <ele>1050</ele>
        <time>2022-06-29T14:17:09.000Z</time>
      </trkpt>
      <trkpt lat="45.17924" lon="5.54361">
        <ele>1050</ele>
        <time>2022-06-29T14:17:10.000Z</time>
      </trkpt>
      <trkpt lat="45.17932" lon="5.54365">
        <ele>1050</ele>
        <time>2022-06-29T14:17:11.000Z</time>
      </trkpt>
      <trkpt lat="45.17944" lon="5.5437">
        <ele>1050</ele>
        <time>2022-06-29T14:17:12.000Z</time>
      </trkpt>
      <trkpt lat="45.17966" lon="5.54379">
        <ele>1052</ele>
        <time>2022-06-29T14:17:13.000Z</time>
      </trkpt>
      <trkpt lat="45.17966" lon="5.5438">
        <ele>1052</ele>
        <time>2022-06-29T14:17:14.000Z</time>
      </trkpt>
      <trkpt lat="45.17987" lon="5.54385">
        <ele>1056</ele>
        <time>2022-06-29T14:17:15.000Z</time>
      </trkpt>
      <trkpt lat="45.18008" lon="5.54391">
        <ele>1056</ele>
        <time>2022-06-29T14:17:16.000Z</time>
      </trkpt>
      <trkpt lat="45.18028" lon="5.54396">
        <ele>1056</ele>
        <time>2022-06-29T14:17:17.000Z</time>
      </trkpt>
      <trkpt lat="45.18049" lon="5.54402">
        <ele>1057</ele>
        <time>2022-06-29T14:17:18.000Z</time>
      </trkpt>
      <trkpt lat="45.18068" lon="5.54412">
        <ele>1057</ele>
        <time>2022-06-29T14:17:19.000Z</time>
      </trkpt>
      <trkpt lat="45.18086" lon="5.54422">
        <ele>1057</ele>
        <time>2022-06-29T14:17:20.000Z</time>
      </trkpt>
      <trkpt lat="45.18105" lon="5.54432">
        <ele>1057</ele>
        <time>2022-06-29T14:17:21.000Z</time>
      </trkpt>
      <trkpt lat="45.18123" lon="5.54442">
        <ele>1057</ele>
        <time>2022-06-29T14:17:22.000Z</time>
      </trkpt>
      <trkpt lat="45.18141" lon="5.54448">
        <ele>1062</ele>
        <time>2022-06-29T14:17:23.000Z</time>
      </trkpt>
      <trkpt lat="45.18159" lon="5.54454">
        <ele>1062</ele>
        <time>2022-06-29T14:17:24.000Z</time>
      </trkpt>
      <trkpt lat="45.18178" lon="5.54454">
        <ele>1062</ele>
        <time>2022-06-29T14:17:25.000Z</time>
      </trkpt>
      <trkpt lat="45.18198" lon="5.54454">
        <ele>1062</ele>
        <time>2022-06-29T14:17:26.000Z</time>
      </trkpt>
      <trkpt lat="45.18217" lon="5.54455">
        <ele>1068</ele>
        <time>2022-06-29T14:17:27.000Z</time>
      </trkpt>
      <trkpt lat="45.18233" lon="5.54451">
        <ele>1068</ele>
        <time>2022-06-29T14:17:28.000Z</time>
      </trkpt>
      <trkpt lat="45.18248" lon="5.54447">
        <ele>1068</ele>
        <time>2022-06-29T14:17:29.000Z</time>
      </trkpt>
      <trkpt lat="45.18261" lon="5.54447">
        <ele>1068</ele>
        <time>2022-06-29T14:17:30.000Z</time>
      </trkpt>
      <trkpt lat="45.18275" lon="5.54446">
        <ele>1068</ele>
        <time>2022-06-29T14:17:31.000Z</time>
      </trkpt>
      <trkpt lat="45.18283" lon="5.54471">
        <ele>1069</ele>
        <time>2022-06-29T14:17:32.000Z</time>
      </trkpt>
      <trkpt lat="45.18292" lon="5.54496">
        <ele>1069</ele>
        <time>2022-06-29T14:17:33.000Z</time>
      </trkpt>
      <trkpt lat="45.18298" lon="5.54523">
        <ele>1077</ele>
        <time>2022-06-29T14:17:34.000Z</time>
      </trkpt>
      <trkpt lat="45.18304" lon="5.54551">
        <ele>1076</ele>
        <time>2022-06-29T14:17:35.000Z</time>
      </trkpt>
      <trkpt lat="45.18309" lon="5.54579">
        <ele>1076</ele>
        <time>2022-06-29T14:17:36.000Z</time>
      </trkpt>
      <trkpt lat="45.18315" lon="5.54606">
        <ele>1076</ele>
        <time>2022-06-29T14:17:37.000Z</time>
      </trkpt>
      <trkpt lat="45.1831" lon="5.54624">
        <ele>1076</ele>
        <time>2022-06-29T14:17:38.000Z</time>
      </trkpt>
      <trkpt lat="45.18304" lon="5.54642">
        <ele>1078</ele>
        <time>2022-06-29T14:17:39.000Z</time>
      </trkpt>
      <trkpt lat="45.1829" lon="5.54665">
        <ele>1071</ele>
        <time>2022-06-29T14:17:40.000Z</time>
      </trkpt>
      <trkpt lat="45.18277" lon="5.54689">
        <ele>1071</ele>
        <time>2022-06-29T14:17:41.000Z</time>
      </trkpt>
      <trkpt lat="45.18263" lon="5.54713">
        <ele>1071</ele>
        <time>2022-06-29T14:17:42.000Z</time>
      </trkpt>
      <trkpt lat="45.1825" lon="5.54736">
        <ele>1073</ele>
        <time>2022-06-29T14:17:43.000Z</time>
      </trkpt>
      <trkpt lat="45.18236" lon="5.5476">
        <ele>1073</ele>
        <time>2022-06-29T14:17:44.000Z</time>
      </trkpt>
      <trkpt lat="45.18235" lon="5.54774">
        <ele>1073</ele>
        <time>2022-06-29T14:17:45.000Z</time>
      </trkpt>
      <trkpt lat="45.1825" lon="5.54788">
        <ele>1073</ele>
        <time>2022-06-29T14:17:46.000Z</time>
      </trkpt>
      <trkpt lat="45.18266" lon="5.54801">
        <ele>1073</ele>
        <time>2022-06-29T14:17:47.000Z</time>
      </trkpt>
      <trkpt lat="45.18267" lon="5.5481">
        <ele>1069</ele>
        <time>2022-06-29T14:17:48.000Z</time>
      </trkpt>
      <trkpt lat="45.18261" lon="5.54836">
        <ele>1069</ele>
        <time>2022-06-29T14:17:49.000Z</time>
      </trkpt>
      <trkpt lat="45.18277" lon="5.54839">
        <ele>1069</ele>
        <time>2022-06-29T14:17:50.000Z</time>
      </trkpt>
      <trkpt lat="45.18293" lon="5.54842">
        <ele>1069</ele>
        <time>2022-06-29T14:17:51.000Z</time>
      </trkpt>
      <trkpt lat="45.18308" lon="5.54845">
        <ele>1076</ele>
        <time>2022-06-29T14:17:52.000Z</time>
      </trkpt>
      <trkpt lat="45.18328" lon="5.54855">
        <ele>1076</ele>
        <time>2022-06-29T14:17:53.000Z</time>
      </trkpt>
      <trkpt lat="45.18329" lon="5.54867">
        <ele>1076</ele>
        <time>2022-06-29T14:17:54.000Z</time>
      </trkpt>
      <trkpt lat="45.18341" lon="5.54877">
        <ele>1076</ele>
        <time>2022-06-29T14:17:55.000Z</time>
      </trkpt>
      <trkpt lat="45.18358" lon="5.54883">
        <ele>1076</ele>
        <time>2022-06-29T14:17:56.000Z</time>
      </trkpt>
      <trkpt lat="45.18375" lon="5.54889">
        <ele>1080</ele>
        <time>2022-06-29T14:17:57.000Z</time>
      </trkpt>
      <trkpt lat="45.18391" lon="5.54895">
        <ele>1095</ele>
        <time>2022-06-29T14:17:58.000Z</time>
      </trkpt>
      <trkpt lat="45.18408" lon="5.54901">
        <ele>1095</ele>
        <time>2022-06-29T14:17:59.000Z</time>
      </trkpt>
      <trkpt lat="45.1842" lon="5.54913">
        <ele>1095</ele>
        <time>2022-06-29T14:18:00.000Z</time>
      </trkpt>
      <trkpt lat="45.18432" lon="5.54925">
        <ele>1095</ele>
        <time>2022-06-29T14:18:01.000Z</time>
      </trkpt>
      <trkpt lat="45.18439" lon="5.54942">
        <ele>1095</ele>
        <time>2022-06-29T14:18:02.000Z</time>
      </trkpt>
      <trkpt lat="45.18446" lon="5.5496">
        <ele>1095</ele>
        <time>2022-06-29T14:18:03.000Z</time>
      </trkpt>
      <trkpt lat="45.18445" lon="5.54976">
        <ele>1105</ele>
        <time>2022-06-29T14:18:04.000Z</time>
      </trkpt>
      <trkpt lat="45.18444" lon="5.54992">
        <ele>1105</ele>
        <time>2022-06-29T14:18:05.000Z</time>
      </trkpt>
      <trkpt lat="45.18438" lon="5.5502">
        <ele>1105</ele>
        <time>2022-06-29T14:18:06.000Z</time>
      </trkpt>
      <trkpt lat="45.18436" lon="5.55037">
        <ele>1105</ele>
        <time>2022-06-29T14:18:07.000Z</time>
      </trkpt>
      <trkpt lat="45.18435" lon="5.55053">
        <ele>1108</ele>
        <time>2022-06-29T14:18:08.000Z</time>
      </trkpt>
      <trkpt lat="45.18435" lon="5.55076">
        <ele>1108</ele>
        <time>2022-06-29T14:18:09.000Z</time>
      </trkpt>
      <trkpt lat="45.18442" lon="5.55094">
        <ele>1108</ele>
        <time>2022-06-29T14:18:10.000Z</time>
      </trkpt>
      <trkpt lat="45.18449" lon="5.55112">
        <ele>1108</ele>
        <time>2022-06-29T14:18:11.000Z</time>
      </trkpt>
      <trkpt lat="45.18454" lon="5.55132">
        <ele>1108</ele>
        <time>2022-06-29T14:18:12.000Z</time>
      </trkpt>
      <trkpt lat="45.18469" lon="5.5514">
        <ele>1130</ele>
        <time>2022-06-29T14:18:13.000Z</time>
      </trkpt>
      <trkpt lat="45.18488" lon="5.55142">
        <ele>1130</ele>
        <time>2022-06-29T14:18:14.000Z</time>
      </trkpt>
      <trkpt lat="45.18507" lon="5.55144">
        <ele>1130</ele>
        <time>2022-06-29T14:18:15.000Z</time>
      </trkpt>
      <trkpt lat="45.18521" lon="5.5514">
        <ele>1130</ele>
        <time>2022-06-29T14:18:16.000Z</time>
      </trkpt>
      <trkpt lat="45.18541" lon="5.55147">
        <ele>1130</ele>
        <time>2022-06-29T14:18:17.000Z</time>
      </trkpt>
      <trkpt lat="45.18549" lon="5.55163">
        <ele>1132</ele>
        <time>2022-06-29T14:18:18.000Z</time>
      </trkpt>
      <trkpt lat="45.18556" lon="5.55178">
        <ele>1132</ele>
        <time>2022-06-29T14:18:19.000Z</time>
      </trkpt>
      <trkpt lat="45.18564" lon="5.55205">
        <ele>1132</ele>
        <time>2022-06-29T14:18:20.000Z</time>
      </trkpt>
      <trkpt lat="45.18565" lon="5.55231">
        <ele>1144</ele>
        <time>2022-06-29T14:18:21.000Z</time>
      </trkpt>
      <trkpt lat="45.18566" lon="5.55257">
        <ele>1144</ele>
        <time>2022-06-29T14:18:22.000Z</time>
      </trkpt>
      <trkpt lat="45.18566" lon="5.55283">
        <ele>1144</ele>
        <time>2022-06-29T14:18:23.000Z</time>
      </trkpt>
      <trkpt lat="45.18567" lon="5.55309">
        <ele>1144</ele>
        <time>2022-06-29T14:18:24.000Z</time>
      </trkpt>
      <trkpt lat="45.18566" lon="5.55337">
        <ele>1144</ele>
        <time>2022-06-29T14:18:25.000Z</time>
      </trkpt>
      <trkpt lat="45.18565" lon="5.55365">
        <ele>1144</ele>
        <time>2022-06-29T14:18:26.000Z</time>
      </trkpt>
      <trkpt lat="45.18564" lon="5.55393">
        <ele>1142</ele>
        <time>2022-06-29T14:18:27.000Z</time>
      </trkpt>
      <trkpt lat="45.18563" lon="5.55422">
        <ele>1142</ele>
        <time>2022-06-29T14:18:28.000Z</time>
      </trkpt>
      <trkpt lat="45.18571" lon="5.55438">
        <ele>1142</ele>
        <time>2022-06-29T14:18:29.000Z</time>
      </trkpt>
      <trkpt lat="45.1858" lon="5.55454">
        <ele>1142</ele>
        <time>2022-06-29T14:18:30.000Z</time>
      </trkpt>
      <trkpt lat="45.18582" lon="5.55476">
        <ele>1137</ele>
        <time>2022-06-29T14:18:31.000Z</time>
      </trkpt>
      <trkpt lat="45.18584" lon="5.55498">
        <ele>1137</ele>
        <time>2022-06-29T14:18:32.000Z</time>
      </trkpt>
      <trkpt lat="45.18592" lon="5.555">
        <ele>1137</ele>
        <time>2022-06-29T14:18:33.000Z</time>
      </trkpt>
      <trkpt lat="45.18607" lon="5.55503">
        <ele>1137</ele>
        <time>2022-06-29T14:18:34.000Z</time>
      </trkpt>
      <trkpt lat="45.18622" lon="5.55507">
        <ele>1137</ele>
        <time>2022-06-29T14:18:35.000Z</time>
      </trkpt>
      <trkpt lat="45.18641" lon="5.55519">
        <ele>1148</ele>
        <time>2022-06-29T14:18:36.000Z</time>
      </trkpt>
      <trkpt lat="45.18659" lon="5.55532">
        <ele>1148</ele>
        <time>2022-06-29T14:18:37.000Z</time>
      </trkpt>
      <trkpt lat="45.18673" lon="5.55549">
        <ele>1148</ele>
        <time>2022-06-29T14:18:38.000Z</time>
      </trkpt>
      <trkpt lat="45.18691" lon="5.55557">
        <ele>1153</ele>
        <time>2022-06-29T14:18:39.000Z</time>
      </trkpt>
      <trkpt lat="45.1871" lon="5.55566">
        <ele>1153</ele>
        <time>2022-06-29T14:18:40.000Z</time>
      </trkpt>
      <trkpt lat="45.18728" lon="5.55574">
        <ele>1161</ele>
        <time>2022-06-29T14:18:41.000Z</time>
      </trkpt>
      <trkpt lat="45.18746" lon="5.55592">
        <ele>1161</ele>
        <time>2022-06-29T14:18:42.000Z</time>
      </trkpt>
      <trkpt lat="45.18765" lon="5.5561">
        <ele>1161</ele>
        <time>2022-06-29T14:18:43.000Z</time>
      </trkpt>
      <trkpt lat="45.18783" lon="5.55628">
        <ele>1161</ele>
        <time>2022-06-29T14:18:44.000Z</time>
      </trkpt>
      <trkpt lat="45.18798" lon="5.55645">
        <ele>1169</ele>
        <time>2022-06-29T14:18:45.000Z</time>
      </trkpt>
      <trkpt lat="45.18813" lon="5.55663">
        <ele>1169</ele>
        <time>2022-06-29T14:18:46.000Z</time>
      </trkpt>
      <trkpt lat="45.18822" lon="5.55681">
        <ele>1169</ele>
        <time>2022-06-29T14:18:47.000Z</time>
      </trkpt>
      <trkpt lat="45.18831" lon="5.55693">
        <ele>1169</ele>
        <time>2022-06-29T14:18:48.000Z</time>
      </trkpt>
      <trkpt lat="45.18839" lon="5.55705">
        <ele>1169</ele>
        <time>2022-06-29T14:18:49.000Z</time>
      </trkpt>
      <trkpt lat="45.18851" lon="5.55727">
        <ele>1166</ele>
        <time>2022-06-29T14:18:50.000Z</time>
      </trkpt>
      <trkpt lat="45.18862" lon="5.55749">
        <ele>1166</ele>
        <time>2022-06-29T14:18:51.000Z</time>
      </trkpt>
      <trkpt lat="45.18873" lon="5.55765">
        <ele>1166</ele>
        <time>2022-06-29T14:18:52.000Z</time>
      </trkpt>
      <trkpt lat="45.18883" lon="5.55782">
        <ele>1165</ele>
        <time>2022-06-29T14:18:53.000Z</time>
      </trkpt>
      <trkpt lat="45.18894" lon="5.55799">
        <ele>1165</ele>
        <time>2022-06-29T14:18:54.000Z</time>
      </trkpt>
      <trkpt lat="45.18909" lon="5.55811">
        <ele>1170</ele>
        <time>2022-06-29T14:18:55.000Z</time>
      </trkpt>
      <trkpt lat="45.18923" lon="5.55824">
        <ele>1170</ele>
        <time>2022-06-29T14:18:56.000Z</time>
      </trkpt>
      <trkpt lat="45.18941" lon="5.55828">
        <ele>1170</ele>
        <time>2022-06-29T14:18:57.000Z</time>
      </trkpt>
      <trkpt lat="45.18934" lon="5.55845">
        <ele>1170</ele>
        <time>2022-06-29T14:18:58.000Z</time>
      </trkpt>
      <trkpt lat="45.18928" lon="5.55862">
        <ele>1170</ele>
        <time>2022-06-29T14:18:59.000Z</time>
      </trkpt>
      <trkpt lat="45.18943" lon="5.55884">
        <ele>1170</ele>
        <time>2022-06-29T14:19:00.000Z</time>
      </trkpt>
      <trkpt lat="45.18958" lon="5.55906">
        <ele>1172</ele>
        <time>2022-06-29T14:19:01.000Z</time>
      </trkpt>
      <trkpt lat="45.18976" lon="5.55919">
        <ele>1187</ele>
        <time>2022-06-29T14:19:02.000Z</time>
      </trkpt>
      <trkpt lat="45.18993" lon="5.55933">
        <ele>1187</ele>
        <time>2022-06-29T14:19:03.000Z</time>
      </trkpt>
      <trkpt lat="45.1901" lon="5.55946">
        <ele>1187</ele>
        <time>2022-06-29T14:19:04.000Z</time>
      </trkpt>
      <trkpt lat="45.19027" lon="5.5596">
        <ele>1187</ele>
        <time>2022-06-29T14:19:05.000Z</time>
      </trkpt>
      <trkpt lat="45.19044" lon="5.55973">
        <ele>1182</ele>
        <time>2022-06-29T14:19:06.000Z</time>
      </trkpt>
      <trkpt lat="45.19061" lon="5.55987">
        <ele>1200</ele>
        <time>2022-06-29T14:19:07.000Z</time>
      </trkpt>
      <trkpt lat="45.19078" lon="5.56">
        <ele>1200</ele>
        <time>2022-06-29T14:19:08.000Z</time>
      </trkpt>
      <trkpt lat="45.19098" lon="5.56013">
        <ele>1200</ele>
        <time>2022-06-29T14:19:09.000Z</time>
      </trkpt>
      <trkpt lat="45.19118" lon="5.56025">
        <ele>1200</ele>
        <time>2022-06-29T14:19:10.000Z</time>
      </trkpt>
      <trkpt lat="45.19138" lon="5.56037">
        <ele>1205</ele>
        <time>2022-06-29T14:19:11.000Z</time>
      </trkpt>
      <trkpt lat="45.19158" lon="5.56049">
        <ele>1205</ele>
        <time>2022-06-29T14:19:12.000Z</time>
      </trkpt>
      <trkpt lat="45.19178" lon="5.56061">
        <ele>1207</ele>
        <time>2022-06-29T14:19:13.000Z</time>
      </trkpt>
      <trkpt lat="45.19198" lon="5.56073">
        <ele>1207</ele>
        <time>2022-06-29T14:19:14.000Z</time>
      </trkpt>
      <trkpt lat="45.19214" lon="5.56087">
        <ele>1218</ele>
        <time>2022-06-29T14:19:15.000Z</time>
      </trkpt>
      <trkpt lat="45.1923" lon="5.56102">
        <ele>1218</ele>
        <time>2022-06-29T14:19:16.000Z</time>
      </trkpt>
      <trkpt lat="45.19246" lon="5.56123">
        <ele>1218</ele>
        <time>2022-06-29T14:19:17.000Z</time>
      </trkpt>
      <trkpt lat="45.19264" lon="5.56131">
        <ele>1218</ele>
        <time>2022-06-29T14:19:18.000Z</time>
      </trkpt>
      <trkpt lat="45.19283" lon="5.56139">
        <ele>1210</ele>
        <time>2022-06-29T14:19:19.000Z</time>
      </trkpt>
      <trkpt lat="45.19297" lon="5.56157">
        <ele>1223</ele>
        <time>2022-06-29T14:19:20.000Z</time>
      </trkpt>
      <trkpt lat="45.19312" lon="5.56175">
        <ele>1223</ele>
        <time>2022-06-29T14:19:21.000Z</time>
      </trkpt>
      <trkpt lat="45.19332" lon="5.56188">
        <ele>1223</ele>
        <time>2022-06-29T14:19:22.000Z</time>
      </trkpt>
      <trkpt lat="45.19353" lon="5.562">
        <ele>1223</ele>
        <time>2022-06-29T14:19:23.000Z</time>
      </trkpt>
      <trkpt lat="45.19368" lon="5.56214">
        <ele>1223</ele>
        <time>2022-06-29T14:19:24.000Z</time>
      </trkpt>
      <trkpt lat="45.19383" lon="5.56227">
        <ele>1224</ele>
        <time>2022-06-29T14:19:25.000Z</time>
      </trkpt>
      <trkpt lat="45.19399" lon="5.56228">
        <ele>1224</ele>
        <time>2022-06-29T14:19:26.000Z</time>
      </trkpt>
      <trkpt lat="45.19415" lon="5.56229">
        <ele>1224</ele>
        <time>2022-06-29T14:19:27.000Z</time>
      </trkpt>
      <trkpt lat="45.19435" lon="5.56224">
        <ele>1224</ele>
        <time>2022-06-29T14:19:28.000Z</time>
      </trkpt>
      <trkpt lat="45.19454" lon="5.5622">
        <ele>1224</ele>
        <time>2022-06-29T14:19:29.000Z</time>
      </trkpt>
      <trkpt lat="45.19474" lon="5.56222">
        <ele>1234</ele>
        <time>2022-06-29T14:19:30.000Z</time>
      </trkpt>
      <trkpt lat="45.19494" lon="5.56225">
        <ele>1234</ele>
        <time>2022-06-29T14:19:31.000Z</time>
      </trkpt>
      <trkpt lat="45.19513" lon="5.56227">
        <ele>1234</ele>
        <time>2022-06-29T14:19:32.000Z</time>
      </trkpt>
      <trkpt lat="45.19532" lon="5.56241">
        <ele>1234</ele>
        <time>2022-06-29T14:19:33.000Z</time>
      </trkpt>
      <trkpt lat="45.1955" lon="5.56256">
        <ele>1249</ele>
        <time>2022-06-29T14:19:34.000Z</time>
      </trkpt>
      <trkpt lat="45.19569" lon="5.56262">
        <ele>1249</ele>
        <time>2022-06-29T14:19:35.000Z</time>
      </trkpt>
      <trkpt lat="45.19587" lon="5.56269">
        <ele>1249</ele>
        <time>2022-06-29T14:19:36.000Z</time>
      </trkpt>
      <trkpt lat="45.19606" lon="5.56275">
        <ele>1249</ele>
        <time>2022-06-29T14:19:37.000Z</time>
      </trkpt>
      <trkpt lat="45.19621" lon="5.56283">
        <ele>1249</ele>
        <time>2022-06-29T14:19:38.000Z</time>
      </trkpt>
      <trkpt lat="45.19637" lon="5.5629">
        <ele>1266</ele>
        <time>2022-06-29T14:19:39.000Z</time>
      </trkpt>
      <trkpt lat="45.19653" lon="5.56297">
        <ele>1266</ele>
        <time>2022-06-29T14:19:40.000Z</time>
      </trkpt>
      <trkpt lat="45.19672" lon="5.56297">
        <ele>1266</ele>
        <time>2022-06-29T14:19:41.000Z</time>
      </trkpt>
      <trkpt lat="45.19691" lon="5.56297">
        <ele>1266</ele>
        <time>2022-06-29T14:19:42.000Z</time>
      </trkpt>
      <trkpt lat="45.19696" lon="5.56295">
        <ele>1266</ele>
        <time>2022-06-29T14:19:43.000Z</time>
      </trkpt>
      <trkpt lat="45.19711" lon="5.56305">
        <ele>1253</ele>
        <time>2022-06-29T14:19:44.000Z</time>
      </trkpt>
      <trkpt lat="45.19727" lon="5.56316">
        <ele>1265</ele>
        <time>2022-06-29T14:19:45.000Z</time>
      </trkpt>
      <trkpt lat="45.19743" lon="5.56319">
        <ele>1265</ele>
        <time>2022-06-29T14:19:46.000Z</time>
      </trkpt>
      <trkpt lat="45.19759" lon="5.56323">
        <ele>1265</ele>
        <time>2022-06-29T14:19:47.000Z</time>
      </trkpt>
      <trkpt lat="45.19775" lon="5.56326">
        <ele>1265</ele>
        <time>2022-06-29T14:19:48.000Z</time>
      </trkpt>
      <trkpt lat="45.19796" lon="5.56329">
        <ele>1271</ele>
        <time>2022-06-29T14:19:49.000Z</time>
      </trkpt>
      <trkpt lat="45.19817" lon="5.56331">
        <ele>1271</ele>
        <time>2022-06-29T14:19:50.000Z</time>
      </trkpt>
      <trkpt lat="45.19838" lon="5.56334">
        <ele>1271</ele>
        <time>2022-06-29T14:19:51.000Z</time>
      </trkpt>
      <trkpt lat="45.19858" lon="5.56336">
        <ele>1271</ele>
        <time>2022-06-29T14:19:52.000Z</time>
      </trkpt>
      <trkpt lat="45.19871" lon="5.56356">
        <ele>1271</ele>
        <time>2022-06-29T14:19:53.000Z</time>
      </trkpt>
      <trkpt lat="45.19884" lon="5.56376">
        <ele>1268</ele>
        <time>2022-06-29T14:19:54.000Z</time>
      </trkpt>
      <trkpt lat="45.19904" lon="5.56382">
        <ele>1268</ele>
        <time>2022-06-29T14:19:55.000Z</time>
      </trkpt>
      <trkpt lat="45.19924" lon="5.56389">
        <ele>1270</ele>
        <time>2022-06-29T14:19:56.000Z</time>
      </trkpt>
      <trkpt lat="45.19945" lon="5.5639">
        <ele>1270</ele>
        <time>2022-06-29T14:19:57.000Z</time>
      </trkpt>
      <trkpt lat="45.19966" lon="5.56391">
        <ele>1275</ele>
        <time>2022-06-29T14:19:58.000Z</time>
      </trkpt>
      <trkpt lat="45.19988" lon="5.56392">
        <ele>1275</ele>
        <time>2022-06-29T14:19:59.000Z</time>
      </trkpt>
      <trkpt lat="45.20009" lon="5.56394">
        <ele>1275</ele>
        <time>2022-06-29T14:20:00.000Z</time>
      </trkpt>
      <trkpt lat="45.20027" lon="5.56387">
        <ele>1275</ele>
        <time>2022-06-29T14:20:01.000Z</time>
      </trkpt>
      <trkpt lat="45.20045" lon="5.5638">
        <ele>1283</ele>
        <time>2022-06-29T14:20:02.000Z</time>
      </trkpt>
      <trkpt lat="45.20053" lon="5.56363">
        <ele>1283</ele>
        <time>2022-06-29T14:20:03.000Z</time>
      </trkpt>
      <trkpt lat="45.20066" lon="5.56359">
        <ele>1283</ele>
        <time>2022-06-29T14:20:04.000Z</time>
      </trkpt>
      <trkpt lat="45.20085" lon="5.56345">
        <ele>1283</ele>
        <time>2022-06-29T14:20:05.000Z</time>
      </trkpt>
      <trkpt lat="45.20103" lon="5.56353">
        <ele>1283</ele>
        <time>2022-06-29T14:20:06.000Z</time>
      </trkpt>
      <trkpt lat="45.20114" lon="5.56363">
        <ele>1283</ele>
        <time>2022-06-29T14:20:07.000Z</time>
      </trkpt>
      <trkpt lat="45.20125" lon="5.56373">
        <ele>1283</ele>
        <time>2022-06-29T14:20:08.000Z</time>
      </trkpt>
      <trkpt lat="45.20132" lon="5.56386">
        <ele>1285</ele>
        <time>2022-06-29T14:20:09.000Z</time>
      </trkpt>
      <trkpt lat="45.20139" lon="5.564">
        <ele>1285</ele>
        <time>2022-06-29T14:20:10.000Z</time>
      </trkpt>
      <trkpt lat="45.20145" lon="5.56418">
        <ele>1285</ele>
        <time>2022-06-29T14:20:11.000Z</time>
      </trkpt>
      <trkpt lat="45.20151" lon="5.56435">
        <ele>1285</ele>
        <time>2022-06-29T14:20:12.000Z</time>
      </trkpt>
      <trkpt lat="45.20163" lon="5.56459">
        <ele>1285</ele>
        <time>2022-06-29T14:20:13.000Z</time>
      </trkpt>
      <trkpt lat="45.20176" lon="5.56483">
        <ele>1277</ele>
        <time>2022-06-29T14:20:14.000Z</time>
      </trkpt>
      <trkpt lat="45.20188" lon="5.56507">
        <ele>1277</ele>
        <time>2022-06-29T14:20:15.000Z</time>
      </trkpt>
      <trkpt lat="45.20201" lon="5.56532">
        <ele>1277</ele>
        <time>2022-06-29T14:20:16.000Z</time>
      </trkpt>
      <trkpt lat="45.20205" lon="5.56548">
        <ele>1277</ele>
        <time>2022-06-29T14:20:17.000Z</time>
      </trkpt>
      <trkpt lat="45.20217" lon="5.56569">
        <ele>1274</ele>
        <time>2022-06-29T14:20:18.000Z</time>
      </trkpt>
      <trkpt lat="45.20228" lon="5.56575">
        <ele>1274</ele>
        <time>2022-06-29T14:20:19.000Z</time>
      </trkpt>
      <trkpt lat="45.20239" lon="5.5658">
        <ele>1274</ele>
        <time>2022-06-29T14:20:20.000Z</time>
      </trkpt>
      <trkpt lat="45.20257" lon="5.56582">
        <ele>1274</ele>
        <time>2022-06-29T14:20:21.000Z</time>
      </trkpt>
      <trkpt lat="45.20275" lon="5.56584">
        <ele>1274</ele>
        <time>2022-06-29T14:20:22.000Z</time>
      </trkpt>
      <trkpt lat="45.20293" lon="5.56586">
        <ele>1274</ele>
        <time>2022-06-29T14:20:23.000Z</time>
      </trkpt>
      <trkpt lat="45.20312" lon="5.56593">
        <ele>1282</ele>
        <time>2022-06-29T14:20:24.000Z</time>
      </trkpt>
      <trkpt lat="45.20322" lon="5.56602">
        <ele>1282</ele>
        <time>2022-06-29T14:20:25.000Z</time>
      </trkpt>
      <trkpt lat="45.20342" lon="5.5661">
        <ele>1282</ele>
        <time>2022-06-29T14:20:26.000Z</time>
      </trkpt>
      <trkpt lat="45.20362" lon="5.56618">
        <ele>1282</ele>
        <time>2022-06-29T14:20:27.000Z</time>
      </trkpt>
      <trkpt lat="45.20382" lon="5.56626">
        <ele>1286</ele>
        <time>2022-06-29T14:20:28.000Z</time>
      </trkpt>
      <trkpt lat="45.20402" lon="5.56634">
        <ele>1286</ele>
        <time>2022-06-29T14:20:29.000Z</time>
      </trkpt>
      <trkpt lat="45.20421" lon="5.56641">
        <ele>1264</ele>
        <time>2022-06-29T14:20:30.000Z</time>
      </trkpt>
      <trkpt lat="45.20437" lon="5.56654">
        <ele>1264</ele>
        <time>2022-06-29T14:20:31.000Z</time>
      </trkpt>
      <trkpt lat="45.20453" lon="5.56666">
        <ele>1264</ele>
        <time>2022-06-29T14:20:32.000Z</time>
      </trkpt>
      <trkpt lat="45.20461" lon="5.56677">
        <ele>1264</ele>
        <time>2022-06-29T14:20:33.000Z</time>
      </trkpt>
      <trkpt lat="45.2047" lon="5.56687">
        <ele>1277</ele>
        <time>2022-06-29T14:20:34.000Z</time>
      </trkpt>
      <trkpt lat="45.20486" lon="5.56698">
        <ele>1277</ele>
        <time>2022-06-29T14:20:35.000Z</time>
      </trkpt>
      <trkpt lat="45.20503" lon="5.56709">
        <ele>1277</ele>
        <time>2022-06-29T14:20:36.000Z</time>
      </trkpt>
      <trkpt lat="45.20522" lon="5.56712">
        <ele>1277</ele>
        <time>2022-06-29T14:20:37.000Z</time>
      </trkpt>
      <trkpt lat="45.2054" lon="5.56714">
        <ele>1277</ele>
        <time>2022-06-29T14:20:38.000Z</time>
      </trkpt>
      <trkpt lat="45.20556" lon="5.56722">
        <ele>1264</ele>
        <time>2022-06-29T14:20:39.000Z</time>
      </trkpt>
      <trkpt lat="45.20573" lon="5.5673">
        <ele>1264</ele>
        <time>2022-06-29T14:20:40.000Z</time>
      </trkpt>
      <trkpt lat="45.20589" lon="5.56738">
        <ele>1264</ele>
        <time>2022-06-29T14:20:41.000Z</time>
      </trkpt>
      <trkpt lat="45.20606" lon="5.56746">
        <ele>1264</ele>
        <time>2022-06-29T14:20:42.000Z</time>
      </trkpt>
      <trkpt lat="45.20623" lon="5.5675">
        <ele>1264</ele>
        <time>2022-06-29T14:20:43.000Z</time>
      </trkpt>
      <trkpt lat="45.20641" lon="5.56753">
        <ele>1266</ele>
        <time>2022-06-29T14:20:44.000Z</time>
      </trkpt>
      <trkpt lat="45.20659" lon="5.56754">
        <ele>1266</ele>
        <time>2022-06-29T14:20:45.000Z</time>
      </trkpt>
      <trkpt lat="45.20677" lon="5.56754">
        <ele>1266</ele>
        <time>2022-06-29T14:20:46.000Z</time>
      </trkpt>
      <trkpt lat="45.20694" lon="5.56754">
        <ele>1266</ele>
        <time>2022-06-29T14:20:47.000Z</time>
      </trkpt>
      <trkpt lat="45.20712" lon="5.56754">
        <ele>1272</ele>
        <time>2022-06-29T14:20:48.000Z</time>
      </trkpt>
      <trkpt lat="45.20727" lon="5.56763">
        <ele>1272</ele>
        <time>2022-06-29T14:20:49.000Z</time>
      </trkpt>
      <trkpt lat="45.20742" lon="5.56772">
        <ele>1272</ele>
        <time>2022-06-29T14:20:50.000Z</time>
      </trkpt>
      <trkpt lat="45.20757" lon="5.56781">
        <ele>1272</ele>
        <time>2022-06-29T14:20:51.000Z</time>
      </trkpt>
      <trkpt lat="45.20777" lon="5.5678">
        <ele>1272</ele>
        <time>2022-06-29T14:20:52.000Z</time>
      </trkpt>
      <trkpt lat="45.20796" lon="5.5678">
        <ele>1271</ele>
        <time>2022-06-29T14:20:53.000Z</time>
      </trkpt>
      <trkpt lat="45.20816" lon="5.56779">
        <ele>1271</ele>
        <time>2022-06-29T14:20:54.000Z</time>
      </trkpt>
      <trkpt lat="45.20836" lon="5.56773">
        <ele>1271</ele>
        <time>2022-06-29T14:20:55.000Z</time>
      </trkpt>
      <trkpt lat="45.20856" lon="5.56767">
        <ele>1271</ele>
        <time>2022-06-29T14:20:56.000Z</time>
      </trkpt>
      <trkpt lat="45.20877" lon="5.56761">
        <ele>1271</ele>
        <time>2022-06-29T14:20:57.000Z</time>
      </trkpt>
      <trkpt lat="45.20897" lon="5.56755">
        <ele>1277</ele>
        <time>2022-06-29T14:20:58.000Z</time>
      </trkpt>
      <trkpt lat="45.20909" lon="5.56757">
        <ele>1277</ele>
        <time>2022-06-29T14:20:59.000Z</time>
      </trkpt>
      <trkpt lat="45.20929" lon="5.5677">
        <ele>1277</ele>
        <time>2022-06-29T14:21:00.000Z</time>
      </trkpt>
      <trkpt lat="45.20949" lon="5.56783">
        <ele>1277</ele>
        <time>2022-06-29T14:21:01.000Z</time>
      </trkpt>
      <trkpt lat="45.20964" lon="5.56797">
        <ele>1285</ele>
        <time>2022-06-29T14:21:02.000Z</time>
      </trkpt>
      <trkpt lat="45.2098" lon="5.56811">
        <ele>1272</ele>
        <time>2022-06-29T14:21:03.000Z</time>
      </trkpt>
      <trkpt lat="45.20992" lon="5.56831">
        <ele>1272</ele>
        <time>2022-06-29T14:21:04.000Z</time>
      </trkpt>
      <trkpt lat="45.20992" lon="5.5684">
        <ele>1272</ele>
        <time>2022-06-29T14:21:05.000Z</time>
      </trkpt>
      <trkpt lat="45.20988" lon="5.56849">
        <ele>1272</ele>
        <time>2022-06-29T14:21:06.000Z</time>
      </trkpt>
      <trkpt lat="45.20973" lon="5.56863">
        <ele>1272</ele>
        <time>2022-06-29T14:21:07.000Z</time>
      </trkpt>
      <trkpt lat="45.20957" lon="5.56877">
        <ele>1266</ele>
        <time>2022-06-29T14:21:08.000Z</time>
      </trkpt>
      <trkpt lat="45.20949" lon="5.56887">
        <ele>1255</ele>
        <time>2022-06-29T14:21:09.000Z</time>
      </trkpt>
      <trkpt lat="45.20948" lon="5.56897">
        <ele>1255</ele>
        <time>2022-06-29T14:21:10.000Z</time>
      </trkpt>
      <trkpt lat="45.20957" lon="5.56914">
        <ele>1255</ele>
        <time>2022-06-29T14:21:11.000Z</time>
      </trkpt>
      <trkpt lat="45.20966" lon="5.56931">
        <ele>1265</ele>
        <time>2022-06-29T14:21:12.000Z</time>
      </trkpt>
      <trkpt lat="45.20979" lon="5.56942">
        <ele>1265</ele>
        <time>2022-06-29T14:21:13.000Z</time>
      </trkpt>
      <trkpt lat="45.20993" lon="5.56954">
        <ele>1265</ele>
        <time>2022-06-29T14:21:14.000Z</time>
      </trkpt>
      <trkpt lat="45.21009" lon="5.56955">
        <ele>1265</ele>
        <time>2022-06-29T14:21:15.000Z</time>
      </trkpt>
      <trkpt lat="45.21026" lon="5.56956">
        <ele>1265</ele>
        <time>2022-06-29T14:21:16.000Z</time>
      </trkpt>
      <trkpt lat="45.21042" lon="5.56952">
        <ele>1265</ele>
        <time>2022-06-29T14:21:17.000Z</time>
      </trkpt>
      <trkpt lat="45.21059" lon="5.56958">
        <ele>1269</ele>
        <time>2022-06-29T14:21:18.000Z</time>
      </trkpt>
      <trkpt lat="45.21076" lon="5.56963">
        <ele>1269</ele>
        <time>2022-06-29T14:21:19.000Z</time>
      </trkpt>
      <trkpt lat="45.21086" lon="5.56975">
        <ele>1266</ele>
        <time>2022-06-29T14:21:20.000Z</time>
      </trkpt>
      <trkpt lat="45.21096" lon="5.56987">
        <ele>1266</ele>
        <time>2022-06-29T14:21:21.000Z</time>
      </trkpt>
      <trkpt lat="45.21107" lon="5.57007">
        <ele>1266</ele>
        <time>2022-06-29T14:21:22.000Z</time>
      </trkpt>
      <trkpt lat="45.21118" lon="5.57027">
        <ele>1266</ele>
        <time>2022-06-29T14:21:23.000Z</time>
      </trkpt>
      <trkpt lat="45.21123" lon="5.57046">
        <ele>1266</ele>
        <time>2022-06-29T14:21:24.000Z</time>
      </trkpt>
      <trkpt lat="45.21127" lon="5.57076">
        <ele>1261</ele>
        <time>2022-06-29T14:21:25.000Z</time>
      </trkpt>
      <trkpt lat="45.21133" lon="5.57086">
        <ele>1278</ele>
        <time>2022-06-29T14:21:26.000Z</time>
      </trkpt>
      <trkpt lat="45.21144" lon="5.57096">
        <ele>1278</ele>
        <time>2022-06-29T14:21:27.000Z</time>
      </trkpt>
      <trkpt lat="45.21154" lon="5.57106">
        <ele>1278</ele>
        <time>2022-06-29T14:21:28.000Z</time>
      </trkpt>
      <trkpt lat="45.21177" lon="5.5711">
        <ele>1278</ele>
        <time>2022-06-29T14:21:29.000Z</time>
      </trkpt>
      <trkpt lat="45.21195" lon="5.57109">
        <ele>1278</ele>
        <time>2022-06-29T14:21:30.000Z</time>
      </trkpt>
      <trkpt lat="45.21214" lon="5.57108">
        <ele>1281</ele>
        <time>2022-06-29T14:21:31.000Z</time>
      </trkpt>
      <trkpt lat="45.21233" lon="5.57108">
        <ele>1281</ele>
        <time>2022-06-29T14:21:32.000Z</time>
      </trkpt>
      <trkpt lat="45.21251" lon="5.57107">
        <ele>1281</ele>
        <time>2022-06-29T14:21:33.000Z</time>
      </trkpt>
      <trkpt lat="45.21264" lon="5.57098">
        <ele>1281</ele>
        <time>2022-06-29T14:21:34.000Z</time>
      </trkpt>
      <trkpt lat="45.21276" lon="5.57085">
        <ele>1281</ele>
        <time>2022-06-29T14:21:35.000Z</time>
      </trkpt>
      <trkpt lat="45.21288" lon="5.57072">
        <ele>1281</ele>
        <time>2022-06-29T14:21:36.000Z</time>
      </trkpt>
      <trkpt lat="45.21307" lon="5.57062">
        <ele>1279</ele>
        <time>2022-06-29T14:21:37.000Z</time>
      </trkpt>
      <trkpt lat="45.21321" lon="5.57062">
        <ele>1279</ele>
        <time>2022-06-29T14:21:38.000Z</time>
      </trkpt>
      <trkpt lat="45.21335" lon="5.57063">
        <ele>1279</ele>
        <time>2022-06-29T14:21:39.000Z</time>
      </trkpt>
      <trkpt lat="45.21356" lon="5.57075">
        <ele>1279</ele>
        <time>2022-06-29T14:21:40.000Z</time>
      </trkpt>
      <trkpt lat="45.21377" lon="5.57087">
        <ele>1279</ele>
        <time>2022-06-29T14:21:41.000Z</time>
      </trkpt>
      <trkpt lat="45.21397" lon="5.57099">
        <ele>1288</ele>
        <time>2022-06-29T14:21:42.000Z</time>
      </trkpt>
      <trkpt lat="45.21418" lon="5.57111">
        <ele>1288</ele>
        <time>2022-06-29T14:21:43.000Z</time>
      </trkpt>
      <trkpt lat="45.21423" lon="5.571">
        <ele>1288</ele>
        <time>2022-06-29T14:21:44.000Z</time>
      </trkpt>
      <trkpt lat="45.21425" lon="5.571">
        <ele>1288</ele>
        <time>2022-06-29T14:21:45.000Z</time>
      </trkpt>
      <trkpt lat="45.21438" lon="5.57088">
        <ele>1288</ele>
        <time>2022-06-29T14:21:46.000Z</time>
      </trkpt>
      <trkpt lat="45.21451" lon="5.57076">
        <ele>1288</ele>
        <time>2022-06-29T14:21:47.000Z</time>
      </trkpt>
      <trkpt lat="45.21464" lon="5.57064">
        <ele>1299</ele>
        <time>2022-06-29T14:21:48.000Z</time>
      </trkpt>
      <trkpt lat="45.21475" lon="5.57058">
        <ele>1299</ele>
        <time>2022-06-29T14:21:49.000Z</time>
      </trkpt>
      <trkpt lat="45.21486" lon="5.57052">
        <ele>1299</ele>
        <time>2022-06-29T14:21:50.000Z</time>
      </trkpt>
      <trkpt lat="45.21497" lon="5.57047">
        <ele>1300</ele>
        <time>2022-06-29T14:21:51.000Z</time>
      </trkpt>
      <trkpt lat="45.21509" lon="5.57043">
        <ele>1300</ele>
        <time>2022-06-29T14:21:52.000Z</time>
      </trkpt>
      <trkpt lat="45.21521" lon="5.57028">
        <ele>1300</ele>
        <time>2022-06-29T14:21:53.000Z</time>
      </trkpt>
      <trkpt lat="45.2152" lon="5.57009">
        <ele>1300</ele>
        <time>2022-06-29T14:21:54.000Z</time>
      </trkpt>
      <trkpt lat="45.21518" lon="5.5699">
        <ele>1300</ele>
        <time>2022-06-29T14:21:55.000Z</time>
      </trkpt>
      <trkpt lat="45.2151" lon="5.56979">
        <ele>1300</ele>
        <time>2022-06-29T14:21:56.000Z</time>
      </trkpt>
      <trkpt lat="45.21503" lon="5.56967">
        <ele>1308</ele>
        <time>2022-06-29T14:21:57.000Z</time>
      </trkpt>
      <trkpt lat="45.21488" lon="5.56953">
        <ele>1308</ele>
        <time>2022-06-29T14:21:58.000Z</time>
      </trkpt>
      <trkpt lat="45.21473" lon="5.5694">
        <ele>1308</ele>
        <time>2022-06-29T14:21:59.000Z</time>
      </trkpt>
      <trkpt lat="45.21462" lon="5.56935">
        <ele>1311</ele>
        <time>2022-06-29T14:22:00.000Z</time>
      </trkpt>
      <trkpt lat="45.2145" lon="5.56933">
        <ele>1311</ele>
        <time>2022-06-29T14:22:01.000Z</time>
      </trkpt>
      <trkpt lat="45.21444" lon="5.56935">
        <ele>1311</ele>
        <time>2022-06-29T14:22:02.000Z</time>
      </trkpt>
      <trkpt lat="45.21443" lon="5.56934">
        <ele>1311</ele>
        <time>2022-06-29T14:22:03.000Z</time>
      </trkpt>
      <trkpt lat="45.21431" lon="5.56955">
        <ele>1311</ele>
        <time>2022-06-29T14:22:04.000Z</time>
      </trkpt>
      <trkpt lat="45.21419" lon="5.56968">
        <ele>1300</ele>
        <time>2022-06-29T14:22:05.000Z</time>
      </trkpt>
      <trkpt lat="45.21406" lon="5.56968">
        <ele>1311</ele>
        <time>2022-06-29T14:22:06.000Z</time>
      </trkpt>
      <trkpt lat="45.21396" lon="5.56959">
        <ele>1311</ele>
        <time>2022-06-29T14:22:07.000Z</time>
      </trkpt>
      <trkpt lat="45.21393" lon="5.5695">
        <ele>1311</ele>
        <time>2022-06-29T14:22:08.000Z</time>
      </trkpt>
      <trkpt lat="45.21393" lon="5.5692">
        <ele>1311</ele>
        <time>2022-06-29T14:22:09.000Z</time>
      </trkpt>
      <trkpt lat="45.21394" lon="5.56896">
        <ele>1311</ele>
        <time>2022-06-29T14:22:10.000Z</time>
      </trkpt>
      <trkpt lat="45.21395" lon="5.56871">
        <ele>1315</ele>
        <time>2022-06-29T14:22:11.000Z</time>
      </trkpt>
      <trkpt lat="45.2139" lon="5.56854">
        <ele>1315</ele>
        <time>2022-06-29T14:22:12.000Z</time>
      </trkpt>
      <trkpt lat="45.21384" lon="5.56837">
        <ele>1315</ele>
        <time>2022-06-29T14:22:13.000Z</time>
      </trkpt>
      <trkpt lat="45.21383" lon="5.56831">
        <ele>1315</ele>
        <time>2022-06-29T14:22:14.000Z</time>
      </trkpt>
      <trkpt lat="45.21376" lon="5.56817">
        <ele>1318</ele>
        <time>2022-06-29T14:22:15.000Z</time>
      </trkpt>
      <trkpt lat="45.2137" lon="5.56803">
        <ele>1318</ele>
        <time>2022-06-29T14:22:16.000Z</time>
      </trkpt>
      <trkpt lat="45.21361" lon="5.56783">
        <ele>1327</ele>
        <time>2022-06-29T14:22:17.000Z</time>
      </trkpt>
      <trkpt lat="45.21353" lon="5.56762">
        <ele>1327</ele>
        <time>2022-06-29T14:22:18.000Z</time>
      </trkpt>
      <trkpt lat="45.21351" lon="5.56741">
        <ele>1327</ele>
        <time>2022-06-29T14:22:19.000Z</time>
      </trkpt>
      <trkpt lat="45.21356" lon="5.56715">
        <ele>1327</ele>
        <time>2022-06-29T14:22:20.000Z</time>
      </trkpt>
      <trkpt lat="45.21366" lon="5.56699">
        <ele>1327</ele>
        <time>2022-06-29T14:22:21.000Z</time>
      </trkpt>
      <trkpt lat="45.21375" lon="5.5667">
        <ele>1327</ele>
        <time>2022-06-29T14:22:22.000Z</time>
      </trkpt>
      <trkpt lat="45.21383" lon="5.5664">
        <ele>1327</ele>
        <time>2022-06-29T14:22:23.000Z</time>
      </trkpt>
      <trkpt lat="45.21392" lon="5.56611">
        <ele>1327</ele>
        <time>2022-06-29T14:22:24.000Z</time>
      </trkpt>
      <trkpt lat="45.21401" lon="5.56602">
        <ele>1327</ele>
        <time>2022-06-29T14:22:25.000Z</time>
      </trkpt>
      <trkpt lat="45.21414" lon="5.56589">
        <ele>1327</ele>
        <time>2022-06-29T14:22:26.000Z</time>
      </trkpt>
      <trkpt lat="45.21418" lon="5.56586">
        <ele>1327</ele>
        <time>2022-06-29T14:22:27.000Z</time>
      </trkpt>
      <trkpt lat="45.21433" lon="5.56566">
        <ele>1327</ele>
        <time>2022-06-29T14:22:28.000Z</time>
      </trkpt>
      <trkpt lat="45.2144" lon="5.56549">
        <ele>1325</ele>
        <time>2022-06-29T14:22:29.000Z</time>
      </trkpt>
      <trkpt lat="45.21439" lon="5.56534">
        <ele>1325</ele>
        <time>2022-06-29T14:22:30.000Z</time>
      </trkpt>
      <trkpt lat="45.21433" lon="5.5651">
        <ele>1325</ele>
        <time>2022-06-29T14:22:31.000Z</time>
      </trkpt>
      <trkpt lat="45.21429" lon="5.56486">
        <ele>1325</ele>
        <time>2022-06-29T14:22:32.000Z</time>
      </trkpt>
      <trkpt lat="45.2143" lon="5.56461">
        <ele>1319</ele>
        <time>2022-06-29T14:22:33.000Z</time>
      </trkpt>
      <trkpt lat="45.21434" lon="5.5644">
        <ele>1319</ele>
        <time>2022-06-29T14:22:34.000Z</time>
      </trkpt>
      <trkpt lat="45.21437" lon="5.56418">
        <ele>1319</ele>
        <time>2022-06-29T14:22:35.000Z</time>
      </trkpt>
      <trkpt lat="45.21443" lon="5.56398">
        <ele>1319</ele>
        <time>2022-06-29T14:22:36.000Z</time>
      </trkpt>
      <trkpt lat="45.21449" lon="5.56378">
        <ele>1319</ele>
        <time>2022-06-29T14:22:37.000Z</time>
      </trkpt>
      <trkpt lat="45.21459" lon="5.56353">
        <ele>1319</ele>
        <time>2022-06-29T14:22:38.000Z</time>
      </trkpt>
      <trkpt lat="45.21464" lon="5.56331">
        <ele>1316</ele>
        <time>2022-06-29T14:22:39.000Z</time>
      </trkpt>
      <trkpt lat="45.21465" lon="5.56305">
        <ele>1316</ele>
        <time>2022-06-29T14:22:40.000Z</time>
      </trkpt>
      <trkpt lat="45.21464" lon="5.56292">
        <ele>1309</ele>
        <time>2022-06-29T14:22:41.000Z</time>
      </trkpt>
      <trkpt lat="45.21461" lon="5.56267">
        <ele>1310</ele>
        <time>2022-06-29T14:22:42.000Z</time>
      </trkpt>
      <trkpt lat="45.21459" lon="5.56242">
        <ele>1310</ele>
        <time>2022-06-29T14:22:43.000Z</time>
      </trkpt>
      <trkpt lat="45.21456" lon="5.56217">
        <ele>1301</ele>
        <time>2022-06-29T14:22:44.000Z</time>
      </trkpt>
      <trkpt lat="45.2145" lon="5.56194">
        <ele>1301</ele>
        <time>2022-06-29T14:22:45.000Z</time>
      </trkpt>
      <trkpt lat="45.21443" lon="5.56171">
        <ele>1301</ele>
        <time>2022-06-29T14:22:46.000Z</time>
      </trkpt>
      <trkpt lat="45.21437" lon="5.56148">
        <ele>1301</ele>
        <time>2022-06-29T14:22:47.000Z</time>
      </trkpt>
      <trkpt lat="45.21432" lon="5.56127">
        <ele>1296</ele>
        <time>2022-06-29T14:22:48.000Z</time>
      </trkpt>
      <trkpt lat="45.21428" lon="5.56106">
        <ele>1296</ele>
        <time>2022-06-29T14:22:49.000Z</time>
      </trkpt>
      <trkpt lat="45.21419" lon="5.5609">
        <ele>1296</ele>
        <time>2022-06-29T14:22:50.000Z</time>
      </trkpt>
      <trkpt lat="45.2141" lon="5.56073">
        <ele>1296</ele>
        <time>2022-06-29T14:22:51.000Z</time>
      </trkpt>
      <trkpt lat="45.21392" lon="5.56056">
        <ele>1296</ele>
        <time>2022-06-29T14:22:52.000Z</time>
      </trkpt>
      <trkpt lat="45.21373" lon="5.56039">
        <ele>1301</ele>
        <time>2022-06-29T14:22:53.000Z</time>
      </trkpt>
      <trkpt lat="45.21354" lon="5.56023">
        <ele>1301</ele>
        <time>2022-06-29T14:22:54.000Z</time>
      </trkpt>
      <trkpt lat="45.21336" lon="5.56006">
        <ele>1301</ele>
        <time>2022-06-29T14:22:55.000Z</time>
      </trkpt>
      <trkpt lat="45.21356" lon="5.56009">
        <ele>1301</ele>
        <time>2022-06-29T14:22:56.000Z</time>
      </trkpt>
      <trkpt lat="45.21377" lon="5.56011">
        <ele>1301</ele>
        <time>2022-06-29T14:22:57.000Z</time>
      </trkpt>
      <trkpt lat="45.21398" lon="5.56011">
        <ele>1297</ele>
        <time>2022-06-29T14:22:58.000Z</time>
      </trkpt>
      <trkpt lat="45.21419" lon="5.5601">
        <ele>1297</ele>
        <time>2022-06-29T14:22:59.000Z</time>
      </trkpt>
      <trkpt lat="45.21439" lon="5.56009">
        <ele>1297</ele>
        <time>2022-06-29T14:23:00.000Z</time>
      </trkpt>
      <trkpt lat="45.2146" lon="5.56008">
        <ele>1297</ele>
        <time>2022-06-29T14:23:01.000Z</time>
      </trkpt>
      <trkpt lat="45.21481" lon="5.56007">
        <ele>1299</ele>
        <time>2022-06-29T14:23:02.000Z</time>
      </trkpt>
      <trkpt lat="45.21501" lon="5.56006">
        <ele>1299</ele>
        <time>2022-06-29T14:23:03.000Z</time>
      </trkpt>
      <trkpt lat="45.21522" lon="5.56005">
        <ele>1299</ele>
        <time>2022-06-29T14:23:04.000Z</time>
      </trkpt>
      <trkpt lat="45.21543" lon="5.56004">
        <ele>1299</ele>
        <time>2022-06-29T14:23:05.000Z</time>
      </trkpt>
      <trkpt lat="45.21564" lon="5.56003">
        <ele>1298</ele>
        <time>2022-06-29T14:23:06.000Z</time>
      </trkpt>
      <trkpt lat="45.21584" lon="5.56002">
        <ele>1298</ele>
        <time>2022-06-29T14:23:07.000Z</time>
      </trkpt>
      <trkpt lat="45.21602" lon="5.56001">
        <ele>1298</ele>
        <time>2022-06-29T14:23:08.000Z</time>
      </trkpt>
      <trkpt lat="45.2162" lon="5.55999">
        <ele>1298</ele>
        <time>2022-06-29T14:23:09.000Z</time>
      </trkpt>
      <trkpt lat="45.21637" lon="5.55997">
        <ele>1304</ele>
        <time>2022-06-29T14:23:10.000Z</time>
      </trkpt>
      <trkpt lat="45.21656" lon="5.55999">
        <ele>1304</ele>
        <time>2022-06-29T14:23:11.000Z</time>
      </trkpt>
      <trkpt lat="45.21675" lon="5.56">
        <ele>1304</ele>
        <time>2022-06-29T14:23:12.000Z</time>
      </trkpt>
      <trkpt lat="45.21696" lon="5.56004">
        <ele>1304</ele>
        <time>2022-06-29T14:23:13.000Z</time>
      </trkpt>
      <trkpt lat="45.21717" lon="5.56008">
        <ele>1300</ele>
        <time>2022-06-29T14:23:14.000Z</time>
      </trkpt>
      <trkpt lat="45.21737" lon="5.56011">
        <ele>1300</ele>
        <time>2022-06-29T14:23:15.000Z</time>
      </trkpt>
      <trkpt lat="45.21738" lon="5.56012">
        <ele>1300</ele>
        <time>2022-06-29T14:23:16.000Z</time>
      </trkpt>
      <trkpt lat="45.21759" lon="5.56015">
        <ele>1300</ele>
        <time>2022-06-29T14:23:17.000Z</time>
      </trkpt>
      <trkpt lat="45.2178" lon="5.56019">
        <ele>1300</ele>
        <time>2022-06-29T14:23:18.000Z</time>
      </trkpt>
      <trkpt lat="45.21801" lon="5.56023">
        <ele>1298</ele>
        <time>2022-06-29T14:23:19.000Z</time>
      </trkpt>
      <trkpt lat="45.21822" lon="5.56027">
        <ele>1298</ele>
        <time>2022-06-29T14:23:20.000Z</time>
      </trkpt>
      <trkpt lat="45.21844" lon="5.5603">
        <ele>1298</ele>
        <time>2022-06-29T14:23:21.000Z</time>
      </trkpt>
      <trkpt lat="45.21861" lon="5.56032">
        <ele>1298</ele>
        <time>2022-06-29T14:23:22.000Z</time>
      </trkpt>
      <trkpt lat="45.21878" lon="5.56034">
        <ele>1298</ele>
        <time>2022-06-29T14:23:23.000Z</time>
      </trkpt>
      <trkpt lat="45.21895" lon="5.56036">
        <ele>1309</ele>
        <time>2022-06-29T14:23:24.000Z</time>
      </trkpt>
      <trkpt lat="45.21913" lon="5.56043">
        <ele>1309</ele>
        <time>2022-06-29T14:23:25.000Z</time>
      </trkpt>
      <trkpt lat="45.2193" lon="5.5605">
        <ele>1309</ele>
        <time>2022-06-29T14:23:26.000Z</time>
      </trkpt>
      <trkpt lat="45.21947" lon="5.56056">
        <ele>1304</ele>
        <time>2022-06-29T14:23:27.000Z</time>
      </trkpt>
      <trkpt lat="45.21964" lon="5.56063">
        <ele>1307</ele>
        <time>2022-06-29T14:23:28.000Z</time>
      </trkpt>
      <trkpt lat="45.2198" lon="5.56062">
        <ele>1307</ele>
        <time>2022-06-29T14:23:29.000Z</time>
      </trkpt>
      <trkpt lat="45.21992" lon="5.56056">
        <ele>1307</ele>
        <time>2022-06-29T14:23:30.000Z</time>
      </trkpt>
      <trkpt lat="45.22001" lon="5.56042">
        <ele>1314</ele>
        <time>2022-06-29T14:23:31.000Z</time>
      </trkpt>
      <trkpt lat="45.2201" lon="5.56028">
        <ele>1314</ele>
        <time>2022-06-29T14:23:32.000Z</time>
      </trkpt>
      <trkpt lat="45.22025" lon="5.56015">
        <ele>1314</ele>
        <time>2022-06-29T14:23:33.000Z</time>
      </trkpt>
      <trkpt lat="45.2204" lon="5.56002">
        <ele>1314</ele>
        <time>2022-06-29T14:23:34.000Z</time>
      </trkpt>
      <trkpt lat="45.22045" lon="5.55992">
        <ele>1314</ele>
        <time>2022-06-29T14:23:35.000Z</time>
      </trkpt>
      <trkpt lat="45.22055" lon="5.55987">
        <ele>1315</ele>
        <time>2022-06-29T14:23:36.000Z</time>
      </trkpt>
      <trkpt lat="45.22074" lon="5.55988">
        <ele>1315</ele>
        <time>2022-06-29T14:23:37.000Z</time>
      </trkpt>
      <trkpt lat="45.22092" lon="5.55989">
        <ele>1315</ele>
        <time>2022-06-29T14:23:38.000Z</time>
      </trkpt>
      <trkpt lat="45.22111" lon="5.55989">
        <ele>1315</ele>
        <time>2022-06-29T14:23:39.000Z</time>
      </trkpt>
      <trkpt lat="45.22125" lon="5.55994">
        <ele>1315</ele>
        <time>2022-06-29T14:23:40.000Z</time>
      </trkpt>
      <trkpt lat="45.22134" lon="5.56003">
        <ele>1317</ele>
        <time>2022-06-29T14:23:41.000Z</time>
      </trkpt>
      <trkpt lat="45.22147" lon="5.56021">
        <ele>1317</ele>
        <time>2022-06-29T14:23:42.000Z</time>
      </trkpt>
      <trkpt lat="45.2216" lon="5.56039">
        <ele>1317</ele>
        <time>2022-06-29T14:23:43.000Z</time>
      </trkpt>
      <trkpt lat="45.22173" lon="5.56039">
        <ele>1317</ele>
        <time>2022-06-29T14:23:44.000Z</time>
      </trkpt>
      <trkpt lat="45.22186" lon="5.56038">
        <ele>1317</ele>
        <time>2022-06-29T14:23:45.000Z</time>
      </trkpt>
      <trkpt lat="45.22197" lon="5.56031">
        <ele>1317</ele>
        <time>2022-06-29T14:23:46.000Z</time>
      </trkpt>
      <trkpt lat="45.22208" lon="5.56025">
        <ele>1317</ele>
        <time>2022-06-29T14:23:47.000Z</time>
      </trkpt>
      <trkpt lat="45.22219" lon="5.56008">
        <ele>1325</ele>
        <time>2022-06-29T14:23:48.000Z</time>
      </trkpt>
      <trkpt lat="45.22231" lon="5.55992">
        <ele>1325</ele>
        <time>2022-06-29T14:23:49.000Z</time>
      </trkpt>
      <trkpt lat="45.22243" lon="5.55976">
        <ele>1325</ele>
        <time>2022-06-29T14:23:50.000Z</time>
      </trkpt>
      <trkpt lat="45.22252" lon="5.55971">
        <ele>1325</ele>
        <time>2022-06-29T14:23:51.000Z</time>
      </trkpt>
      <trkpt lat="45.22274" lon="5.55979">
        <ele>1325</ele>
        <time>2022-06-29T14:23:52.000Z</time>
      </trkpt>
      <trkpt lat="45.22283" lon="5.55992">
        <ele>1325</ele>
        <time>2022-06-29T14:23:53.000Z</time>
      </trkpt>
      <trkpt lat="45.22292" lon="5.56005">
        <ele>1325</ele>
        <time>2022-06-29T14:23:54.000Z</time>
      </trkpt>
      <trkpt lat="45.22311" lon="5.56004">
        <ele>1333</ele>
        <time>2022-06-29T14:23:55.000Z</time>
      </trkpt>
      <trkpt lat="45.22322" lon="5.55995">
        <ele>1333</ele>
        <time>2022-06-29T14:23:56.000Z</time>
      </trkpt>
      <trkpt lat="45.22332" lon="5.55985">
        <ele>1333</ele>
        <time>2022-06-29T14:23:57.000Z</time>
      </trkpt>
      <trkpt lat="45.22341" lon="5.55964">
        <ele>1335</ele>
        <time>2022-06-29T14:23:58.000Z</time>
      </trkpt>
      <trkpt lat="45.2235" lon="5.55943">
        <ele>1335</ele>
        <time>2022-06-29T14:23:59.000Z</time>
      </trkpt>
      <trkpt lat="45.22359" lon="5.55922">
        <ele>1335</ele>
        <time>2022-06-29T14:24:00.000Z</time>
      </trkpt>
      <trkpt lat="45.22368" lon="5.55913">
        <ele>1335</ele>
        <time>2022-06-29T14:24:01.000Z</time>
      </trkpt>
      <trkpt lat="45.22379" lon="5.55915">
        <ele>1336</ele>
        <time>2022-06-29T14:24:02.000Z</time>
      </trkpt>
      <trkpt lat="45.22392" lon="5.55934">
        <ele>1336</ele>
        <time>2022-06-29T14:24:03.000Z</time>
      </trkpt>
      <trkpt lat="45.22402" lon="5.55935">
        <ele>1336</ele>
        <time>2022-06-29T14:24:04.000Z</time>
      </trkpt>
      <trkpt lat="45.22413" lon="5.55926">
        <ele>1336</ele>
        <time>2022-06-29T14:24:05.000Z</time>
      </trkpt>
      <trkpt lat="45.22423" lon="5.55918">
        <ele>1336</ele>
        <time>2022-06-29T14:24:06.000Z</time>
      </trkpt>
      <trkpt lat="45.22439" lon="5.55913">
        <ele>1336</ele>
        <time>2022-06-29T14:24:07.000Z</time>
      </trkpt>
      <trkpt lat="45.22456" lon="5.55907">
        <ele>1336</ele>
        <time>2022-06-29T14:24:08.000Z</time>
      </trkpt>
      <trkpt lat="45.22471" lon="5.55917">
        <ele>1342</ele>
        <time>2022-06-29T14:24:09.000Z</time>
      </trkpt>
      <trkpt lat="45.22472" lon="5.55928">
        <ele>1342</ele>
        <time>2022-06-29T14:24:10.000Z</time>
      </trkpt>
      <trkpt lat="45.22469" lon="5.55957">
        <ele>1342</ele>
        <time>2022-06-29T14:24:11.000Z</time>
      </trkpt>
      <trkpt lat="45.22465" lon="5.55973">
        <ele>1346</ele>
        <time>2022-06-29T14:24:12.000Z</time>
      </trkpt>
      <trkpt lat="45.2246" lon="5.55988">
        <ele>1339</ele>
        <time>2022-06-29T14:24:13.000Z</time>
      </trkpt>
      <trkpt lat="45.2246" lon="5.56005">
        <ele>1339</ele>
        <time>2022-06-29T14:24:14.000Z</time>
      </trkpt>
      <trkpt lat="45.2246" lon="5.56023">
        <ele>1339</ele>
        <time>2022-06-29T14:24:15.000Z</time>
      </trkpt>
      <trkpt lat="45.22457" lon="5.56044">
        <ele>1339</ele>
        <time>2022-06-29T14:24:16.000Z</time>
      </trkpt>
      <trkpt lat="45.22453" lon="5.56066">
        <ele>1342</ele>
        <time>2022-06-29T14:24:17.000Z</time>
      </trkpt>
      <trkpt lat="45.22456" lon="5.56082">
        <ele>1342</ele>
        <time>2022-06-29T14:24:18.000Z</time>
      </trkpt>
      <trkpt lat="45.2246" lon="5.56098">
        <ele>1342</ele>
        <time>2022-06-29T14:24:19.000Z</time>
      </trkpt>
      <trkpt lat="45.22458" lon="5.56122">
        <ele>1342</ele>
        <time>2022-06-29T14:24:20.000Z</time>
      </trkpt>
      <trkpt lat="45.22457" lon="5.56146">
        <ele>1341</ele>
        <time>2022-06-29T14:24:21.000Z</time>
      </trkpt>
      <trkpt lat="45.22455" lon="5.5617">
        <ele>1341</ele>
        <time>2022-06-29T14:24:22.000Z</time>
      </trkpt>
      <trkpt lat="45.22449" lon="5.5619">
        <ele>1341</ele>
        <time>2022-06-29T14:24:23.000Z</time>
      </trkpt>
      <trkpt lat="45.22443" lon="5.5621">
        <ele>1341</ele>
        <time>2022-06-29T14:24:24.000Z</time>
      </trkpt>
      <trkpt lat="45.22437" lon="5.5623">
        <ele>1343</ele>
        <time>2022-06-29T14:24:25.000Z</time>
      </trkpt>
      <trkpt lat="45.22424" lon="5.5625">
        <ele>1343</ele>
        <time>2022-06-29T14:24:26.000Z</time>
      </trkpt>
      <trkpt lat="45.22414" lon="5.56278">
        <ele>1343</ele>
        <time>2022-06-29T14:24:27.000Z</time>
      </trkpt>
      <trkpt lat="45.22405" lon="5.56291">
        <ele>1343</ele>
        <time>2022-06-29T14:24:28.000Z</time>
      </trkpt>
      <trkpt lat="45.22396" lon="5.56305">
        <ele>1339</ele>
        <time>2022-06-29T14:24:29.000Z</time>
      </trkpt>
      <trkpt lat="45.22386" lon="5.56325">
        <ele>1339</ele>
        <time>2022-06-29T14:24:30.000Z</time>
      </trkpt>
      <trkpt lat="45.22377" lon="5.56345">
        <ele>1332</ele>
        <time>2022-06-29T14:24:31.000Z</time>
      </trkpt>
      <trkpt lat="45.22373" lon="5.5636">
        <ele>1332</ele>
        <time>2022-06-29T14:24:32.000Z</time>
      </trkpt>
      <trkpt lat="45.2237" lon="5.56375">
        <ele>1332</ele>
        <time>2022-06-29T14:24:33.000Z</time>
      </trkpt>
      <trkpt lat="45.22363" lon="5.56389">
        <ele>1335</ele>
        <time>2022-06-29T14:24:34.000Z</time>
      </trkpt>
      <trkpt lat="45.22356" lon="5.56403">
        <ele>1335</ele>
        <time>2022-06-29T14:24:35.000Z</time>
      </trkpt>
      <trkpt lat="45.22354" lon="5.56418">
        <ele>1335</ele>
        <time>2022-06-29T14:24:36.000Z</time>
      </trkpt>
      <trkpt lat="45.22355" lon="5.56436">
        <ele>1335</ele>
        <time>2022-06-29T14:24:37.000Z</time>
      </trkpt>
      <trkpt lat="45.22356" lon="5.56453">
        <ele>1335</ele>
        <time>2022-06-29T14:24:38.000Z</time>
      </trkpt>
      <trkpt lat="45.2236" lon="5.56478">
        <ele>1338</ele>
        <time>2022-06-29T14:24:39.000Z</time>
      </trkpt>
      <trkpt lat="45.22363" lon="5.56503">
        <ele>1338</ele>
        <time>2022-06-29T14:24:40.000Z</time>
      </trkpt>
      <trkpt lat="45.22362" lon="5.56529">
        <ele>1338</ele>
        <time>2022-06-29T14:24:41.000Z</time>
      </trkpt>
      <trkpt lat="45.2236" lon="5.56556">
        <ele>1339</ele>
        <time>2022-06-29T14:24:42.000Z</time>
      </trkpt>
      <trkpt lat="45.22361" lon="5.5658">
        <ele>1339</ele>
        <time>2022-06-29T14:24:43.000Z</time>
      </trkpt>
      <trkpt lat="45.22361" lon="5.56604">
        <ele>1339</ele>
        <time>2022-06-29T14:24:44.000Z</time>
      </trkpt>
      <trkpt lat="45.22362" lon="5.56628">
        <ele>1339</ele>
        <time>2022-06-29T14:24:45.000Z</time>
      </trkpt>
      <trkpt lat="45.22374" lon="5.56645">
        <ele>1342</ele>
        <time>2022-06-29T14:24:46.000Z</time>
      </trkpt>
      <trkpt lat="45.22387" lon="5.56662">
        <ele>1351</ele>
        <time>2022-06-29T14:24:47.000Z</time>
      </trkpt>
      <trkpt lat="45.22386" lon="5.56687">
        <ele>1351</ele>
        <time>2022-06-29T14:24:48.000Z</time>
      </trkpt>
      <trkpt lat="45.22386" lon="5.56712">
        <ele>1351</ele>
        <time>2022-06-29T14:24:49.000Z</time>
      </trkpt>
      <trkpt lat="45.2239" lon="5.56733">
        <ele>1355</ele>
        <time>2022-06-29T14:24:50.000Z</time>
      </trkpt>
      <trkpt lat="45.22394" lon="5.56754">
        <ele>1355</ele>
        <time>2022-06-29T14:24:51.000Z</time>
      </trkpt>
      <trkpt lat="45.22402" lon="5.56776">
        <ele>1355</ele>
        <time>2022-06-29T14:24:52.000Z</time>
      </trkpt>
      <trkpt lat="45.22409" lon="5.56799">
        <ele>1355</ele>
        <time>2022-06-29T14:24:53.000Z</time>
      </trkpt>
      <trkpt lat="45.22416" lon="5.56822">
        <ele>1358</ele>
        <time>2022-06-29T14:24:54.000Z</time>
      </trkpt>
      <trkpt lat="45.22423" lon="5.56844">
        <ele>1358</ele>
        <time>2022-06-29T14:24:55.000Z</time>
      </trkpt>
      <trkpt lat="45.22427" lon="5.56863">
        <ele>1358</ele>
        <time>2022-06-29T14:24:56.000Z</time>
      </trkpt>
      <trkpt lat="45.22431" lon="5.56882">
        <ele>1358</ele>
        <time>2022-06-29T14:24:57.000Z</time>
      </trkpt>
      <trkpt lat="45.22433" lon="5.56911">
        <ele>1359</ele>
        <time>2022-06-29T14:24:58.000Z</time>
      </trkpt>
      <trkpt lat="45.22435" lon="5.56939">
        <ele>1359</ele>
        <time>2022-06-29T14:24:59.000Z</time>
      </trkpt>
      <trkpt lat="45.22428" lon="5.56955">
        <ele>1359</ele>
        <time>2022-06-29T14:25:00.000Z</time>
      </trkpt>
      <trkpt lat="45.22421" lon="5.5697">
        <ele>1367</ele>
        <time>2022-06-29T14:25:01.000Z</time>
      </trkpt>
      <trkpt lat="45.22415" lon="5.56987">
        <ele>1367</ele>
        <time>2022-06-29T14:25:02.000Z</time>
      </trkpt>
      <trkpt lat="45.22405" lon="5.56991">
        <ele>1367</ele>
        <time>2022-06-29T14:25:03.000Z</time>
      </trkpt>
      <trkpt lat="45.22396" lon="5.56991">
        <ele>1367</ele>
        <time>2022-06-29T14:25:04.000Z</time>
      </trkpt>
      <trkpt lat="45.22381" lon="5.56979">
        <ele>1367</ele>
        <time>2022-06-29T14:25:05.000Z</time>
      </trkpt>
      <trkpt lat="45.22374" lon="5.56969">
        <ele>1363</ele>
        <time>2022-06-29T14:25:06.000Z</time>
      </trkpt>
      <trkpt lat="45.22368" lon="5.56951">
        <ele>1354</ele>
        <time>2022-06-29T14:25:07.000Z</time>
      </trkpt>
      <trkpt lat="45.22361" lon="5.56965">
        <ele>1354</ele>
        <time>2022-06-29T14:25:08.000Z</time>
      </trkpt>
      <trkpt lat="45.22358" lon="5.56977">
        <ele>1363</ele>
        <time>2022-06-29T14:25:09.000Z</time>
      </trkpt>
      <trkpt lat="45.22358" lon="5.5699">
        <ele>1363</ele>
        <time>2022-06-29T14:25:10.000Z</time>
      </trkpt>
      <trkpt lat="45.22359" lon="5.57014">
        <ele>1363</ele>
        <time>2022-06-29T14:25:11.000Z</time>
      </trkpt>
      <trkpt lat="45.22361" lon="5.57028">
        <ele>1363</ele>
        <time>2022-06-29T14:25:12.000Z</time>
      </trkpt>
      <trkpt lat="45.22367" lon="5.57048">
        <ele>1363</ele>
        <time>2022-06-29T14:25:13.000Z</time>
      </trkpt>
      <trkpt lat="45.2235" lon="5.57052">
        <ele>1377</ele>
        <time>2022-06-29T14:25:14.000Z</time>
      </trkpt>
      <trkpt lat="45.22333" lon="5.57056">
        <ele>1377</ele>
        <time>2022-06-29T14:25:15.000Z</time>
      </trkpt>
      <trkpt lat="45.22316" lon="5.5706">
        <ele>1377</ele>
        <time>2022-06-29T14:25:16.000Z</time>
      </trkpt>
      <trkpt lat="45.2231" lon="5.57073">
        <ele>1377</ele>
        <time>2022-06-29T14:25:17.000Z</time>
      </trkpt>
      <trkpt lat="45.22316" lon="5.57089">
        <ele>1377</ele>
        <time>2022-06-29T14:25:18.000Z</time>
      </trkpt>
      <trkpt lat="45.22326" lon="5.571">
        <ele>1377</ele>
        <time>2022-06-29T14:25:19.000Z</time>
      </trkpt>
      <trkpt lat="45.22331" lon="5.57107">
        <ele>1377</ele>
        <time>2022-06-29T14:25:20.000Z</time>
      </trkpt>
      <trkpt lat="45.22332" lon="5.57108">
        <ele>1377</ele>
        <time>2022-06-29T14:25:21.000Z</time>
      </trkpt>
      <trkpt lat="45.22331" lon="5.57112">
        <ele>1377</ele>
        <time>2022-06-29T14:25:22.000Z</time>
      </trkpt>
      <trkpt lat="45.22328" lon="5.57127">
        <ele>1377</ele>
        <time>2022-06-29T14:25:23.000Z</time>
      </trkpt>
      <trkpt lat="45.22328" lon="5.57129">
        <ele>1377</ele>
        <time>2022-06-29T14:25:24.000Z</time>
      </trkpt>
      <trkpt lat="45.22326" lon="5.57131">
        <ele>1377</ele>
        <time>2022-06-29T14:25:25.000Z</time>
      </trkpt>
      <trkpt lat="45.22313" lon="5.57141">
        <ele>1384</ele>
        <time>2022-06-29T14:25:26.000Z</time>
      </trkpt>
      <trkpt lat="45.22306" lon="5.57146">
        <ele>1384</ele>
        <time>2022-06-29T14:25:27.000Z</time>
      </trkpt>
      <trkpt lat="45.223" lon="5.57165">
        <ele>1384</ele>
        <time>2022-06-29T14:25:28.000Z</time>
      </trkpt>
      <trkpt lat="45.22292" lon="5.57177">
        <ele>1384</ele>
        <time>2022-06-29T14:25:29.000Z</time>
      </trkpt>
      <trkpt lat="45.22292" lon="5.57187">
        <ele>1384</ele>
        <time>2022-06-29T14:25:30.000Z</time>
      </trkpt>
      <trkpt lat="45.22294" lon="5.57196">
        <ele>1384</ele>
        <time>2022-06-29T14:25:31.000Z</time>
      </trkpt>
      <trkpt lat="45.2231" lon="5.57208">
        <ele>1384</ele>
        <time>2022-06-29T14:25:32.000Z</time>
      </trkpt>
      <trkpt lat="45.22326" lon="5.5722">
        <ele>1390</ele>
        <time>2022-06-29T14:25:33.000Z</time>
      </trkpt>
      <trkpt lat="45.22338" lon="5.57247">
        <ele>1390</ele>
        <time>2022-06-29T14:25:34.000Z</time>
      </trkpt>
      <trkpt lat="45.22353" lon="5.57226">
        <ele>1390</ele>
        <time>2022-06-29T14:25:35.000Z</time>
      </trkpt>
      <trkpt lat="45.22365" lon="5.57219">
        <ele>1390</ele>
        <time>2022-06-29T14:25:36.000Z</time>
      </trkpt>
      <trkpt lat="45.22385" lon="5.57228">
        <ele>1404</ele>
        <time>2022-06-29T14:25:37.000Z</time>
      </trkpt>
      <trkpt lat="45.22404" lon="5.57238">
        <ele>1404</ele>
        <time>2022-06-29T14:25:38.000Z</time>
      </trkpt>
      <trkpt lat="45.22417" lon="5.57225">
        <ele>1404</ele>
        <time>2022-06-29T14:25:39.000Z</time>
      </trkpt>
      <trkpt lat="45.22429" lon="5.57213">
        <ele>1396</ele>
        <time>2022-06-29T14:25:40.000Z</time>
      </trkpt>
      <trkpt lat="45.2244" lon="5.57187">
        <ele>1396</ele>
        <time>2022-06-29T14:25:41.000Z</time>
      </trkpt>
      <trkpt lat="45.22452" lon="5.57178">
        <ele>1396</ele>
        <time>2022-06-29T14:25:42.000Z</time>
      </trkpt>
      <trkpt lat="45.22464" lon="5.57168">
        <ele>1406</ele>
        <time>2022-06-29T14:25:43.000Z</time>
      </trkpt>
      <trkpt lat="45.2248" lon="5.57164">
        <ele>1406</ele>
        <time>2022-06-29T14:25:44.000Z</time>
      </trkpt>
      <trkpt lat="45.22495" lon="5.57159">
        <ele>1406</ele>
        <time>2022-06-29T14:25:45.000Z</time>
      </trkpt>
      <trkpt lat="45.22515" lon="5.57159">
        <ele>1406</ele>
        <time>2022-06-29T14:25:46.000Z</time>
      </trkpt>
      <trkpt lat="45.22534" lon="5.57158">
        <ele>1406</ele>
        <time>2022-06-29T14:25:47.000Z</time>
      </trkpt>
      <trkpt lat="45.22554" lon="5.57166">
        <ele>1411</ele>
        <time>2022-06-29T14:25:48.000Z</time>
      </trkpt>
      <trkpt lat="45.22565" lon="5.57174">
        <ele>1411</ele>
        <time>2022-06-29T14:25:49.000Z</time>
      </trkpt>
      <trkpt lat="45.22576" lon="5.57182">
        <ele>1411</ele>
        <time>2022-06-29T14:25:50.000Z</time>
      </trkpt>
      <trkpt lat="45.22587" lon="5.57201">
        <ele>1411</ele>
        <time>2022-06-29T14:25:51.000Z</time>
      </trkpt>
      <trkpt lat="45.22591" lon="5.5723">
        <ele>1423</ele>
        <time>2022-06-29T14:25:52.000Z</time>
      </trkpt>
      <trkpt lat="45.22594" lon="5.57258">
        <ele>1423</ele>
        <time>2022-06-29T14:25:53.000Z</time>
      </trkpt>
      <trkpt lat="45.22602" lon="5.57278">
        <ele>1423</ele>
        <time>2022-06-29T14:25:54.000Z</time>
      </trkpt>
      <trkpt lat="45.22615" lon="5.57295">
        <ele>1423</ele>
        <time>2022-06-29T14:25:55.000Z</time>
      </trkpt>
      <trkpt lat="45.22627" lon="5.57302">
        <ele>1431</ele>
        <time>2022-06-29T14:25:56.000Z</time>
      </trkpt>
      <trkpt lat="45.2264" lon="5.57309">
        <ele>1430</ele>
        <time>2022-06-29T14:25:57.000Z</time>
      </trkpt>
      <trkpt lat="45.22656" lon="5.57323">
        <ele>1430</ele>
        <time>2022-06-29T14:25:58.000Z</time>
      </trkpt>
      <trkpt lat="45.22672" lon="5.57336">
        <ele>1430</ele>
        <time>2022-06-29T14:25:59.000Z</time>
      </trkpt>
      <trkpt lat="45.22689" lon="5.5735">
        <ele>1430</ele>
        <time>2022-06-29T14:26:00.000Z</time>
      </trkpt>
      <trkpt lat="45.22708" lon="5.5736">
        <ele>1430</ele>
        <time>2022-06-29T14:26:01.000Z</time>
      </trkpt>
      <trkpt lat="45.22728" lon="5.5737">
        <ele>1433</ele>
        <time>2022-06-29T14:26:02.000Z</time>
      </trkpt>
      <trkpt lat="45.22747" lon="5.5738">
        <ele>1433</ele>
        <time>2022-06-29T14:26:03.000Z</time>
      </trkpt>
      <trkpt lat="45.22767" lon="5.5739">
        <ele>1417</ele>
        <time>2022-06-29T14:26:04.000Z</time>
      </trkpt>
      <trkpt lat="45.22786" lon="5.574">
        <ele>1417</ele>
        <time>2022-06-29T14:26:05.000Z</time>
      </trkpt>
      <trkpt lat="45.22806" lon="5.5741">
        <ele>1421</ele>
        <time>2022-06-29T14:26:06.000Z</time>
      </trkpt>
      <trkpt lat="45.22825" lon="5.5742">
        <ele>1421</ele>
        <time>2022-06-29T14:26:07.000Z</time>
      </trkpt>
      <trkpt lat="45.22843" lon="5.57425">
        <ele>1421</ele>
        <time>2022-06-29T14:26:08.000Z</time>
      </trkpt>
      <trkpt lat="45.22861" lon="5.57429">
        <ele>1421</ele>
        <time>2022-06-29T14:26:09.000Z</time>
      </trkpt>
      <trkpt lat="45.22879" lon="5.57433">
        <ele>1421</ele>
        <time>2022-06-29T14:26:10.000Z</time>
      </trkpt>
      <trkpt lat="45.22895" lon="5.57431">
        <ele>1429</ele>
        <time>2022-06-29T14:26:11.000Z</time>
      </trkpt>
      <trkpt lat="45.2291" lon="5.57429">
        <ele>1429</ele>
        <time>2022-06-29T14:26:12.000Z</time>
      </trkpt>
      <trkpt lat="45.22926" lon="5.57427">
        <ele>1429</ele>
        <time>2022-06-29T14:26:13.000Z</time>
      </trkpt>
      <trkpt lat="45.22947" lon="5.57422">
        <ele>1429</ele>
        <time>2022-06-29T14:26:14.000Z</time>
      </trkpt>
      <trkpt lat="45.22968" lon="5.57418">
        <ele>1436</ele>
        <time>2022-06-29T14:26:15.000Z</time>
      </trkpt>
      <trkpt lat="45.22984" lon="5.57422">
        <ele>1436</ele>
        <time>2022-06-29T14:26:16.000Z</time>
      </trkpt>
      <trkpt lat="45.22999" lon="5.57427">
        <ele>1436</ele>
        <time>2022-06-29T14:26:17.000Z</time>
      </trkpt>
      <trkpt lat="45.2301" lon="5.57421">
        <ele>1436</ele>
        <time>2022-06-29T14:26:18.000Z</time>
      </trkpt>
      <trkpt lat="45.23021" lon="5.57415">
        <ele>1436</ele>
        <time>2022-06-29T14:26:19.000Z</time>
      </trkpt>
      <trkpt lat="45.23034" lon="5.57415">
        <ele>1436</ele>
        <time>2022-06-29T14:26:20.000Z</time>
      </trkpt>
      <trkpt lat="45.23047" lon="5.57414">
        <ele>1451</ele>
        <time>2022-06-29T14:26:21.000Z</time>
      </trkpt>
      <trkpt lat="45.23057" lon="5.57422">
        <ele>1451</ele>
        <time>2022-06-29T14:26:22.000Z</time>
      </trkpt>
      <trkpt lat="45.23067" lon="5.57429">
        <ele>1451</ele>
        <time>2022-06-29T14:26:23.000Z</time>
      </trkpt>
      <trkpt lat="45.23072" lon="5.57438">
        <ele>1451</ele>
        <time>2022-06-29T14:26:24.000Z</time>
      </trkpt>
      <trkpt lat="45.23083" lon="5.57462">
        <ele>1451</ele>
        <time>2022-06-29T14:26:25.000Z</time>
      </trkpt>
      <trkpt lat="45.23093" lon="5.57486">
        <ele>1446</ele>
        <time>2022-06-29T14:26:26.000Z</time>
      </trkpt>
      <trkpt lat="45.23097" lon="5.57516">
        <ele>1446</ele>
        <time>2022-06-29T14:26:27.000Z</time>
      </trkpt>
      <trkpt lat="45.23096" lon="5.57543">
        <ele>1446</ele>
        <time>2022-06-29T14:26:28.000Z</time>
      </trkpt>
      <trkpt lat="45.23095" lon="5.5757">
        <ele>1453</ele>
        <time>2022-06-29T14:26:29.000Z</time>
      </trkpt>
      <trkpt lat="45.23094" lon="5.57596">
        <ele>1453</ele>
        <time>2022-06-29T14:26:30.000Z</time>
      </trkpt>
      <trkpt lat="45.23098" lon="5.57628">
        <ele>1453</ele>
        <time>2022-06-29T14:26:31.000Z</time>
      </trkpt>
      <trkpt lat="45.23106" lon="5.57637">
        <ele>1459</ele>
        <time>2022-06-29T14:26:32.000Z</time>
      </trkpt>
      <trkpt lat="45.23118" lon="5.57634">
        <ele>1453</ele>
        <time>2022-06-29T14:26:33.000Z</time>
      </trkpt>
      <trkpt lat="45.23129" lon="5.5761">
        <ele>1453</ele>
        <time>2022-06-29T14:26:34.000Z</time>
      </trkpt>
      <trkpt lat="45.23133" lon="5.57585">
        <ele>1469</ele>
        <time>2022-06-29T14:26:35.000Z</time>
      </trkpt>
      <trkpt lat="45.23139" lon="5.57566">
        <ele>1469</ele>
        <time>2022-06-29T14:26:36.000Z</time>
      </trkpt>
      <trkpt lat="45.23146" lon="5.57548">
        <ele>1463</ele>
        <time>2022-06-29T14:26:37.000Z</time>
      </trkpt>
      <trkpt lat="45.23161" lon="5.57526">
        <ele>1463</ele>
        <time>2022-06-29T14:26:38.000Z</time>
      </trkpt>
      <trkpt lat="45.23176" lon="5.57514">
        <ele>1463</ele>
        <time>2022-06-29T14:26:39.000Z</time>
      </trkpt>
      <trkpt lat="45.23191" lon="5.57503">
        <ele>1463</ele>
        <time>2022-06-29T14:26:40.000Z</time>
      </trkpt>
      <trkpt lat="45.23206" lon="5.57491">
        <ele>1463</ele>
        <time>2022-06-29T14:26:41.000Z</time>
      </trkpt>
      <trkpt lat="45.23221" lon="5.57485">
        <ele>1474</ele>
        <time>2022-06-29T14:26:42.000Z</time>
      </trkpt>
      <trkpt lat="45.23236" lon="5.57479">
        <ele>1474</ele>
        <time>2022-06-29T14:26:43.000Z</time>
      </trkpt>
      <trkpt lat="45.23255" lon="5.57481">
        <ele>1474</ele>
        <time>2022-06-29T14:26:44.000Z</time>
      </trkpt>
      <trkpt lat="45.23274" lon="5.57483">
        <ele>1474</ele>
        <time>2022-06-29T14:26:45.000Z</time>
      </trkpt>
      <trkpt lat="45.23292" lon="5.57491">
        <ele>1474</ele>
        <time>2022-06-29T14:26:46.000Z</time>
      </trkpt>
      <trkpt lat="45.2331" lon="5.57498">
        <ele>1481</ele>
        <time>2022-06-29T14:26:47.000Z</time>
      </trkpt>
      <trkpt lat="45.23328" lon="5.57512">
        <ele>1481</ele>
        <time>2022-06-29T14:26:48.000Z</time>
      </trkpt>
      <trkpt lat="45.23347" lon="5.57526">
        <ele>1481</ele>
        <time>2022-06-29T14:26:49.000Z</time>
      </trkpt>
      <trkpt lat="45.23366" lon="5.5754">
        <ele>1481</ele>
        <time>2022-06-29T14:26:50.000Z</time>
      </trkpt>
      <trkpt lat="45.23381" lon="5.57543">
        <ele>1490</ele>
        <time>2022-06-29T14:26:51.000Z</time>
      </trkpt>
      <trkpt lat="45.23398" lon="5.5754">
        <ele>1490</ele>
        <time>2022-06-29T14:26:52.000Z</time>
      </trkpt>
      <trkpt lat="45.23418" lon="5.57546">
        <ele>1490</ele>
        <time>2022-06-29T14:26:53.000Z</time>
      </trkpt>
      <trkpt lat="45.23434" lon="5.57566">
        <ele>1484</ele>
        <time>2022-06-29T14:26:54.000Z</time>
      </trkpt>
      <trkpt lat="45.23449" lon="5.57572">
        <ele>1484</ele>
        <time>2022-06-29T14:26:55.000Z</time>
      </trkpt>
      <trkpt lat="45.23467" lon="5.57576">
        <ele>1499</ele>
        <time>2022-06-29T14:26:56.000Z</time>
      </trkpt>
      <trkpt lat="45.23486" lon="5.57579">
        <ele>1499</ele>
        <time>2022-06-29T14:26:57.000Z</time>
      </trkpt>
      <trkpt lat="45.23504" lon="5.57582">
        <ele>1499</ele>
        <time>2022-06-29T14:26:58.000Z</time>
      </trkpt>
      <trkpt lat="45.23514" lon="5.57596">
        <ele>1499</ele>
        <time>2022-06-29T14:26:59.000Z</time>
      </trkpt>
      <trkpt lat="45.23523" lon="5.57609">
        <ele>1499</ele>
        <time>2022-06-29T14:27:00.000Z</time>
      </trkpt>
      <trkpt lat="45.23525" lon="5.57629">
        <ele>1499</ele>
        <time>2022-06-29T14:27:01.000Z</time>
      </trkpt>
      <trkpt lat="45.23534" lon="5.5764">
        <ele>1491</ele>
        <time>2022-06-29T14:27:02.000Z</time>
      </trkpt>
      <trkpt lat="45.23543" lon="5.5765">
        <ele>1491</ele>
        <time>2022-06-29T14:27:03.000Z</time>
      </trkpt>
      <trkpt lat="45.23554" lon="5.57654">
        <ele>1504</ele>
        <time>2022-06-29T14:27:04.000Z</time>
      </trkpt>
      <trkpt lat="45.23565" lon="5.57658">
        <ele>1504</ele>
        <time>2022-06-29T14:27:05.000Z</time>
      </trkpt>
      <trkpt lat="45.23579" lon="5.57668">
        <ele>1504</ele>
        <time>2022-06-29T14:27:06.000Z</time>
      </trkpt>
      <trkpt lat="45.23593" lon="5.57679">
        <ele>1504</ele>
        <time>2022-06-29T14:27:07.000Z</time>
      </trkpt>
      <trkpt lat="45.23608" lon="5.5769">
        <ele>1504</ele>
        <time>2022-06-29T14:27:08.000Z</time>
      </trkpt>
      <trkpt lat="45.23619" lon="5.57703">
        <ele>1504</ele>
        <time>2022-06-29T14:27:09.000Z</time>
      </trkpt>
      <trkpt lat="45.23633" lon="5.57708">
        <ele>1516</ele>
        <time>2022-06-29T14:27:10.000Z</time>
      </trkpt>
      <trkpt lat="45.23646" lon="5.577">
        <ele>1516</ele>
        <time>2022-06-29T14:27:11.000Z</time>
      </trkpt>
      <trkpt lat="45.23659" lon="5.57693">
        <ele>1516</ele>
        <time>2022-06-29T14:27:12.000Z</time>
      </trkpt>
      <trkpt lat="45.23673" lon="5.57692">
        <ele>1516</ele>
        <time>2022-06-29T14:27:13.000Z</time>
      </trkpt>
      <trkpt lat="45.23686" lon="5.57692">
        <ele>1516</ele>
        <time>2022-06-29T14:27:14.000Z</time>
      </trkpt>
      <trkpt lat="45.23701" lon="5.57696">
        <ele>1516</ele>
        <time>2022-06-29T14:27:15.000Z</time>
      </trkpt>
      <trkpt lat="45.23716" lon="5.57701">
        <ele>1528</ele>
        <time>2022-06-29T14:27:16.000Z</time>
      </trkpt>
      <trkpt lat="45.23731" lon="5.57711">
        <ele>1528</ele>
        <time>2022-06-29T14:27:17.000Z</time>
      </trkpt>
      <trkpt lat="45.2375" lon="5.57715">
        <ele>1528</ele>
        <time>2022-06-29T14:27:18.000Z</time>
      </trkpt>
      <trkpt lat="45.23766" lon="5.57725">
        <ele>1520</ele>
        <time>2022-06-29T14:27:19.000Z</time>
      </trkpt>
      <trkpt lat="45.23782" lon="5.57734">
        <ele>1520</ele>
        <time>2022-06-29T14:27:20.000Z</time>
      </trkpt>
      <trkpt lat="45.23792" lon="5.57724">
        <ele>1520</ele>
        <time>2022-06-29T14:27:21.000Z</time>
      </trkpt>
      <trkpt lat="45.23804" lon="5.57734">
        <ele>1523</ele>
        <time>2022-06-29T14:27:22.000Z</time>
      </trkpt>
      <trkpt lat="45.23821" lon="5.5774">
        <ele>1523</ele>
        <time>2022-06-29T14:27:23.000Z</time>
      </trkpt>
      <trkpt lat="45.23838" lon="5.57747">
        <ele>1523</ele>
        <time>2022-06-29T14:27:24.000Z</time>
      </trkpt>
      <trkpt lat="45.23855" lon="5.57754">
        <ele>1523</ele>
        <time>2022-06-29T14:27:25.000Z</time>
      </trkpt>
      <trkpt lat="45.2387" lon="5.57758">
        <ele>1523</ele>
        <time>2022-06-29T14:27:26.000Z</time>
      </trkpt>
      <trkpt lat="45.23885" lon="5.57761">
        <ele>1528</ele>
        <time>2022-06-29T14:27:27.000Z</time>
      </trkpt>
      <trkpt lat="45.23891" lon="5.57782">
        <ele>1528</ele>
        <time>2022-06-29T14:27:28.000Z</time>
      </trkpt>
      <trkpt lat="45.23897" lon="5.57803">
        <ele>1506</ele>
        <time>2022-06-29T14:27:29.000Z</time>
      </trkpt>
      <trkpt lat="45.23906" lon="5.57808">
        <ele>1506</ele>
        <time>2022-06-29T14:27:30.000Z</time>
      </trkpt>
      <trkpt lat="45.23918" lon="5.5781">
        <ele>1506</ele>
        <time>2022-06-29T14:27:31.000Z</time>
      </trkpt>
      <trkpt lat="45.23931" lon="5.57812">
        <ele>1506</ele>
        <time>2022-06-29T14:27:32.000Z</time>
      </trkpt>
      <trkpt lat="45.23942" lon="5.57806">
        <ele>1506</ele>
        <time>2022-06-29T14:27:33.000Z</time>
      </trkpt>
      <trkpt lat="45.23953" lon="5.578">
        <ele>1528</ele>
        <time>2022-06-29T14:27:34.000Z</time>
      </trkpt>
      <trkpt lat="45.23968" lon="5.57782">
        <ele>1521</ele>
        <time>2022-06-29T14:27:35.000Z</time>
      </trkpt>
      <trkpt lat="45.23984" lon="5.57764">
        <ele>1521</ele>
        <time>2022-06-29T14:27:36.000Z</time>
      </trkpt>
      <trkpt lat="45.23999" lon="5.57753">
        <ele>1521</ele>
        <time>2022-06-29T14:27:37.000Z</time>
      </trkpt>
      <trkpt lat="45.24014" lon="5.57752">
        <ele>1521</ele>
        <time>2022-06-29T14:27:38.000Z</time>
      </trkpt>
      <trkpt lat="45.24032" lon="5.57762">
        <ele>1521</ele>
        <time>2022-06-29T14:27:39.000Z</time>
      </trkpt>
      <trkpt lat="45.2405" lon="5.57773">
        <ele>1528</ele>
        <time>2022-06-29T14:27:40.000Z</time>
      </trkpt>
      <trkpt lat="45.24067" lon="5.5779">
        <ele>1528</ele>
        <time>2022-06-29T14:27:41.000Z</time>
      </trkpt>
      <trkpt lat="45.24083" lon="5.57808">
        <ele>1502</ele>
        <time>2022-06-29T14:27:42.000Z</time>
      </trkpt>
      <trkpt lat="45.24099" lon="5.57825">
        <ele>1502</ele>
        <time>2022-06-29T14:27:43.000Z</time>
      </trkpt>
      <trkpt lat="45.24116" lon="5.57842">
        <ele>1502</ele>
        <time>2022-06-29T14:27:44.000Z</time>
      </trkpt>
      <trkpt lat="45.24132" lon="5.5786">
        <ele>1523</ele>
        <time>2022-06-29T14:27:45.000Z</time>
      </trkpt>
      <trkpt lat="45.24149" lon="5.57877">
        <ele>1523</ele>
        <time>2022-06-29T14:27:46.000Z</time>
      </trkpt>
      <trkpt lat="45.24165" lon="5.57895">
        <ele>1507</ele>
        <time>2022-06-29T14:27:47.000Z</time>
      </trkpt>
      <trkpt lat="45.24182" lon="5.57912">
        <ele>1507</ele>
        <time>2022-06-29T14:27:48.000Z</time>
      </trkpt>
      <trkpt lat="45.24184" lon="5.57927">
        <ele>1507</ele>
        <time>2022-06-29T14:27:49.000Z</time>
      </trkpt>
      <trkpt lat="45.24177" lon="5.57951">
        <ele>1507</ele>
        <time>2022-06-29T14:27:50.000Z</time>
      </trkpt>
      <trkpt lat="45.24174" lon="5.57975">
        <ele>1509</ele>
        <time>2022-06-29T14:27:51.000Z</time>
      </trkpt>
      <trkpt lat="45.24172" lon="5.58">
        <ele>1509</ele>
        <time>2022-06-29T14:27:52.000Z</time>
      </trkpt>
      <trkpt lat="45.24169" lon="5.58024">
        <ele>1509</ele>
        <time>2022-06-29T14:27:53.000Z</time>
      </trkpt>
      <trkpt lat="45.24166" lon="5.58049">
        <ele>1509</ele>
        <time>2022-06-29T14:27:54.000Z</time>
      </trkpt>
      <trkpt lat="45.24157" lon="5.58063">
        <ele>1519</ele>
        <time>2022-06-29T14:27:55.000Z</time>
      </trkpt>
      <trkpt lat="45.24149" lon="5.58076">
        <ele>1519</ele>
        <time>2022-06-29T14:27:56.000Z</time>
      </trkpt>
      <trkpt lat="45.24145" lon="5.58101">
        <ele>1519</ele>
        <time>2022-06-29T14:27:57.000Z</time>
      </trkpt>
      <trkpt lat="45.24141" lon="5.58126">
        <ele>1519</ele>
        <time>2022-06-29T14:27:58.000Z</time>
      </trkpt>
      <trkpt lat="45.24131" lon="5.58152">
        <ele>1531</ele>
        <time>2022-06-29T14:27:59.000Z</time>
      </trkpt>
      <trkpt lat="45.24131" lon="5.58152">
        <ele>1531</ele>
        <time>2022-06-29T14:28:00.000Z</time>
      </trkpt>
      <trkpt lat="45.24125" lon="5.58179">
        <ele>1492</ele>
        <time>2022-06-29T14:28:01.000Z</time>
      </trkpt>
      <trkpt lat="45.24127" lon="5.582">
        <ele>1492</ele>
        <time>2022-06-29T14:28:02.000Z</time>
      </trkpt>
      <trkpt lat="45.24129" lon="5.58221">
        <ele>1534</ele>
        <time>2022-06-29T14:28:03.000Z</time>
      </trkpt>
      <trkpt lat="45.24126" lon="5.58241">
        <ele>1494</ele>
        <time>2022-06-29T14:28:04.000Z</time>
      </trkpt>
      <trkpt lat="45.24123" lon="5.58261">
        <ele>1494</ele>
        <time>2022-06-29T14:28:05.000Z</time>
      </trkpt>
      <trkpt lat="45.24123" lon="5.58287">
        <ele>1494</ele>
        <time>2022-06-29T14:28:06.000Z</time>
      </trkpt>
      <trkpt lat="45.24123" lon="5.58314">
        <ele>1494</ele>
        <time>2022-06-29T14:28:07.000Z</time>
      </trkpt>
      <trkpt lat="45.24129" lon="5.58336">
        <ele>1494</ele>
        <time>2022-06-29T14:28:08.000Z</time>
      </trkpt>
      <trkpt lat="45.24135" lon="5.58358">
        <ele>1531</ele>
        <time>2022-06-29T14:28:09.000Z</time>
      </trkpt>
      <trkpt lat="45.24141" lon="5.58379">
        <ele>1531</ele>
        <time>2022-06-29T14:28:10.000Z</time>
      </trkpt>
      <trkpt lat="45.24141" lon="5.58401">
        <ele>1524</ele>
        <time>2022-06-29T14:28:11.000Z</time>
      </trkpt>
      <trkpt lat="45.24141" lon="5.58423">
        <ele>1524</ele>
        <time>2022-06-29T14:28:12.000Z</time>
      </trkpt>
      <trkpt lat="45.24133" lon="5.58447">
        <ele>1524</ele>
        <time>2022-06-29T14:28:13.000Z</time>
      </trkpt>
      <trkpt lat="45.24125" lon="5.58471">
        <ele>1506</ele>
        <time>2022-06-29T14:28:14.000Z</time>
      </trkpt>
      <trkpt lat="45.24117" lon="5.58486">
        <ele>1506</ele>
        <time>2022-06-29T14:28:15.000Z</time>
      </trkpt>
      <trkpt lat="45.24109" lon="5.585">
        <ele>1506</ele>
        <time>2022-06-29T14:28:16.000Z</time>
      </trkpt>
      <trkpt lat="45.24096" lon="5.58508">
        <ele>1506</ele>
        <time>2022-06-29T14:28:17.000Z</time>
      </trkpt>
      <trkpt lat="45.24084" lon="5.58515">
        <ele>1506</ele>
        <time>2022-06-29T14:28:18.000Z</time>
      </trkpt>
      <trkpt lat="45.24062" lon="5.58515">
        <ele>1506</ele>
        <time>2022-06-29T14:28:19.000Z</time>
      </trkpt>
      <trkpt lat="45.2404" lon="5.58514">
        <ele>1500</ele>
        <time>2022-06-29T14:28:20.000Z</time>
      </trkpt>
      <trkpt lat="45.24018" lon="5.58514">
        <ele>1500</ele>
        <time>2022-06-29T14:28:21.000Z</time>
      </trkpt>
      <trkpt lat="45.23996" lon="5.58514">
        <ele>1500</ele>
        <time>2022-06-29T14:28:22.000Z</time>
      </trkpt>
      <trkpt lat="45.23979" lon="5.58527">
        <ele>1500</ele>
        <time>2022-06-29T14:28:23.000Z</time>
      </trkpt>
      <trkpt lat="45.23969" lon="5.58539">
        <ele>1500</ele>
        <time>2022-06-29T14:28:24.000Z</time>
      </trkpt>
      <trkpt lat="45.23954" lon="5.58556">
        <ele>1509</ele>
        <time>2022-06-29T14:28:25.000Z</time>
      </trkpt>
      <trkpt lat="45.2394" lon="5.58573">
        <ele>1509</ele>
        <time>2022-06-29T14:28:26.000Z</time>
      </trkpt>
      <trkpt lat="45.23925" lon="5.58577">
        <ele>1509</ele>
        <time>2022-06-29T14:28:27.000Z</time>
      </trkpt>
      <trkpt lat="45.23911" lon="5.58588">
        <ele>1509</ele>
        <time>2022-06-29T14:28:28.000Z</time>
      </trkpt>
      <trkpt lat="45.23896" lon="5.58599">
        <ele>1509</ele>
        <time>2022-06-29T14:28:29.000Z</time>
      </trkpt>
      <trkpt lat="45.23882" lon="5.58609">
        <ele>1509</ele>
        <time>2022-06-29T14:28:30.000Z</time>
      </trkpt>
      <trkpt lat="45.23863" lon="5.58611">
        <ele>1497</ele>
        <time>2022-06-29T14:28:31.000Z</time>
      </trkpt>
      <trkpt lat="45.23845" lon="5.58613">
        <ele>1497</ele>
        <time>2022-06-29T14:28:32.000Z</time>
      </trkpt>
      <trkpt lat="45.23825" lon="5.58622">
        <ele>1497</ele>
        <time>2022-06-29T14:28:33.000Z</time>
      </trkpt>
      <trkpt lat="45.23813" lon="5.5864">
        <ele>1525</ele>
        <time>2022-06-29T14:28:34.000Z</time>
      </trkpt>
      <trkpt lat="45.238" lon="5.58657">
        <ele>1525</ele>
        <time>2022-06-29T14:28:35.000Z</time>
      </trkpt>
      <trkpt lat="45.23787" lon="5.58674">
        <ele>1506</ele>
        <time>2022-06-29T14:28:36.000Z</time>
      </trkpt>
      <trkpt lat="45.23779" lon="5.58692">
        <ele>1506</ele>
        <time>2022-06-29T14:28:37.000Z</time>
      </trkpt>
      <trkpt lat="45.23771" lon="5.5871">
        <ele>1506</ele>
        <time>2022-06-29T14:28:38.000Z</time>
      </trkpt>
      <trkpt lat="45.23766" lon="5.58731">
        <ele>1521</ele>
        <time>2022-06-29T14:28:39.000Z</time>
      </trkpt>
      <trkpt lat="45.2376" lon="5.58752">
        <ele>1521</ele>
        <time>2022-06-29T14:28:40.000Z</time>
      </trkpt>
      <trkpt lat="45.23758" lon="5.58777">
        <ele>1521</ele>
        <time>2022-06-29T14:28:41.000Z</time>
      </trkpt>
      <trkpt lat="45.23756" lon="5.58803">
        <ele>1529</ele>
        <time>2022-06-29T14:28:42.000Z</time>
      </trkpt>
      <trkpt lat="45.23763" lon="5.58831">
        <ele>1529</ele>
        <time>2022-06-29T14:28:43.000Z</time>
      </trkpt>
      <trkpt lat="45.23769" lon="5.58858">
        <ele>1529</ele>
        <time>2022-06-29T14:28:44.000Z</time>
      </trkpt>
      <trkpt lat="45.23767" lon="5.58876">
        <ele>1529</ele>
        <time>2022-06-29T14:28:45.000Z</time>
      </trkpt>
      <trkpt lat="45.23757" lon="5.58898">
        <ele>1538</ele>
        <time>2022-06-29T14:28:46.000Z</time>
      </trkpt>
      <trkpt lat="45.23739" lon="5.58915">
        <ele>1538</ele>
        <time>2022-06-29T14:28:47.000Z</time>
      </trkpt>
      <trkpt lat="45.23721" lon="5.58933">
        <ele>1538</ele>
        <time>2022-06-29T14:28:48.000Z</time>
      </trkpt>
      <trkpt lat="45.23705" lon="5.58953">
        <ele>1520</ele>
        <time>2022-06-29T14:28:49.000Z</time>
      </trkpt>
      <trkpt lat="45.2369" lon="5.58972">
        <ele>1538</ele>
        <time>2022-06-29T14:28:50.000Z</time>
      </trkpt>
      <trkpt lat="45.23675" lon="5.58992">
        <ele>1538</ele>
        <time>2022-06-29T14:28:51.000Z</time>
      </trkpt>
      <trkpt lat="45.23663" lon="5.58997">
        <ele>1538</ele>
        <time>2022-06-29T14:28:52.000Z</time>
      </trkpt>
      <trkpt lat="45.23652" lon="5.59002">
        <ele>1538</ele>
        <time>2022-06-29T14:28:53.000Z</time>
      </trkpt>
      <trkpt lat="45.23647" lon="5.59014">
        <ele>1538</ele>
        <time>2022-06-29T14:28:54.000Z</time>
      </trkpt>
      <trkpt lat="45.23636" lon="5.59025">
        <ele>1538</ele>
        <time>2022-06-29T14:28:55.000Z</time>
      </trkpt>
      <trkpt lat="45.23621" lon="5.59034">
        <ele>1522</ele>
        <time>2022-06-29T14:28:56.000Z</time>
      </trkpt>
      <trkpt lat="45.23606" lon="5.59043">
        <ele>1522</ele>
        <time>2022-06-29T14:28:57.000Z</time>
      </trkpt>
      <trkpt lat="45.2359" lon="5.59061">
        <ele>1546</ele>
        <time>2022-06-29T14:28:58.000Z</time>
      </trkpt>
      <trkpt lat="45.23585" lon="5.59082">
        <ele>1546</ele>
        <time>2022-06-29T14:28:59.000Z</time>
      </trkpt>
      <trkpt lat="45.23589" lon="5.5909">
        <ele>1546</ele>
        <time>2022-06-29T14:29:00.000Z</time>
      </trkpt>
      <trkpt lat="45.23611" lon="5.59089">
        <ele>1546</ele>
        <time>2022-06-29T14:29:01.000Z</time>
      </trkpt>
      <trkpt lat="45.23632" lon="5.59088">
        <ele>1550</ele>
        <time>2022-06-29T14:29:02.000Z</time>
      </trkpt>
      <trkpt lat="45.23641" lon="5.59097">
        <ele>1550</ele>
        <time>2022-06-29T14:29:03.000Z</time>
      </trkpt>
      <trkpt lat="45.23641" lon="5.59113">
        <ele>1550</ele>
        <time>2022-06-29T14:29:04.000Z</time>
      </trkpt>
      <trkpt lat="45.23628" lon="5.59129">
        <ele>1546</ele>
        <time>2022-06-29T14:29:05.000Z</time>
      </trkpt>
      <trkpt lat="45.23606" lon="5.59132">
        <ele>1546</ele>
        <time>2022-06-29T14:29:06.000Z</time>
      </trkpt>
      <trkpt lat="45.23596" lon="5.59148">
        <ele>1561</ele>
        <time>2022-06-29T14:29:07.000Z</time>
      </trkpt>
      <trkpt lat="45.23587" lon="5.59165">
        <ele>1561</ele>
        <time>2022-06-29T14:29:08.000Z</time>
      </trkpt>
      <trkpt lat="45.23567" lon="5.59171">
        <ele>1561</ele>
        <time>2022-06-29T14:29:09.000Z</time>
      </trkpt>
      <trkpt lat="45.23562" lon="5.59179">
        <ele>1561</ele>
        <time>2022-06-29T14:29:10.000Z</time>
      </trkpt>
      <trkpt lat="45.23567" lon="5.59188">
        <ele>1561</ele>
        <time>2022-06-29T14:29:11.000Z</time>
      </trkpt>
      <trkpt lat="45.23576" lon="5.59189">
        <ele>1561</ele>
        <time>2022-06-29T14:29:12.000Z</time>
      </trkpt>
      <trkpt lat="45.23585" lon="5.59196">
        <ele>1561</ele>
        <time>2022-06-29T14:29:13.000Z</time>
      </trkpt>
      <trkpt lat="45.23587" lon="5.59207">
        <ele>1561</ele>
        <time>2022-06-29T14:29:14.000Z</time>
      </trkpt>
      <trkpt lat="45.23574" lon="5.59231">
        <ele>1572</ele>
        <time>2022-06-29T14:29:15.000Z</time>
      </trkpt>
      <trkpt lat="45.23561" lon="5.59238">
        <ele>1572</ele>
        <time>2022-06-29T14:29:16.000Z</time>
      </trkpt>
      <trkpt lat="45.23548" lon="5.59246">
        <ele>1572</ele>
        <time>2022-06-29T14:29:17.000Z</time>
      </trkpt>
      <trkpt lat="45.23538" lon="5.59244">
        <ele>1574</ele>
        <time>2022-06-29T14:29:18.000Z</time>
      </trkpt>
      <trkpt lat="45.23528" lon="5.59236">
        <ele>1574</ele>
        <time>2022-06-29T14:29:19.000Z</time>
      </trkpt>
      <trkpt lat="45.2352" lon="5.59241">
        <ele>1574</ele>
        <time>2022-06-29T14:29:20.000Z</time>
      </trkpt>
      <trkpt lat="45.23513" lon="5.59254">
        <ele>1574</ele>
        <time>2022-06-29T14:29:21.000Z</time>
      </trkpt>
      <trkpt lat="45.23508" lon="5.59258">
        <ele>1574</ele>
        <time>2022-06-29T14:29:22.000Z</time>
      </trkpt>
      <trkpt lat="45.23486" lon="5.59258">
        <ele>1574</ele>
        <time>2022-06-29T14:29:23.000Z</time>
      </trkpt>
      <trkpt lat="45.23464" lon="5.59258">
        <ele>1574</ele>
        <time>2022-06-29T14:29:24.000Z</time>
      </trkpt>
      <trkpt lat="45.23454" lon="5.59265">
        <ele>1577</ele>
        <time>2022-06-29T14:29:25.000Z</time>
      </trkpt>
      <trkpt lat="45.23443" lon="5.59271">
        <ele>1577</ele>
        <time>2022-06-29T14:29:26.000Z</time>
      </trkpt>
      <trkpt lat="45.23437" lon="5.59282">
        <ele>1577</ele>
        <time>2022-06-29T14:29:27.000Z</time>
      </trkpt>
      <trkpt lat="45.23435" lon="5.59298">
        <ele>1577</ele>
        <time>2022-06-29T14:29:28.000Z</time>
      </trkpt>
      <trkpt lat="45.23439" lon="5.5931">
        <ele>1582</ele>
        <time>2022-06-29T14:29:29.000Z</time>
      </trkpt>
      <trkpt lat="45.23449" lon="5.59326">
        <ele>1582</ele>
        <time>2022-06-29T14:29:30.000Z</time>
      </trkpt>
      <trkpt lat="45.23465" lon="5.59344">
        <ele>1580</ele>
        <time>2022-06-29T14:29:31.000Z</time>
      </trkpt>
      <trkpt lat="45.23481" lon="5.59362">
        <ele>1580</ele>
        <time>2022-06-29T14:29:32.000Z</time>
      </trkpt>
      <trkpt lat="45.23498" lon="5.5938">
        <ele>1580</ele>
        <time>2022-06-29T14:29:33.000Z</time>
      </trkpt>
      <trkpt lat="45.2351" lon="5.59392">
        <ele>1588</ele>
        <time>2022-06-29T14:29:34.000Z</time>
      </trkpt>
      <trkpt lat="45.23523" lon="5.59405">
        <ele>1588</ele>
        <time>2022-06-29T14:29:35.000Z</time>
      </trkpt>
      <trkpt lat="45.23536" lon="5.59417">
        <ele>1588</ele>
        <time>2022-06-29T14:29:36.000Z</time>
      </trkpt>
      <trkpt lat="45.23546" lon="5.59443">
        <ele>1588</ele>
        <time>2022-06-29T14:29:37.000Z</time>
      </trkpt>
      <trkpt lat="45.23557" lon="5.59469">
        <ele>1593</ele>
        <time>2022-06-29T14:29:38.000Z</time>
      </trkpt>
      <trkpt lat="45.23551" lon="5.59478">
        <ele>1593</ele>
        <time>2022-06-29T14:29:39.000Z</time>
      </trkpt>
      <trkpt lat="45.2354" lon="5.59486">
        <ele>1606</ele>
        <time>2022-06-29T14:29:40.000Z</time>
      </trkpt>
      <trkpt lat="45.23527" lon="5.59486">
        <ele>1606</ele>
        <time>2022-06-29T14:29:41.000Z</time>
      </trkpt>
      <trkpt lat="45.23516" lon="5.59492">
        <ele>1606</ele>
        <time>2022-06-29T14:29:42.000Z</time>
      </trkpt>
      <trkpt lat="45.23505" lon="5.59499">
        <ele>1606</ele>
        <time>2022-06-29T14:29:43.000Z</time>
      </trkpt>
      <trkpt lat="45.23489" lon="5.5949">
        <ele>1606</ele>
        <time>2022-06-29T14:29:44.000Z</time>
      </trkpt>
      <trkpt lat="45.23473" lon="5.59481">
        <ele>1606</ele>
        <time>2022-06-29T14:29:45.000Z</time>
      </trkpt>
      <trkpt lat="45.23458" lon="5.59472">
        <ele>1610</ele>
        <time>2022-06-29T14:29:46.000Z</time>
      </trkpt>
      <trkpt lat="45.23446" lon="5.59486">
        <ele>1610</ele>
        <time>2022-06-29T14:29:47.000Z</time>
      </trkpt>
      <trkpt lat="45.23434" lon="5.59499">
        <ele>1610</ele>
        <time>2022-06-29T14:29:48.000Z</time>
      </trkpt>
      <trkpt lat="45.23426" lon="5.59503">
        <ele>1610</ele>
        <time>2022-06-29T14:29:49.000Z</time>
      </trkpt>
      <trkpt lat="45.23417" lon="5.59516">
        <ele>1610</ele>
        <time>2022-06-29T14:29:50.000Z</time>
      </trkpt>
      <trkpt lat="45.23408" lon="5.59529">
        <ele>1610</ele>
        <time>2022-06-29T14:29:51.000Z</time>
      </trkpt>
      <trkpt lat="45.23396" lon="5.59537">
        <ele>1610</ele>
        <time>2022-06-29T14:29:52.000Z</time>
      </trkpt>
      <trkpt lat="45.23378" lon="5.59535">
        <ele>1613</ele>
        <time>2022-06-29T14:29:53.000Z</time>
      </trkpt>
      <trkpt lat="45.23359" lon="5.59533">
        <ele>1613</ele>
        <time>2022-06-29T14:29:54.000Z</time>
      </trkpt>
      <trkpt lat="45.23346" lon="5.59545">
        <ele>1613</ele>
        <time>2022-06-29T14:29:55.000Z</time>
      </trkpt>
      <trkpt lat="45.23337" lon="5.59544">
        <ele>1613</ele>
        <time>2022-06-29T14:29:56.000Z</time>
      </trkpt>
      <trkpt lat="45.23323" lon="5.5953">
        <ele>1613</ele>
        <time>2022-06-29T14:29:57.000Z</time>
      </trkpt>
      <trkpt lat="45.23309" lon="5.59515">
        <ele>1613</ele>
        <time>2022-06-29T14:29:58.000Z</time>
      </trkpt>
      <trkpt lat="45.23295" lon="5.59501">
        <ele>1617</ele>
        <time>2022-06-29T14:29:59.000Z</time>
      </trkpt>
      <trkpt lat="45.23281" lon="5.59502">
        <ele>1617</ele>
        <time>2022-06-29T14:30:00.000Z</time>
      </trkpt>
      <trkpt lat="45.23267" lon="5.59503">
        <ele>1617</ele>
        <time>2022-06-29T14:30:01.000Z</time>
      </trkpt>
      <trkpt lat="45.23253" lon="5.59516">
        <ele>1617</ele>
        <time>2022-06-29T14:30:02.000Z</time>
      </trkpt>
      <trkpt lat="45.23242" lon="5.59521">
        <ele>1617</ele>
        <time>2022-06-29T14:30:03.000Z</time>
      </trkpt>
      <trkpt lat="45.2323" lon="5.59527">
        <ele>1617</ele>
        <time>2022-06-29T14:30:04.000Z</time>
      </trkpt>
      <trkpt lat="45.23215" lon="5.59546">
        <ele>1617</ele>
        <time>2022-06-29T14:30:05.000Z</time>
      </trkpt>
      <trkpt lat="45.23199" lon="5.59548">
        <ele>1618</ele>
        <time>2022-06-29T14:30:06.000Z</time>
      </trkpt>
      <trkpt lat="45.23188" lon="5.59536">
        <ele>1618</ele>
        <time>2022-06-29T14:30:07.000Z</time>
      </trkpt>
      <trkpt lat="45.23178" lon="5.59536">
        <ele>1618</ele>
        <time>2022-06-29T14:30:08.000Z</time>
      </trkpt>
      <trkpt lat="45.2316" lon="5.59519">
        <ele>1618</ele>
        <time>2022-06-29T14:30:09.000Z</time>
      </trkpt>
      <trkpt lat="45.23149" lon="5.59496">
        <ele>1618</ele>
        <time>2022-06-29T14:30:10.000Z</time>
      </trkpt>
      <trkpt lat="45.23139" lon="5.59474">
        <ele>1618</ele>
        <time>2022-06-29T14:30:11.000Z</time>
      </trkpt>
      <trkpt lat="45.23129" lon="5.59451">
        <ele>1609</ele>
        <time>2022-06-29T14:30:12.000Z</time>
      </trkpt>
      <trkpt lat="45.23118" lon="5.59436">
        <ele>1609</ele>
        <time>2022-06-29T14:30:13.000Z</time>
      </trkpt>
      <trkpt lat="45.23108" lon="5.59421">
        <ele>1609</ele>
        <time>2022-06-29T14:30:14.000Z</time>
      </trkpt>
      <trkpt lat="45.23095" lon="5.59414">
        <ele>1609</ele>
        <time>2022-06-29T14:30:15.000Z</time>
      </trkpt>
      <trkpt lat="45.23082" lon="5.59407">
        <ele>1609</ele>
        <time>2022-06-29T14:30:16.000Z</time>
      </trkpt>
      <trkpt lat="45.23067" lon="5.59403">
        <ele>1609</ele>
        <time>2022-06-29T14:30:17.000Z</time>
      </trkpt>
      <trkpt lat="45.23057" lon="5.59407">
        <ele>1609</ele>
        <time>2022-06-29T14:30:18.000Z</time>
      </trkpt>
      <trkpt lat="45.23047" lon="5.59402">
        <ele>1609</ele>
        <time>2022-06-29T14:30:19.000Z</time>
      </trkpt>
      <trkpt lat="45.23037" lon="5.59393">
        <ele>1612</ele>
        <time>2022-06-29T14:30:20.000Z</time>
      </trkpt>
      <trkpt lat="45.23026" lon="5.59384">
        <ele>1610</ele>
        <time>2022-06-29T14:30:21.000Z</time>
      </trkpt>
      <trkpt lat="45.23016" lon="5.59382">
        <ele>1610</ele>
        <time>2022-06-29T14:30:22.000Z</time>
      </trkpt>
      <trkpt lat="45.23001" lon="5.59359">
        <ele>1610</ele>
        <time>2022-06-29T14:30:23.000Z</time>
      </trkpt>
      <trkpt lat="45.22996" lon="5.59357">
        <ele>1610</ele>
        <time>2022-06-29T14:30:24.000Z</time>
      </trkpt>
      <trkpt lat="45.22974" lon="5.59359">
        <ele>1610</ele>
        <time>2022-06-29T14:30:25.000Z</time>
      </trkpt>
      <trkpt lat="45.22958" lon="5.59347">
        <ele>1611</ele>
        <time>2022-06-29T14:30:26.000Z</time>
      </trkpt>
      <trkpt lat="45.22945" lon="5.59347">
        <ele>1611</ele>
        <time>2022-06-29T14:30:27.000Z</time>
      </trkpt>
      <trkpt lat="45.2293" lon="5.59357">
        <ele>1611</ele>
        <time>2022-06-29T14:30:28.000Z</time>
      </trkpt>
      <trkpt lat="45.22914" lon="5.59367">
        <ele>1611</ele>
        <time>2022-06-29T14:30:29.000Z</time>
      </trkpt>
      <trkpt lat="45.22899" lon="5.59378">
        <ele>1611</ele>
        <time>2022-06-29T14:30:30.000Z</time>
      </trkpt>
      <trkpt lat="45.22883" lon="5.59385">
        <ele>1611</ele>
        <time>2022-06-29T14:30:31.000Z</time>
      </trkpt>
      <trkpt lat="45.22866" lon="5.59384">
        <ele>1614</ele>
        <time>2022-06-29T14:30:32.000Z</time>
      </trkpt>
      <trkpt lat="45.22849" lon="5.59383">
        <ele>1614</ele>
        <time>2022-06-29T14:30:33.000Z</time>
      </trkpt>
      <trkpt lat="45.22837" lon="5.59372">
        <ele>1614</ele>
        <time>2022-06-29T14:30:34.000Z</time>
      </trkpt>
      <trkpt lat="45.22817" lon="5.59369">
        <ele>1614</ele>
        <time>2022-06-29T14:30:35.000Z</time>
      </trkpt>
      <trkpt lat="45.22805" lon="5.5937">
        <ele>1614</ele>
        <time>2022-06-29T14:30:36.000Z</time>
      </trkpt>
      <trkpt lat="45.22793" lon="5.59371">
        <ele>1611</ele>
        <time>2022-06-29T14:30:37.000Z</time>
      </trkpt>
      <trkpt lat="45.2278" lon="5.59374">
        <ele>1611</ele>
        <time>2022-06-29T14:30:38.000Z</time>
      </trkpt>
      <trkpt lat="45.22763" lon="5.59389">
        <ele>1610</ele>
        <time>2022-06-29T14:30:39.000Z</time>
      </trkpt>
      <trkpt lat="45.22747" lon="5.59395">
        <ele>1610</ele>
        <time>2022-06-29T14:30:40.000Z</time>
      </trkpt>
      <trkpt lat="45.22732" lon="5.594">
        <ele>1610</ele>
        <time>2022-06-29T14:30:41.000Z</time>
      </trkpt>
      <trkpt lat="45.22716" lon="5.594">
        <ele>1610</ele>
        <time>2022-06-29T14:30:42.000Z</time>
      </trkpt>
      <trkpt lat="45.22699" lon="5.59399">
        <ele>1610</ele>
        <time>2022-06-29T14:30:43.000Z</time>
      </trkpt>
      <trkpt lat="45.22688" lon="5.59394">
        <ele>1610</ele>
        <time>2022-06-29T14:30:44.000Z</time>
      </trkpt>
      <trkpt lat="45.22678" lon="5.59383">
        <ele>1610</ele>
        <time>2022-06-29T14:30:45.000Z</time>
      </trkpt>
      <trkpt lat="45.22669" lon="5.59381">
        <ele>1610</ele>
        <time>2022-06-29T14:30:46.000Z</time>
      </trkpt>
      <trkpt lat="45.22661" lon="5.59389">
        <ele>1610</ele>
        <time>2022-06-29T14:30:47.000Z</time>
      </trkpt>
      <trkpt lat="45.22645" lon="5.5939">
        <ele>1610</ele>
        <time>2022-06-29T14:30:48.000Z</time>
      </trkpt>
      <trkpt lat="45.2263" lon="5.59392">
        <ele>1610</ele>
        <time>2022-06-29T14:30:49.000Z</time>
      </trkpt>
      <trkpt lat="45.22614" lon="5.59389">
        <ele>1612</ele>
        <time>2022-06-29T14:30:50.000Z</time>
      </trkpt>
      <trkpt lat="45.22599" lon="5.59386">
        <ele>1612</ele>
        <time>2022-06-29T14:30:51.000Z</time>
      </trkpt>
      <trkpt lat="45.22584" lon="5.59384">
        <ele>1612</ele>
        <time>2022-06-29T14:30:52.000Z</time>
      </trkpt>
      <trkpt lat="45.22565" lon="5.59386">
        <ele>1612</ele>
        <time>2022-06-29T14:30:53.000Z</time>
      </trkpt>
      <trkpt lat="45.22547" lon="5.59389">
        <ele>1612</ele>
        <time>2022-06-29T14:30:54.000Z</time>
      </trkpt>
      <trkpt lat="45.22527" lon="5.59386">
        <ele>1613</ele>
        <time>2022-06-29T14:30:55.000Z</time>
      </trkpt>
      <trkpt lat="45.22507" lon="5.59383">
        <ele>1616</ele>
        <time>2022-06-29T14:30:56.000Z</time>
      </trkpt>
      <trkpt lat="45.22487" lon="5.5938">
        <ele>1616</ele>
        <time>2022-06-29T14:30:57.000Z</time>
      </trkpt>
      <trkpt lat="45.2247" lon="5.59379">
        <ele>1616</ele>
        <time>2022-06-29T14:30:58.000Z</time>
      </trkpt>
      <trkpt lat="45.22453" lon="5.59377">
        <ele>1618</ele>
        <time>2022-06-29T14:30:59.000Z</time>
      </trkpt>
      <trkpt lat="45.22436" lon="5.59376">
        <ele>1618</ele>
        <time>2022-06-29T14:31:00.000Z</time>
      </trkpt>
      <trkpt lat="45.22419" lon="5.59375">
        <ele>1618</ele>
        <time>2022-06-29T14:31:01.000Z</time>
      </trkpt>
      <trkpt lat="45.22401" lon="5.59366">
        <ele>1618</ele>
        <time>2022-06-29T14:31:02.000Z</time>
      </trkpt>
      <trkpt lat="45.22388" lon="5.59365">
        <ele>1618</ele>
        <time>2022-06-29T14:31:03.000Z</time>
      </trkpt>
      <trkpt lat="45.22375" lon="5.59368">
        <ele>1620</ele>
        <time>2022-06-29T14:31:04.000Z</time>
      </trkpt>
      <trkpt lat="45.22362" lon="5.59372">
        <ele>1620</ele>
        <time>2022-06-29T14:31:05.000Z</time>
      </trkpt>
      <trkpt lat="45.22343" lon="5.59367">
        <ele>1620</ele>
        <time>2022-06-29T14:31:06.000Z</time>
      </trkpt>
      <trkpt lat="45.22324" lon="5.59362">
        <ele>1620</ele>
        <time>2022-06-29T14:31:07.000Z</time>
      </trkpt>
      <trkpt lat="45.22305" lon="5.59357">
        <ele>1620</ele>
        <time>2022-06-29T14:31:08.000Z</time>
      </trkpt>
      <trkpt lat="45.22286" lon="5.59344">
        <ele>1622</ele>
        <time>2022-06-29T14:31:09.000Z</time>
      </trkpt>
      <trkpt lat="45.22273" lon="5.5933">
        <ele>1622</ele>
        <time>2022-06-29T14:31:10.000Z</time>
      </trkpt>
      <trkpt lat="45.22259" lon="5.59316">
        <ele>1622</ele>
        <time>2022-06-29T14:31:11.000Z</time>
      </trkpt>
      <trkpt lat="45.22245" lon="5.59292">
        <ele>1613</ele>
        <time>2022-06-29T14:31:12.000Z</time>
      </trkpt>
      <trkpt lat="45.2223" lon="5.59275">
        <ele>1613</ele>
        <time>2022-06-29T14:31:13.000Z</time>
      </trkpt>
      <trkpt lat="45.22215" lon="5.59259">
        <ele>1613</ele>
        <time>2022-06-29T14:31:14.000Z</time>
      </trkpt>
      <trkpt lat="45.222" lon="5.59243">
        <ele>1609</ele>
        <time>2022-06-29T14:31:15.000Z</time>
      </trkpt>
      <trkpt lat="45.22185" lon="5.59227">
        <ele>1609</ele>
        <time>2022-06-29T14:31:16.000Z</time>
      </trkpt>
      <trkpt lat="45.22163" lon="5.59233">
        <ele>1609</ele>
        <time>2022-06-29T14:31:17.000Z</time>
      </trkpt>
      <trkpt lat="45.22141" lon="5.5924">
        <ele>1609</ele>
        <time>2022-06-29T14:31:18.000Z</time>
      </trkpt>
      <trkpt lat="45.22122" lon="5.59239">
        <ele>1611</ele>
        <time>2022-06-29T14:31:19.000Z</time>
      </trkpt>
      <trkpt lat="45.22104" lon="5.59238">
        <ele>1611</ele>
        <time>2022-06-29T14:31:20.000Z</time>
      </trkpt>
      <trkpt lat="45.22085" lon="5.59237">
        <ele>1611</ele>
        <time>2022-06-29T14:31:21.000Z</time>
      </trkpt>
      <trkpt lat="45.22066" lon="5.59236">
        <ele>1611</ele>
        <time>2022-06-29T14:31:22.000Z</time>
      </trkpt>
      <trkpt lat="45.22048" lon="5.59235">
        <ele>1611</ele>
        <time>2022-06-29T14:31:23.000Z</time>
      </trkpt>
      <trkpt lat="45.22036" lon="5.59242">
        <ele>1605</ele>
        <time>2022-06-29T14:31:24.000Z</time>
      </trkpt>
      <trkpt lat="45.22025" lon="5.59249">
        <ele>1605</ele>
        <time>2022-06-29T14:31:25.000Z</time>
      </trkpt>
      <trkpt lat="45.22009" lon="5.59252">
        <ele>1605</ele>
        <time>2022-06-29T14:31:26.000Z</time>
      </trkpt>
      <trkpt lat="45.21994" lon="5.59256">
        <ele>1605</ele>
        <time>2022-06-29T14:31:27.000Z</time>
      </trkpt>
      <trkpt lat="45.21978" lon="5.59255">
        <ele>1605</ele>
        <time>2022-06-29T14:31:28.000Z</time>
      </trkpt>
      <trkpt lat="45.21962" lon="5.59253">
        <ele>1598</ele>
        <time>2022-06-29T14:31:29.000Z</time>
      </trkpt>
      <trkpt lat="45.21946" lon="5.59252">
        <ele>1598</ele>
        <time>2022-06-29T14:31:30.000Z</time>
      </trkpt>
      <trkpt lat="45.21929" lon="5.59256">
        <ele>1598</ele>
        <time>2022-06-29T14:31:31.000Z</time>
      </trkpt>
      <trkpt lat="45.21911" lon="5.5926">
        <ele>1598</ele>
        <time>2022-06-29T14:31:32.000Z</time>
      </trkpt>
      <trkpt lat="45.21894" lon="5.59264">
        <ele>1598</ele>
        <time>2022-06-29T14:31:33.000Z</time>
      </trkpt>
      <trkpt lat="45.21876" lon="5.59264">
        <ele>1598</ele>
        <time>2022-06-29T14:31:34.000Z</time>
      </trkpt>
      <trkpt lat="45.21859" lon="5.59263">
        <ele>1598</ele>
        <time>2022-06-29T14:31:35.000Z</time>
      </trkpt>
      <trkpt lat="45.21842" lon="5.59263">
        <ele>1598</ele>
        <time>2022-06-29T14:31:36.000Z</time>
      </trkpt>
      <trkpt lat="45.21825" lon="5.59263">
        <ele>1598</ele>
        <time>2022-06-29T14:31:37.000Z</time>
      </trkpt>
      <trkpt lat="45.21813" lon="5.59267">
        <ele>1598</ele>
        <time>2022-06-29T14:31:38.000Z</time>
      </trkpt>
      <trkpt lat="45.2181" lon="5.59281">
        <ele>1598</ele>
        <time>2022-06-29T14:31:39.000Z</time>
      </trkpt>
      <trkpt lat="45.21811" lon="5.59296">
        <ele>1598</ele>
        <time>2022-06-29T14:31:40.000Z</time>
      </trkpt>
      <trkpt lat="45.21809" lon="5.59309">
        <ele>1602</ele>
        <time>2022-06-29T14:31:41.000Z</time>
      </trkpt>
      <trkpt lat="45.21794" lon="5.59333">
        <ele>1592</ele>
        <time>2022-06-29T14:31:42.000Z</time>
      </trkpt>
      <trkpt lat="45.2178" lon="5.59357">
        <ele>1592</ele>
        <time>2022-06-29T14:31:43.000Z</time>
      </trkpt>
      <trkpt lat="45.21766" lon="5.59381">
        <ele>1592</ele>
        <time>2022-06-29T14:31:44.000Z</time>
      </trkpt>
      <trkpt lat="45.21751" lon="5.59405">
        <ele>1588</ele>
        <time>2022-06-29T14:31:45.000Z</time>
      </trkpt>
      <trkpt lat="45.21739" lon="5.59424">
        <ele>1588</ele>
        <time>2022-06-29T14:31:46.000Z</time>
      </trkpt>
      <trkpt lat="45.21729" lon="5.59429">
        <ele>1588</ele>
        <time>2022-06-29T14:31:47.000Z</time>
      </trkpt>
      <trkpt lat="45.21711" lon="5.59421">
        <ele>1596</ele>
        <time>2022-06-29T14:31:48.000Z</time>
      </trkpt>
      <trkpt lat="45.21692" lon="5.59413">
        <ele>1596</ele>
        <time>2022-06-29T14:31:49.000Z</time>
      </trkpt>
      <trkpt lat="45.21684" lon="5.594">
        <ele>1596</ele>
        <time>2022-06-29T14:31:50.000Z</time>
      </trkpt>
      <trkpt lat="45.21674" lon="5.59388">
        <ele>1596</ele>
        <time>2022-06-29T14:31:51.000Z</time>
      </trkpt>
      <trkpt lat="45.21664" lon="5.59377">
        <ele>1601</ele>
        <time>2022-06-29T14:31:52.000Z</time>
      </trkpt>
      <trkpt lat="45.21663" lon="5.59352">
        <ele>1601</ele>
        <time>2022-06-29T14:31:53.000Z</time>
      </trkpt>
      <trkpt lat="45.21661" lon="5.59328">
        <ele>1601</ele>
        <time>2022-06-29T14:31:54.000Z</time>
      </trkpt>
      <trkpt lat="45.2166" lon="5.59303">
        <ele>1601</ele>
        <time>2022-06-29T14:31:55.000Z</time>
      </trkpt>
      <trkpt lat="45.21659" lon="5.59278">
        <ele>1600</ele>
        <time>2022-06-29T14:31:56.000Z</time>
      </trkpt>
      <trkpt lat="45.2165" lon="5.59267">
        <ele>1600</ele>
        <time>2022-06-29T14:31:57.000Z</time>
      </trkpt>
      <trkpt lat="45.21641" lon="5.59255">
        <ele>1600</ele>
        <time>2022-06-29T14:31:58.000Z</time>
      </trkpt>
      <trkpt lat="45.21632" lon="5.59232">
        <ele>1600</ele>
        <time>2022-06-29T14:31:59.000Z</time>
      </trkpt>
      <trkpt lat="45.21622" lon="5.59218">
        <ele>1613</ele>
        <time>2022-06-29T14:32:00.000Z</time>
      </trkpt>
      <trkpt lat="45.21611" lon="5.59203">
        <ele>1613</ele>
        <time>2022-06-29T14:32:01.000Z</time>
      </trkpt>
      <trkpt lat="45.21598" lon="5.59187">
        <ele>1613</ele>
        <time>2022-06-29T14:32:02.000Z</time>
      </trkpt>
      <trkpt lat="45.21585" lon="5.59172">
        <ele>1613</ele>
        <time>2022-06-29T14:32:03.000Z</time>
      </trkpt>
      <trkpt lat="45.21571" lon="5.59159">
        <ele>1613</ele>
        <time>2022-06-29T14:32:04.000Z</time>
      </trkpt>
      <trkpt lat="45.21556" lon="5.59147">
        <ele>1613</ele>
        <time>2022-06-29T14:32:05.000Z</time>
      </trkpt>
      <trkpt lat="45.21543" lon="5.59146">
        <ele>1622</ele>
        <time>2022-06-29T14:32:06.000Z</time>
      </trkpt>
      <trkpt lat="45.2153" lon="5.59146">
        <ele>1622</ele>
        <time>2022-06-29T14:32:07.000Z</time>
      </trkpt>
      <trkpt lat="45.2151" lon="5.59154">
        <ele>1622</ele>
        <time>2022-06-29T14:32:08.000Z</time>
      </trkpt>
      <trkpt lat="45.2149" lon="5.59162">
        <ele>1622</ele>
        <time>2022-06-29T14:32:09.000Z</time>
      </trkpt>
      <trkpt lat="45.21476" lon="5.59157">
        <ele>1622</ele>
        <time>2022-06-29T14:32:10.000Z</time>
      </trkpt>
      <trkpt lat="45.21466" lon="5.59144">
        <ele>1622</ele>
        <time>2022-06-29T14:32:11.000Z</time>
      </trkpt>
      <trkpt lat="45.21456" lon="5.59132">
        <ele>1627</ele>
        <time>2022-06-29T14:32:12.000Z</time>
      </trkpt>
      <trkpt lat="45.21445" lon="5.59114">
        <ele>1627</ele>
        <time>2022-06-29T14:32:13.000Z</time>
      </trkpt>
      <trkpt lat="45.21435" lon="5.59096">
        <ele>1627</ele>
        <time>2022-06-29T14:32:14.000Z</time>
      </trkpt>
      <trkpt lat="45.21424" lon="5.59084">
        <ele>1627</ele>
        <time>2022-06-29T14:32:15.000Z</time>
      </trkpt>
      <trkpt lat="45.21412" lon="5.59073">
        <ele>1627</ele>
        <time>2022-06-29T14:32:16.000Z</time>
      </trkpt>
      <trkpt lat="45.21393" lon="5.59059">
        <ele>1627</ele>
        <time>2022-06-29T14:32:17.000Z</time>
      </trkpt>
      <trkpt lat="45.21373" lon="5.59046">
        <ele>1632</ele>
        <time>2022-06-29T14:32:18.000Z</time>
      </trkpt>
      <trkpt lat="45.21355" lon="5.59028">
        <ele>1632</ele>
        <time>2022-06-29T14:32:19.000Z</time>
      </trkpt>
      <trkpt lat="45.21337" lon="5.59011">
        <ele>1632</ele>
        <time>2022-06-29T14:32:20.000Z</time>
      </trkpt>
      <trkpt lat="45.21319" lon="5.58994">
        <ele>1632</ele>
        <time>2022-06-29T14:32:21.000Z</time>
      </trkpt>
      <trkpt lat="45.21301" lon="5.58998">
        <ele>1632</ele>
        <time>2022-06-29T14:32:22.000Z</time>
      </trkpt>
      <trkpt lat="45.21283" lon="5.59009">
        <ele>1637</ele>
        <time>2022-06-29T14:32:23.000Z</time>
      </trkpt>
      <trkpt lat="45.21263" lon="5.59016">
        <ele>1637</ele>
        <time>2022-06-29T14:32:24.000Z</time>
      </trkpt>
      <trkpt lat="45.21243" lon="5.59023">
        <ele>1637</ele>
        <time>2022-06-29T14:32:25.000Z</time>
      </trkpt>
      <trkpt lat="45.21223" lon="5.59029">
        <ele>1637</ele>
        <time>2022-06-29T14:32:26.000Z</time>
      </trkpt>
      <trkpt lat="45.21208" lon="5.59029">
        <ele>1639</ele>
        <time>2022-06-29T14:32:27.000Z</time>
      </trkpt>
      <trkpt lat="45.21193" lon="5.59028">
        <ele>1639</ele>
        <time>2022-06-29T14:32:28.000Z</time>
      </trkpt>
      <trkpt lat="45.21172" lon="5.59021">
        <ele>1639</ele>
        <time>2022-06-29T14:32:29.000Z</time>
      </trkpt>
      <trkpt lat="45.2116" lon="5.59019">
        <ele>1639</ele>
        <time>2022-06-29T14:32:30.000Z</time>
      </trkpt>
      <trkpt lat="45.21147" lon="5.59018">
        <ele>1639</ele>
        <time>2022-06-29T14:32:31.000Z</time>
      </trkpt>
      <trkpt lat="45.21129" lon="5.59002">
        <ele>1639</ele>
        <time>2022-06-29T14:32:32.000Z</time>
      </trkpt>
      <trkpt lat="45.21119" lon="5.58983">
        <ele>1629</ele>
        <time>2022-06-29T14:32:33.000Z</time>
      </trkpt>
      <trkpt lat="45.21118" lon="5.58961">
        <ele>1629</ele>
        <time>2022-06-29T14:32:34.000Z</time>
      </trkpt>
      <trkpt lat="45.21112" lon="5.58952">
        <ele>1629</ele>
        <time>2022-06-29T14:32:35.000Z</time>
      </trkpt>
      <trkpt lat="45.21097" lon="5.58959">
        <ele>1629</ele>
        <time>2022-06-29T14:32:36.000Z</time>
      </trkpt>
      <trkpt lat="45.21086" lon="5.58973">
        <ele>1629</ele>
        <time>2022-06-29T14:32:37.000Z</time>
      </trkpt>
      <trkpt lat="45.2108" lon="5.5899">
        <ele>1629</ele>
        <time>2022-06-29T14:32:38.000Z</time>
      </trkpt>
      <trkpt lat="45.21075" lon="5.59006">
        <ele>1629</ele>
        <time>2022-06-29T14:32:39.000Z</time>
      </trkpt>
      <trkpt lat="45.21066" lon="5.59021">
        <ele>1629</ele>
        <time>2022-06-29T14:32:40.000Z</time>
      </trkpt>
      <trkpt lat="45.21058" lon="5.59038">
        <ele>1629</ele>
        <time>2022-06-29T14:32:41.000Z</time>
      </trkpt>
      <trkpt lat="45.21049" lon="5.59055">
        <ele>1628</ele>
        <time>2022-06-29T14:32:42.000Z</time>
      </trkpt>
      <trkpt lat="45.21035" lon="5.59051">
        <ele>1617</ele>
        <time>2022-06-29T14:32:43.000Z</time>
      </trkpt>
      <trkpt lat="45.2102" lon="5.59056">
        <ele>1627</ele>
        <time>2022-06-29T14:32:44.000Z</time>
      </trkpt>
      <trkpt lat="45.21012" lon="5.59067">
        <ele>1627</ele>
        <time>2022-06-29T14:32:45.000Z</time>
      </trkpt>
      <trkpt lat="45.2101" lon="5.59094">
        <ele>1627</ele>
        <time>2022-06-29T14:32:46.000Z</time>
      </trkpt>
      <trkpt lat="45.21004" lon="5.59109">
        <ele>1627</ele>
        <time>2022-06-29T14:32:47.000Z</time>
      </trkpt>
      <trkpt lat="45.20997" lon="5.59124">
        <ele>1627</ele>
        <time>2022-06-29T14:32:48.000Z</time>
      </trkpt>
      <trkpt lat="45.20998" lon="5.59154">
        <ele>1624</ele>
        <time>2022-06-29T14:32:49.000Z</time>
      </trkpt>
      <trkpt lat="45.20989" lon="5.59181">
        <ele>1624</ele>
        <time>2022-06-29T14:32:50.000Z</time>
      </trkpt>
      <trkpt lat="45.20973" lon="5.59176">
        <ele>1624</ele>
        <time>2022-06-29T14:32:51.000Z</time>
      </trkpt>
      <trkpt lat="45.20961" lon="5.59182">
        <ele>1622</ele>
        <time>2022-06-29T14:32:52.000Z</time>
      </trkpt>
      <trkpt lat="45.20949" lon="5.59187">
        <ele>1622</ele>
        <time>2022-06-29T14:32:53.000Z</time>
      </trkpt>
      <trkpt lat="45.20937" lon="5.59181">
        <ele>1622</ele>
        <time>2022-06-29T14:32:54.000Z</time>
      </trkpt>
      <trkpt lat="45.20928" lon="5.59168">
        <ele>1622</ele>
        <time>2022-06-29T14:32:55.000Z</time>
      </trkpt>
      <trkpt lat="45.20919" lon="5.59155">
        <ele>1622</ele>
        <time>2022-06-29T14:32:56.000Z</time>
      </trkpt>
      <trkpt lat="45.20904" lon="5.59141">
        <ele>1622</ele>
        <time>2022-06-29T14:32:57.000Z</time>
      </trkpt>
      <trkpt lat="45.2089" lon="5.59128">
        <ele>1625</ele>
        <time>2022-06-29T14:32:58.000Z</time>
      </trkpt>
      <trkpt lat="45.20875" lon="5.59115">
        <ele>1623</ele>
        <time>2022-06-29T14:32:59.000Z</time>
      </trkpt>
      <trkpt lat="45.2086" lon="5.59107">
        <ele>1623</ele>
        <time>2022-06-29T14:33:00.000Z</time>
      </trkpt>
      <trkpt lat="45.20844" lon="5.59099">
        <ele>1623</ele>
        <time>2022-06-29T14:33:01.000Z</time>
      </trkpt>
      <trkpt lat="45.20829" lon="5.59092">
        <ele>1623</ele>
        <time>2022-06-29T14:33:02.000Z</time>
      </trkpt>
      <trkpt lat="45.20819" lon="5.59099">
        <ele>1623</ele>
        <time>2022-06-29T14:33:03.000Z</time>
      </trkpt>
      <trkpt lat="45.20807" lon="5.59115">
        <ele>1623</ele>
        <time>2022-06-29T14:33:04.000Z</time>
      </trkpt>
      <trkpt lat="45.20795" lon="5.59131">
        <ele>1625</ele>
        <time>2022-06-29T14:33:05.000Z</time>
      </trkpt>
      <trkpt lat="45.20791" lon="5.59144">
        <ele>1623</ele>
        <time>2022-06-29T14:33:06.000Z</time>
      </trkpt>
      <trkpt lat="45.20775" lon="5.59144">
        <ele>1623</ele>
        <time>2022-06-29T14:33:07.000Z</time>
      </trkpt>
      <trkpt lat="45.20759" lon="5.59132">
        <ele>1625</ele>
        <time>2022-06-29T14:33:08.000Z</time>
      </trkpt>
      <trkpt lat="45.20749" lon="5.59144">
        <ele>1623</ele>
        <time>2022-06-29T14:33:09.000Z</time>
      </trkpt>
      <trkpt lat="45.20741" lon="5.59162">
        <ele>1623</ele>
        <time>2022-06-29T14:33:10.000Z</time>
      </trkpt>
      <trkpt lat="45.20729" lon="5.59165">
        <ele>1623</ele>
        <time>2022-06-29T14:33:11.000Z</time>
      </trkpt>
      <trkpt lat="45.20718" lon="5.5919">
        <ele>1623</ele>
        <time>2022-06-29T14:33:12.000Z</time>
      </trkpt>
      <trkpt lat="45.20708" lon="5.59215">
        <ele>1623</ele>
        <time>2022-06-29T14:33:13.000Z</time>
      </trkpt>
      <trkpt lat="45.207" lon="5.59221">
        <ele>1621</ele>
        <time>2022-06-29T14:33:14.000Z</time>
      </trkpt>
      <trkpt lat="45.20681" lon="5.59219">
        <ele>1621</ele>
        <time>2022-06-29T14:33:15.000Z</time>
      </trkpt>
      <trkpt lat="45.20663" lon="5.59218">
        <ele>1623</ele>
        <time>2022-06-29T14:33:16.000Z</time>
      </trkpt>
      <trkpt lat="45.20644" lon="5.59216">
        <ele>1623</ele>
        <time>2022-06-29T14:33:17.000Z</time>
      </trkpt>
      <trkpt lat="45.20626" lon="5.59215">
        <ele>1627</ele>
        <time>2022-06-29T14:33:18.000Z</time>
      </trkpt>
      <trkpt lat="45.20612" lon="5.59221">
        <ele>1626</ele>
        <time>2022-06-29T14:33:19.000Z</time>
      </trkpt>
      <trkpt lat="45.20597" lon="5.59228">
        <ele>1626</ele>
        <time>2022-06-29T14:33:20.000Z</time>
      </trkpt>
      <trkpt lat="45.20583" lon="5.59235">
        <ele>1626</ele>
        <time>2022-06-29T14:33:21.000Z</time>
      </trkpt>
      <trkpt lat="45.20566" lon="5.59247">
        <ele>1626</ele>
        <time>2022-06-29T14:33:22.000Z</time>
      </trkpt>
      <trkpt lat="45.2055" lon="5.59259">
        <ele>1626</ele>
        <time>2022-06-29T14:33:23.000Z</time>
      </trkpt>
      <trkpt lat="45.20533" lon="5.59271">
        <ele>1629</ele>
        <time>2022-06-29T14:33:24.000Z</time>
      </trkpt>
      <trkpt lat="45.20517" lon="5.59282">
        <ele>1629</ele>
        <time>2022-06-29T14:33:25.000Z</time>
      </trkpt>
      <trkpt lat="45.20502" lon="5.59294">
        <ele>1629</ele>
        <time>2022-06-29T14:33:26.000Z</time>
      </trkpt>
      <trkpt lat="45.20488" lon="5.59305">
        <ele>1625</ele>
        <time>2022-06-29T14:33:27.000Z</time>
      </trkpt>
      <trkpt lat="45.20477" lon="5.59311">
        <ele>1625</ele>
        <time>2022-06-29T14:33:28.000Z</time>
      </trkpt>
      <trkpt lat="45.20465" lon="5.59317">
        <ele>1625</ele>
        <time>2022-06-29T14:33:29.000Z</time>
      </trkpt>
      <trkpt lat="45.20449" lon="5.59309">
        <ele>1625</ele>
        <time>2022-06-29T14:33:30.000Z</time>
      </trkpt>
      <trkpt lat="45.20428" lon="5.5931">
        <ele>1625</ele>
        <time>2022-06-29T14:33:31.000Z</time>
      </trkpt>
      <trkpt lat="45.20407" lon="5.59312">
        <ele>1625</ele>
        <time>2022-06-29T14:33:32.000Z</time>
      </trkpt>
      <trkpt lat="45.20387" lon="5.59313">
        <ele>1625</ele>
        <time>2022-06-29T14:33:33.000Z</time>
      </trkpt>
      <trkpt lat="45.20371" lon="5.59304">
        <ele>1626</ele>
        <time>2022-06-29T14:33:34.000Z</time>
      </trkpt>
      <trkpt lat="45.20355" lon="5.59296">
        <ele>1630</ele>
        <time>2022-06-29T14:33:35.000Z</time>
      </trkpt>
      <trkpt lat="45.20335" lon="5.5929">
        <ele>1630</ele>
        <time>2022-06-29T14:33:36.000Z</time>
      </trkpt>
      <trkpt lat="45.20316" lon="5.59284">
        <ele>1630</ele>
        <time>2022-06-29T14:33:37.000Z</time>
      </trkpt>
      <trkpt lat="45.20296" lon="5.59278">
        <ele>1630</ele>
        <time>2022-06-29T14:33:38.000Z</time>
      </trkpt>
      <trkpt lat="45.20277" lon="5.59272">
        <ele>1634</ele>
        <time>2022-06-29T14:33:39.000Z</time>
      </trkpt>
      <trkpt lat="45.20257" lon="5.59267">
        <ele>1634</ele>
        <time>2022-06-29T14:33:40.000Z</time>
      </trkpt>
      <trkpt lat="45.20239" lon="5.59259">
        <ele>1634</ele>
        <time>2022-06-29T14:33:41.000Z</time>
      </trkpt>
      <trkpt lat="45.20221" lon="5.59252">
        <ele>1634</ele>
        <time>2022-06-29T14:33:42.000Z</time>
      </trkpt>
      <trkpt lat="45.20203" lon="5.59245">
        <ele>1634</ele>
        <time>2022-06-29T14:33:43.000Z</time>
      </trkpt>
      <trkpt lat="45.20185" lon="5.59241">
        <ele>1634</ele>
        <time>2022-06-29T14:33:44.000Z</time>
      </trkpt>
      <trkpt lat="45.20167" lon="5.59237">
        <ele>1634</ele>
        <time>2022-06-29T14:33:45.000Z</time>
      </trkpt>
      <trkpt lat="45.20148" lon="5.59232">
        <ele>1634</ele>
        <time>2022-06-29T14:33:46.000Z</time>
      </trkpt>
      <trkpt lat="45.2013" lon="5.59228">
        <ele>1634</ele>
        <time>2022-06-29T14:33:47.000Z</time>
      </trkpt>
      <trkpt lat="45.20112" lon="5.59224">
        <ele>1630</ele>
        <time>2022-06-29T14:33:48.000Z</time>
      </trkpt>
      <trkpt lat="45.20093" lon="5.59224">
        <ele>1630</ele>
        <time>2022-06-29T14:33:49.000Z</time>
      </trkpt>
      <trkpt lat="45.20073" lon="5.59223">
        <ele>1630</ele>
        <time>2022-06-29T14:33:50.000Z</time>
      </trkpt>
      <trkpt lat="45.20053" lon="5.59217">
        <ele>1633</ele>
        <time>2022-06-29T14:33:51.000Z</time>
      </trkpt>
      <trkpt lat="45.20032" lon="5.5921">
        <ele>1634</ele>
        <time>2022-06-29T14:33:52.000Z</time>
      </trkpt>
      <trkpt lat="45.20012" lon="5.59203">
        <ele>1634</ele>
        <time>2022-06-29T14:33:53.000Z</time>
      </trkpt>
      <trkpt lat="45.19991" lon="5.59196">
        <ele>1634</ele>
        <time>2022-06-29T14:33:54.000Z</time>
      </trkpt>
      <trkpt lat="45.19974" lon="5.59196">
        <ele>1634</ele>
        <time>2022-06-29T14:33:55.000Z</time>
      </trkpt>
      <trkpt lat="45.19956" lon="5.59196">
        <ele>1631</ele>
        <time>2022-06-29T14:33:56.000Z</time>
      </trkpt>
      <trkpt lat="45.19935" lon="5.59193">
        <ele>1631</ele>
        <time>2022-06-29T14:33:57.000Z</time>
      </trkpt>
      <trkpt lat="45.19914" lon="5.59189">
        <ele>1631</ele>
        <time>2022-06-29T14:33:58.000Z</time>
      </trkpt>
      <trkpt lat="45.19893" lon="5.59185">
        <ele>1631</ele>
        <time>2022-06-29T14:33:59.000Z</time>
      </trkpt>
      <trkpt lat="45.19872" lon="5.59182">
        <ele>1633</ele>
        <time>2022-06-29T14:34:00.000Z</time>
      </trkpt>
      <trkpt lat="45.19857" lon="5.59189">
        <ele>1633</ele>
        <time>2022-06-29T14:34:01.000Z</time>
      </trkpt>
      <trkpt lat="45.19843" lon="5.59197">
        <ele>1633</ele>
        <time>2022-06-29T14:34:02.000Z</time>
      </trkpt>
      <trkpt lat="45.19822" lon="5.59192">
        <ele>1633</ele>
        <time>2022-06-29T14:34:03.000Z</time>
      </trkpt>
      <trkpt lat="45.19801" lon="5.59187">
        <ele>1633</ele>
        <time>2022-06-29T14:34:04.000Z</time>
      </trkpt>
      <trkpt lat="45.19784" lon="5.59191">
        <ele>1638</ele>
        <time>2022-06-29T14:34:05.000Z</time>
      </trkpt>
      <trkpt lat="45.1977" lon="5.59194">
        <ele>1638</ele>
        <time>2022-06-29T14:34:06.000Z</time>
      </trkpt>
      <trkpt lat="45.19766" lon="5.59195">
        <ele>1638</ele>
        <time>2022-06-29T14:34:07.000Z</time>
      </trkpt>
      <trkpt lat="45.19746" lon="5.59191">
        <ele>1638</ele>
        <time>2022-06-29T14:34:08.000Z</time>
      </trkpt>
      <trkpt lat="45.19726" lon="5.59187">
        <ele>1638</ele>
        <time>2022-06-29T14:34:09.000Z</time>
      </trkpt>
      <trkpt lat="45.19706" lon="5.59183">
        <ele>1652</ele>
        <time>2022-06-29T14:34:10.000Z</time>
      </trkpt>
      <trkpt lat="45.19688" lon="5.59174">
        <ele>1652</ele>
        <time>2022-06-29T14:34:11.000Z</time>
      </trkpt>
      <trkpt lat="45.19671" lon="5.59169">
        <ele>1652</ele>
        <time>2022-06-29T14:34:12.000Z</time>
      </trkpt>
      <trkpt lat="45.19654" lon="5.59164">
        <ele>1652</ele>
        <time>2022-06-29T14:34:13.000Z</time>
      </trkpt>
      <trkpt lat="45.19633" lon="5.59169">
        <ele>1652</ele>
        <time>2022-06-29T14:34:14.000Z</time>
      </trkpt>
      <trkpt lat="45.19612" lon="5.59174">
        <ele>1657</ele>
        <time>2022-06-29T14:34:15.000Z</time>
      </trkpt>
      <trkpt lat="45.19591" lon="5.59179">
        <ele>1657</ele>
        <time>2022-06-29T14:34:16.000Z</time>
      </trkpt>
      <trkpt lat="45.19569" lon="5.59184">
        <ele>1657</ele>
        <time>2022-06-29T14:34:17.000Z</time>
      </trkpt>
      <trkpt lat="45.19548" lon="5.59189">
        <ele>1657</ele>
        <time>2022-06-29T14:34:18.000Z</time>
      </trkpt>
      <trkpt lat="45.19527" lon="5.59194">
        <ele>1660</ele>
        <time>2022-06-29T14:34:19.000Z</time>
      </trkpt>
      <trkpt lat="45.19506" lon="5.59198">
        <ele>1660</ele>
        <time>2022-06-29T14:34:20.000Z</time>
      </trkpt>
      <trkpt lat="45.19491" lon="5.59205">
        <ele>1660</ele>
        <time>2022-06-29T14:34:21.000Z</time>
      </trkpt>
      <trkpt lat="45.19476" lon="5.59211">
        <ele>1660</ele>
        <time>2022-06-29T14:34:22.000Z</time>
      </trkpt>
      <trkpt lat="45.19458" lon="5.59222">
        <ele>1655</ele>
        <time>2022-06-29T14:34:23.000Z</time>
      </trkpt>
      <trkpt lat="45.19441" lon="5.59234">
        <ele>1655</ele>
        <time>2022-06-29T14:34:24.000Z</time>
      </trkpt>
      <trkpt lat="45.19421" lon="5.59239">
        <ele>1655</ele>
        <time>2022-06-29T14:34:25.000Z</time>
      </trkpt>
      <trkpt lat="45.19402" lon="5.59245">
        <ele>1655</ele>
        <time>2022-06-29T14:34:26.000Z</time>
      </trkpt>
      <trkpt lat="45.19383" lon="5.59251">
        <ele>1655</ele>
        <time>2022-06-29T14:34:27.000Z</time>
      </trkpt>
      <trkpt lat="45.19363" lon="5.59246">
        <ele>1645</ele>
        <time>2022-06-29T14:34:28.000Z</time>
      </trkpt>
      <trkpt lat="45.19343" lon="5.59242">
        <ele>1645</ele>
        <time>2022-06-29T14:34:29.000Z</time>
      </trkpt>
      <trkpt lat="45.19322" lon="5.59237">
        <ele>1645</ele>
        <time>2022-06-29T14:34:30.000Z</time>
      </trkpt>
      <trkpt lat="45.19302" lon="5.59233">
        <ele>1645</ele>
        <time>2022-06-29T14:34:31.000Z</time>
      </trkpt>
      <trkpt lat="45.19282" lon="5.59228">
        <ele>1641</ele>
        <time>2022-06-29T14:34:32.000Z</time>
      </trkpt>
      <trkpt lat="45.19262" lon="5.59223">
        <ele>1641</ele>
        <time>2022-06-29T14:34:33.000Z</time>
      </trkpt>
      <trkpt lat="45.19251" lon="5.59216">
        <ele>1638</ele>
        <time>2022-06-29T14:34:34.000Z</time>
      </trkpt>
      <trkpt lat="45.1923" lon="5.59211">
        <ele>1638</ele>
        <time>2022-06-29T14:34:35.000Z</time>
      </trkpt>
      <trkpt lat="45.19208" lon="5.59205">
        <ele>1656</ele>
        <time>2022-06-29T14:34:36.000Z</time>
      </trkpt>
      <trkpt lat="45.19187" lon="5.592">
        <ele>1656</ele>
        <time>2022-06-29T14:34:37.000Z</time>
      </trkpt>
      <trkpt lat="45.19166" lon="5.59194">
        <ele>1656</ele>
        <time>2022-06-29T14:34:38.000Z</time>
      </trkpt>
      <trkpt lat="45.19144" lon="5.59189">
        <ele>1656</ele>
        <time>2022-06-29T14:34:39.000Z</time>
      </trkpt>
      <trkpt lat="45.19124" lon="5.59181">
        <ele>1669</ele>
        <time>2022-06-29T14:34:40.000Z</time>
      </trkpt>
      <trkpt lat="45.19104" lon="5.59174">
        <ele>1669</ele>
        <time>2022-06-29T14:34:41.000Z</time>
      </trkpt>
      <trkpt lat="45.19084" lon="5.59166">
        <ele>1669</ele>
        <time>2022-06-29T14:34:42.000Z</time>
      </trkpt>
      <trkpt lat="45.19066" lon="5.59158">
        <ele>1669</ele>
        <time>2022-06-29T14:34:43.000Z</time>
      </trkpt>
      <trkpt lat="45.19049" lon="5.59149">
        <ele>1669</ele>
        <time>2022-06-29T14:34:44.000Z</time>
      </trkpt>
      <trkpt lat="45.19032" lon="5.59144">
        <ele>1673</ele>
        <time>2022-06-29T14:34:45.000Z</time>
      </trkpt>
      <trkpt lat="45.19015" lon="5.59139">
        <ele>1673</ele>
        <time>2022-06-29T14:34:46.000Z</time>
      </trkpt>
      <trkpt lat="45.18998" lon="5.59135">
        <ele>1690</ele>
        <time>2022-06-29T14:34:47.000Z</time>
      </trkpt>
      <trkpt lat="45.18979" lon="5.59137">
        <ele>1673</ele>
        <time>2022-06-29T14:34:48.000Z</time>
      </trkpt>
      <trkpt lat="45.18959" lon="5.59139">
        <ele>1681</ele>
        <time>2022-06-29T14:34:49.000Z</time>
      </trkpt>
      <trkpt lat="45.1894" lon="5.5914">
        <ele>1681</ele>
        <time>2022-06-29T14:34:50.000Z</time>
      </trkpt>
      <trkpt lat="45.18921" lon="5.59142">
        <ele>1681</ele>
        <time>2022-06-29T14:34:51.000Z</time>
      </trkpt>
      <trkpt lat="45.18902" lon="5.59144">
        <ele>1681</ele>
        <time>2022-06-29T14:34:52.000Z</time>
      </trkpt>
      <trkpt lat="45.18884" lon="5.59144">
        <ele>1681</ele>
        <time>2022-06-29T14:34:53.000Z</time>
      </trkpt>
      <trkpt lat="45.18866" lon="5.59144">
        <ele>1685</ele>
        <time>2022-06-29T14:34:54.000Z</time>
      </trkpt>
      <trkpt lat="45.18856" lon="5.59138">
        <ele>1685</ele>
        <time>2022-06-29T14:34:55.000Z</time>
      </trkpt>
      <trkpt lat="45.18837" lon="5.59144">
        <ele>1685</ele>
        <time>2022-06-29T14:34:56.000Z</time>
      </trkpt>
      <trkpt lat="45.18818" lon="5.59151">
        <ele>1685</ele>
        <time>2022-06-29T14:34:57.000Z</time>
      </trkpt>
      <trkpt lat="45.18805" lon="5.59166">
        <ele>1685</ele>
        <time>2022-06-29T14:34:58.000Z</time>
      </trkpt>
      <trkpt lat="45.18792" lon="5.5918">
        <ele>1704</ele>
        <time>2022-06-29T14:34:59.000Z</time>
      </trkpt>
      <trkpt lat="45.18777" lon="5.59188">
        <ele>1704</ele>
        <time>2022-06-29T14:35:00.000Z</time>
      </trkpt>
      <trkpt lat="45.18762" lon="5.59195">
        <ele>1704</ele>
        <time>2022-06-29T14:35:01.000Z</time>
      </trkpt>
      <trkpt lat="45.18747" lon="5.59202">
        <ele>1704</ele>
        <time>2022-06-29T14:35:02.000Z</time>
      </trkpt>
      <trkpt lat="45.18735" lon="5.59216">
        <ele>1704</ele>
        <time>2022-06-29T14:35:03.000Z</time>
      </trkpt>
      <trkpt lat="45.18718" lon="5.59227">
        <ele>1684</ele>
        <time>2022-06-29T14:35:04.000Z</time>
      </trkpt>
      <trkpt lat="45.18705" lon="5.59243">
        <ele>1696</ele>
        <time>2022-06-29T14:35:05.000Z</time>
      </trkpt>
      <trkpt lat="45.18699" lon="5.59255">
        <ele>1696</ele>
        <time>2022-06-29T14:35:06.000Z</time>
      </trkpt>
      <trkpt lat="45.18691" lon="5.59261">
        <ele>1696</ele>
        <time>2022-06-29T14:35:07.000Z</time>
      </trkpt>
      <trkpt lat="45.18678" lon="5.59257">
        <ele>1696</ele>
        <time>2022-06-29T14:35:08.000Z</time>
      </trkpt>
      <trkpt lat="45.18665" lon="5.59252">
        <ele>1696</ele>
        <time>2022-06-29T14:35:09.000Z</time>
      </trkpt>
      <trkpt lat="45.18655" lon="5.59243">
        <ele>1696</ele>
        <time>2022-06-29T14:35:10.000Z</time>
      </trkpt>
      <trkpt lat="45.18645" lon="5.59233">
        <ele>1696</ele>
        <time>2022-06-29T14:35:11.000Z</time>
      </trkpt>
      <trkpt lat="45.18633" lon="5.59218">
        <ele>1715</ele>
        <time>2022-06-29T14:35:12.000Z</time>
      </trkpt>
      <trkpt lat="45.18621" lon="5.59203">
        <ele>1704</ele>
        <time>2022-06-29T14:35:13.000Z</time>
      </trkpt>
      <trkpt lat="45.18609" lon="5.59188">
        <ele>1704</ele>
        <time>2022-06-29T14:35:14.000Z</time>
      </trkpt>
      <trkpt lat="45.18604" lon="5.59173">
        <ele>1704</ele>
        <time>2022-06-29T14:35:15.000Z</time>
      </trkpt>
      <trkpt lat="45.18593" lon="5.59169">
        <ele>1704</ele>
        <time>2022-06-29T14:35:16.000Z</time>
      </trkpt>
      <trkpt lat="45.18581" lon="5.59165">
        <ele>1704</ele>
        <time>2022-06-29T14:35:17.000Z</time>
      </trkpt>
      <trkpt lat="45.1857" lon="5.59148">
        <ele>1704</ele>
        <time>2022-06-29T14:35:18.000Z</time>
      </trkpt>
      <trkpt lat="45.1857" lon="5.59132">
        <ele>1715</ele>
        <time>2022-06-29T14:35:19.000Z</time>
      </trkpt>
      <trkpt lat="45.18553" lon="5.59112">
        <ele>1715</ele>
        <time>2022-06-29T14:35:20.000Z</time>
      </trkpt>
      <trkpt lat="45.18548" lon="5.59096">
        <ele>1715</ele>
        <time>2022-06-29T14:35:21.000Z</time>
      </trkpt>
      <trkpt lat="45.18531" lon="5.5908">
        <ele>1689</ele>
        <time>2022-06-29T14:35:22.000Z</time>
      </trkpt>
      <trkpt lat="45.18513" lon="5.59063">
        <ele>1689</ele>
        <time>2022-06-29T14:35:23.000Z</time>
      </trkpt>
      <trkpt lat="45.18506" lon="5.59047">
        <ele>1702</ele>
        <time>2022-06-29T14:35:24.000Z</time>
      </trkpt>
      <trkpt lat="45.18491" lon="5.59039">
        <ele>1702</ele>
        <time>2022-06-29T14:35:25.000Z</time>
      </trkpt>
      <trkpt lat="45.18486" lon="5.5903">
        <ele>1702</ele>
        <time>2022-06-29T14:35:26.000Z</time>
      </trkpt>
      <trkpt lat="45.18483" lon="5.59014">
        <ele>1702</ele>
        <time>2022-06-29T14:35:27.000Z</time>
      </trkpt>
      <trkpt lat="45.18479" lon="5.58998">
        <ele>1702</ele>
        <time>2022-06-29T14:35:28.000Z</time>
      </trkpt>
      <trkpt lat="45.18474" lon="5.58989">
        <ele>1702</ele>
        <time>2022-06-29T14:35:29.000Z</time>
      </trkpt>
      <trkpt lat="45.18457" lon="5.58971">
        <ele>1669</ele>
        <time>2022-06-29T14:35:30.000Z</time>
      </trkpt>
      <trkpt lat="45.1844" lon="5.58954">
        <ele>1686</ele>
        <time>2022-06-29T14:35:31.000Z</time>
      </trkpt>
      <trkpt lat="45.18425" lon="5.58933">
        <ele>1686</ele>
        <time>2022-06-29T14:35:32.000Z</time>
      </trkpt>
      <trkpt lat="45.18405" lon="5.58923">
        <ele>1686</ele>
        <time>2022-06-29T14:35:33.000Z</time>
      </trkpt>
      <trkpt lat="45.18392" lon="5.58901">
        <ele>1686</ele>
        <time>2022-06-29T14:35:34.000Z</time>
      </trkpt>
      <trkpt lat="45.18378" lon="5.58879">
        <ele>1676</ele>
        <time>2022-06-29T14:35:35.000Z</time>
      </trkpt>
      <trkpt lat="45.18365" lon="5.58864">
        <ele>1676</ele>
        <time>2022-06-29T14:35:36.000Z</time>
      </trkpt>
      <trkpt lat="45.18352" lon="5.58849">
        <ele>1676</ele>
        <time>2022-06-29T14:35:37.000Z</time>
      </trkpt>
      <trkpt lat="45.18347" lon="5.58838">
        <ele>1676</ele>
        <time>2022-06-29T14:35:38.000Z</time>
      </trkpt>
      <trkpt lat="45.18338" lon="5.58826">
        <ele>1676</ele>
        <time>2022-06-29T14:35:39.000Z</time>
      </trkpt>
      <trkpt lat="45.18328" lon="5.58815">
        <ele>1676</ele>
        <time>2022-06-29T14:35:40.000Z</time>
      </trkpt>
      <trkpt lat="45.18317" lon="5.58809">
        <ele>1676</ele>
        <time>2022-06-29T14:35:41.000Z</time>
      </trkpt>
      <trkpt lat="45.183" lon="5.58803">
        <ele>1676</ele>
        <time>2022-06-29T14:35:42.000Z</time>
      </trkpt>
      <trkpt lat="45.18283" lon="5.58798">
        <ele>1668</ele>
        <time>2022-06-29T14:35:43.000Z</time>
      </trkpt>
      <trkpt lat="45.18266" lon="5.58792">
        <ele>1668</ele>
        <time>2022-06-29T14:35:44.000Z</time>
      </trkpt>
      <trkpt lat="45.18253" lon="5.58775">
        <ele>1668</ele>
        <time>2022-06-29T14:35:45.000Z</time>
      </trkpt>
      <trkpt lat="45.1824" lon="5.58758">
        <ele>1668</ele>
        <time>2022-06-29T14:35:46.000Z</time>
      </trkpt>
      <trkpt lat="45.18221" lon="5.58749">
        <ele>1668</ele>
        <time>2022-06-29T14:35:47.000Z</time>
      </trkpt>
      <trkpt lat="45.18201" lon="5.58739">
        <ele>1652</ele>
        <time>2022-06-29T14:35:48.000Z</time>
      </trkpt>
      <trkpt lat="45.18183" lon="5.58725">
        <ele>1652</ele>
        <time>2022-06-29T14:35:49.000Z</time>
      </trkpt>
      <trkpt lat="45.18164" lon="5.5871">
        <ele>1662</ele>
        <time>2022-06-29T14:35:50.000Z</time>
      </trkpt>
      <trkpt lat="45.18157" lon="5.58709">
        <ele>1662</ele>
        <time>2022-06-29T14:35:51.000Z</time>
      </trkpt>
      <trkpt lat="45.18143" lon="5.58699">
        <ele>1662</ele>
        <time>2022-06-29T14:35:52.000Z</time>
      </trkpt>
      <trkpt lat="45.18129" lon="5.58689">
        <ele>1662</ele>
        <time>2022-06-29T14:35:53.000Z</time>
      </trkpt>
      <trkpt lat="45.1811" lon="5.58681">
        <ele>1666</ele>
        <time>2022-06-29T14:35:54.000Z</time>
      </trkpt>
      <trkpt lat="45.1809" lon="5.58673">
        <ele>1666</ele>
        <time>2022-06-29T14:35:55.000Z</time>
      </trkpt>
      <trkpt lat="45.18071" lon="5.58665">
        <ele>1666</ele>
        <time>2022-06-29T14:35:56.000Z</time>
      </trkpt>
      <trkpt lat="45.18052" lon="5.58657">
        <ele>1666</ele>
        <time>2022-06-29T14:35:57.000Z</time>
      </trkpt>
      <trkpt lat="45.18032" lon="5.58649">
        <ele>1648</ele>
        <time>2022-06-29T14:35:58.000Z</time>
      </trkpt>
      <trkpt lat="45.18015" lon="5.58636">
        <ele>1648</ele>
        <time>2022-06-29T14:35:59.000Z</time>
      </trkpt>
      <trkpt lat="45.17998" lon="5.58623">
        <ele>1657</ele>
        <time>2022-06-29T14:36:00.000Z</time>
      </trkpt>
      <trkpt lat="45.1798" lon="5.58609">
        <ele>1657</ele>
        <time>2022-06-29T14:36:01.000Z</time>
      </trkpt>
      <trkpt lat="45.17962" lon="5.58602">
        <ele>1657</ele>
        <time>2022-06-29T14:36:02.000Z</time>
      </trkpt>
      <trkpt lat="45.17948" lon="5.58601">
        <ele>1659</ele>
        <time>2022-06-29T14:36:03.000Z</time>
      </trkpt>
      <trkpt lat="45.17934" lon="5.586">
        <ele>1659</ele>
        <time>2022-06-29T14:36:04.000Z</time>
      </trkpt>
      <trkpt lat="45.17916" lon="5.5859">
        <ele>1659</ele>
        <time>2022-06-29T14:36:05.000Z</time>
      </trkpt>
      <trkpt lat="45.17897" lon="5.58595">
        <ele>1659</ele>
        <time>2022-06-29T14:36:06.000Z</time>
      </trkpt>
      <trkpt lat="45.17877" lon="5.586">
        <ele>1669</ele>
        <time>2022-06-29T14:36:07.000Z</time>
      </trkpt>
      <trkpt lat="45.17864" lon="5.586">
        <ele>1669</ele>
        <time>2022-06-29T14:36:08.000Z</time>
      </trkpt>
      <trkpt lat="45.1785" lon="5.58601">
        <ele>1669</ele>
        <time>2022-06-29T14:36:09.000Z</time>
      </trkpt>
      <trkpt lat="45.17829" lon="5.5861">
        <ele>1669</ele>
        <time>2022-06-29T14:36:10.000Z</time>
      </trkpt>
      <trkpt lat="45.17809" lon="5.58619">
        <ele>1669</ele>
        <time>2022-06-29T14:36:11.000Z</time>
      </trkpt>
      <trkpt lat="45.17788" lon="5.58628">
        <ele>1674</ele>
        <time>2022-06-29T14:36:12.000Z</time>
      </trkpt>
      <trkpt lat="45.17767" lon="5.58631">
        <ele>1674</ele>
        <time>2022-06-29T14:36:13.000Z</time>
      </trkpt>
      <trkpt lat="45.17746" lon="5.58634">
        <ele>1674</ele>
        <time>2022-06-29T14:36:14.000Z</time>
      </trkpt>
      <trkpt lat="45.17725" lon="5.58637">
        <ele>1658</ele>
        <time>2022-06-29T14:36:15.000Z</time>
      </trkpt>
      <trkpt lat="45.17707" lon="5.58637">
        <ele>1668</ele>
        <time>2022-06-29T14:36:16.000Z</time>
      </trkpt>
      <trkpt lat="45.1769" lon="5.58638">
        <ele>1668</ele>
        <time>2022-06-29T14:36:17.000Z</time>
      </trkpt>
      <trkpt lat="45.17674" lon="5.58636">
        <ele>1668</ele>
        <time>2022-06-29T14:36:18.000Z</time>
      </trkpt>
      <trkpt lat="45.17658" lon="5.58633">
        <ele>1683</ele>
        <time>2022-06-29T14:36:19.000Z</time>
      </trkpt>
      <trkpt lat="45.17639" lon="5.58625">
        <ele>1683</ele>
        <time>2022-06-29T14:36:20.000Z</time>
      </trkpt>
      <trkpt lat="45.1762" lon="5.58617">
        <ele>1686</ele>
        <time>2022-06-29T14:36:21.000Z</time>
      </trkpt>
      <trkpt lat="45.176" lon="5.58609">
        <ele>1686</ele>
        <time>2022-06-29T14:36:22.000Z</time>
      </trkpt>
      <trkpt lat="45.17581" lon="5.58596">
        <ele>1686</ele>
        <time>2022-06-29T14:36:23.000Z</time>
      </trkpt>
      <trkpt lat="45.17562" lon="5.58583">
        <ele>1686</ele>
        <time>2022-06-29T14:36:24.000Z</time>
      </trkpt>
      <trkpt lat="45.17545" lon="5.58576">
        <ele>1686</ele>
        <time>2022-06-29T14:36:25.000Z</time>
      </trkpt>
      <trkpt lat="45.17528" lon="5.58569">
        <ele>1671</ele>
        <time>2022-06-29T14:36:26.000Z</time>
      </trkpt>
      <trkpt lat="45.17511" lon="5.58558">
        <ele>1671</ele>
        <time>2022-06-29T14:36:27.000Z</time>
      </trkpt>
      <trkpt lat="45.17493" lon="5.58547">
        <ele>1685</ele>
        <time>2022-06-29T14:36:28.000Z</time>
      </trkpt>
      <trkpt lat="45.17476" lon="5.5854">
        <ele>1685</ele>
        <time>2022-06-29T14:36:29.000Z</time>
      </trkpt>
      <trkpt lat="45.17459" lon="5.58534">
        <ele>1675</ele>
        <time>2022-06-29T14:36:30.000Z</time>
      </trkpt>
      <trkpt lat="45.17441" lon="5.58528">
        <ele>1675</ele>
        <time>2022-06-29T14:36:31.000Z</time>
      </trkpt>
      <trkpt lat="45.17425" lon="5.58515">
        <ele>1675</ele>
        <time>2022-06-29T14:36:32.000Z</time>
      </trkpt>
      <trkpt lat="45.17409" lon="5.58502">
        <ele>1675</ele>
        <time>2022-06-29T14:36:33.000Z</time>
      </trkpt>
      <trkpt lat="45.17393" lon="5.58489">
        <ele>1675</ele>
        <time>2022-06-29T14:36:34.000Z</time>
      </trkpt>
      <trkpt lat="45.17377" lon="5.58476">
        <ele>1644</ele>
        <time>2022-06-29T14:36:35.000Z</time>
      </trkpt>
      <trkpt lat="45.17363" lon="5.5846">
        <ele>1662</ele>
        <time>2022-06-29T14:36:36.000Z</time>
      </trkpt>
      <trkpt lat="45.17349" lon="5.58443">
        <ele>1662</ele>
        <time>2022-06-29T14:36:37.000Z</time>
      </trkpt>
      <trkpt lat="45.17335" lon="5.58427">
        <ele>1662</ele>
        <time>2022-06-29T14:36:38.000Z</time>
      </trkpt>
      <trkpt lat="45.17319" lon="5.58419">
        <ele>1662</ele>
        <time>2022-06-29T14:36:39.000Z</time>
      </trkpt>
      <trkpt lat="45.17302" lon="5.58411">
        <ele>1662</ele>
        <time>2022-06-29T14:36:40.000Z</time>
      </trkpt>
      <trkpt lat="45.17286" lon="5.58403">
        <ele>1643</ele>
        <time>2022-06-29T14:36:41.000Z</time>
      </trkpt>
      <trkpt lat="45.17269" lon="5.58396">
        <ele>1643</ele>
        <time>2022-06-29T14:36:42.000Z</time>
      </trkpt>
      <trkpt lat="45.17258" lon="5.58399">
        <ele>1643</ele>
        <time>2022-06-29T14:36:43.000Z</time>
      </trkpt>
      <trkpt lat="45.1725" lon="5.58392">
        <ele>1643</ele>
        <time>2022-06-29T14:36:44.000Z</time>
      </trkpt>
      <trkpt lat="45.17228" lon="5.58385">
        <ele>1643</ele>
        <time>2022-06-29T14:36:45.000Z</time>
      </trkpt>
      <trkpt lat="45.17215" lon="5.58386">
        <ele>1643</ele>
        <time>2022-06-29T14:36:46.000Z</time>
      </trkpt>
      <trkpt lat="45.17203" lon="5.58388">
        <ele>1625</ele>
        <time>2022-06-29T14:36:47.000Z</time>
      </trkpt>
      <trkpt lat="45.17192" lon="5.58394">
        <ele>1625</ele>
        <time>2022-06-29T14:36:48.000Z</time>
      </trkpt>
      <trkpt lat="45.17179" lon="5.58395">
        <ele>1625</ele>
        <time>2022-06-29T14:36:49.000Z</time>
      </trkpt>
      <trkpt lat="45.17165" lon="5.58396">
        <ele>1625</ele>
        <time>2022-06-29T14:36:50.000Z</time>
      </trkpt>
      <trkpt lat="45.17155" lon="5.58388">
        <ele>1625</ele>
        <time>2022-06-29T14:36:51.000Z</time>
      </trkpt>
      <trkpt lat="45.17144" lon="5.58381">
        <ele>1625</ele>
        <time>2022-06-29T14:36:52.000Z</time>
      </trkpt>
      <trkpt lat="45.17129" lon="5.58376">
        <ele>1625</ele>
        <time>2022-06-29T14:36:53.000Z</time>
      </trkpt>
      <trkpt lat="45.17113" lon="5.58372">
        <ele>1635</ele>
        <time>2022-06-29T14:36:54.000Z</time>
      </trkpt>
      <trkpt lat="45.17097" lon="5.58368">
        <ele>1635</ele>
        <time>2022-06-29T14:36:55.000Z</time>
      </trkpt>
      <trkpt lat="45.17079" lon="5.58362">
        <ele>1635</ele>
        <time>2022-06-29T14:36:56.000Z</time>
      </trkpt>
      <trkpt lat="45.1706" lon="5.58356">
        <ele>1635</ele>
        <time>2022-06-29T14:36:57.000Z</time>
      </trkpt>
      <trkpt lat="45.17042" lon="5.58351">
        <ele>1651</ele>
        <time>2022-06-29T14:36:58.000Z</time>
      </trkpt>
      <trkpt lat="45.17023" lon="5.58354">
        <ele>1651</ele>
        <time>2022-06-29T14:36:59.000Z</time>
      </trkpt>
      <trkpt lat="45.17004" lon="5.58357">
        <ele>1651</ele>
        <time>2022-06-29T14:37:00.000Z</time>
      </trkpt>
      <trkpt lat="45.16992" lon="5.58365">
        <ele>1651</ele>
        <time>2022-06-29T14:37:01.000Z</time>
      </trkpt>
      <trkpt lat="45.1698" lon="5.58374">
        <ele>1651</ele>
        <time>2022-06-29T14:37:02.000Z</time>
      </trkpt>
      <trkpt lat="45.16963" lon="5.58374">
        <ele>1651</ele>
        <time>2022-06-29T14:37:03.000Z</time>
      </trkpt>
      <trkpt lat="45.16946" lon="5.58373">
        <ele>1655</ele>
        <time>2022-06-29T14:37:04.000Z</time>
      </trkpt>
      <trkpt lat="45.16927" lon="5.58367">
        <ele>1655</ele>
        <time>2022-06-29T14:37:05.000Z</time>
      </trkpt>
      <trkpt lat="45.16908" lon="5.58361">
        <ele>1655</ele>
        <time>2022-06-29T14:37:06.000Z</time>
      </trkpt>
      <trkpt lat="45.16889" lon="5.58354">
        <ele>1655</ele>
        <time>2022-06-29T14:37:07.000Z</time>
      </trkpt>
      <trkpt lat="45.1687" lon="5.58348">
        <ele>1649</ele>
        <time>2022-06-29T14:37:08.000Z</time>
      </trkpt>
      <trkpt lat="45.16852" lon="5.58342">
        <ele>1649</ele>
        <time>2022-06-29T14:37:09.000Z</time>
      </trkpt>
      <trkpt lat="45.16833" lon="5.58336">
        <ele>1649</ele>
        <time>2022-06-29T14:37:10.000Z</time>
      </trkpt>
      <trkpt lat="45.1682" lon="5.58337">
        <ele>1649</ele>
        <time>2022-06-29T14:37:11.000Z</time>
      </trkpt>
      <trkpt lat="45.16807" lon="5.58339">
        <ele>1649</ele>
        <time>2022-06-29T14:37:12.000Z</time>
      </trkpt>
      <trkpt lat="45.16787" lon="5.58331">
        <ele>1641</ele>
        <time>2022-06-29T14:37:13.000Z</time>
      </trkpt>
      <trkpt lat="45.16767" lon="5.58323">
        <ele>1641</ele>
        <time>2022-06-29T14:37:14.000Z</time>
      </trkpt>
      <trkpt lat="45.16748" lon="5.5832">
        <ele>1641</ele>
        <time>2022-06-29T14:37:15.000Z</time>
      </trkpt>
      <trkpt lat="45.16729" lon="5.58316">
        <ele>1641</ele>
        <time>2022-06-29T14:37:16.000Z</time>
      </trkpt>
      <trkpt lat="45.16709" lon="5.58313">
        <ele>1641</ele>
        <time>2022-06-29T14:37:17.000Z</time>
      </trkpt>
      <trkpt lat="45.1669" lon="5.5831">
        <ele>1641</ele>
        <time>2022-06-29T14:37:18.000Z</time>
      </trkpt>
      <trkpt lat="45.1667" lon="5.58304">
        <ele>1641</ele>
        <time>2022-06-29T14:37:19.000Z</time>
      </trkpt>
      <trkpt lat="45.16649" lon="5.58298">
        <ele>1641</ele>
        <time>2022-06-29T14:37:20.000Z</time>
      </trkpt>
      <trkpt lat="45.16629" lon="5.58292">
        <ele>1641</ele>
        <time>2022-06-29T14:37:21.000Z</time>
      </trkpt>
      <trkpt lat="45.16609" lon="5.58286">
        <ele>1653</ele>
        <time>2022-06-29T14:37:22.000Z</time>
      </trkpt>
      <trkpt lat="45.16588" lon="5.5828">
        <ele>1653</ele>
        <time>2022-06-29T14:37:23.000Z</time>
      </trkpt>
      <trkpt lat="45.16572" lon="5.58278">
        <ele>1653</ele>
        <time>2022-06-29T14:37:24.000Z</time>
      </trkpt>
      <trkpt lat="45.16556" lon="5.58275">
        <ele>1653</ele>
        <time>2022-06-29T14:37:25.000Z</time>
      </trkpt>
      <trkpt lat="45.16538" lon="5.58263">
        <ele>1648</ele>
        <time>2022-06-29T14:37:26.000Z</time>
      </trkpt>
      <trkpt lat="45.16521" lon="5.58256">
        <ele>1648</ele>
        <time>2022-06-29T14:37:27.000Z</time>
      </trkpt>
      <trkpt lat="45.16503" lon="5.58249">
        <ele>1648</ele>
        <time>2022-06-29T14:37:28.000Z</time>
      </trkpt>
      <trkpt lat="45.16485" lon="5.58242">
        <ele>1648</ele>
        <time>2022-06-29T14:37:29.000Z</time>
      </trkpt>
      <trkpt lat="45.16473" lon="5.58234">
        <ele>1648</ele>
        <time>2022-06-29T14:37:30.000Z</time>
      </trkpt>
      <trkpt lat="45.16461" lon="5.58226">
        <ele>1637</ele>
        <time>2022-06-29T14:37:31.000Z</time>
      </trkpt>
      <trkpt lat="45.16448" lon="5.58214">
        <ele>1650</ele>
        <time>2022-06-29T14:37:32.000Z</time>
      </trkpt>
      <trkpt lat="45.16435" lon="5.58202">
        <ele>1650</ele>
        <time>2022-06-29T14:37:33.000Z</time>
      </trkpt>
      <trkpt lat="45.16421" lon="5.5819">
        <ele>1650</ele>
        <time>2022-06-29T14:37:34.000Z</time>
      </trkpt>
      <trkpt lat="45.16409" lon="5.58171">
        <ele>1650</ele>
        <time>2022-06-29T14:37:35.000Z</time>
      </trkpt>
      <trkpt lat="45.16396" lon="5.58151">
        <ele>1650</ele>
        <time>2022-06-29T14:37:36.000Z</time>
      </trkpt>
      <trkpt lat="45.16383" lon="5.58132">
        <ele>1640</ele>
        <time>2022-06-29T14:37:37.000Z</time>
      </trkpt>
      <trkpt lat="45.16374" lon="5.58105">
        <ele>1659</ele>
        <time>2022-06-29T14:37:38.000Z</time>
      </trkpt>
      <trkpt lat="45.16356" lon="5.58095">
        <ele>1659</ele>
        <time>2022-06-29T14:37:39.000Z</time>
      </trkpt>
      <trkpt lat="45.16338" lon="5.58085">
        <ele>1659</ele>
        <time>2022-06-29T14:37:40.000Z</time>
      </trkpt>
      <trkpt lat="45.16321" lon="5.58074">
        <ele>1659</ele>
        <time>2022-06-29T14:37:41.000Z</time>
      </trkpt>
      <trkpt lat="45.16303" lon="5.58064">
        <ele>1659</ele>
        <time>2022-06-29T14:37:42.000Z</time>
      </trkpt>
      <trkpt lat="45.16291" lon="5.58059">
        <ele>1658</ele>
        <time>2022-06-29T14:37:43.000Z</time>
      </trkpt>
      <trkpt lat="45.16278" lon="5.58055">
        <ele>1658</ele>
        <time>2022-06-29T14:37:44.000Z</time>
      </trkpt>
      <trkpt lat="45.16257" lon="5.58051">
        <ele>1662</ele>
        <time>2022-06-29T14:37:45.000Z</time>
      </trkpt>
      <trkpt lat="45.16235" lon="5.58055">
        <ele>1658</ele>
        <time>2022-06-29T14:37:46.000Z</time>
      </trkpt>
      <trkpt lat="45.16221" lon="5.58052">
        <ele>1658</ele>
        <time>2022-06-29T14:37:47.000Z</time>
      </trkpt>
      <trkpt lat="45.16207" lon="5.58048">
        <ele>1661</ele>
        <time>2022-06-29T14:37:48.000Z</time>
      </trkpt>
      <trkpt lat="45.16189" lon="5.5804">
        <ele>1661</ele>
        <time>2022-06-29T14:37:49.000Z</time>
      </trkpt>
      <trkpt lat="45.16171" lon="5.58032">
        <ele>1661</ele>
        <time>2022-06-29T14:37:50.000Z</time>
      </trkpt>
      <trkpt lat="45.16151" lon="5.58035">
        <ele>1661</ele>
        <time>2022-06-29T14:37:51.000Z</time>
      </trkpt>
      <trkpt lat="45.16131" lon="5.58031">
        <ele>1661</ele>
        <time>2022-06-29T14:37:52.000Z</time>
      </trkpt>
      <trkpt lat="45.16111" lon="5.58028">
        <ele>1658</ele>
        <time>2022-06-29T14:37:53.000Z</time>
      </trkpt>
      <trkpt lat="45.16091" lon="5.58024">
        <ele>1658</ele>
        <time>2022-06-29T14:37:54.000Z</time>
      </trkpt>
      <trkpt lat="45.16071" lon="5.58025">
        <ele>1658</ele>
        <time>2022-06-29T14:37:55.000Z</time>
      </trkpt>
      <trkpt lat="45.1605" lon="5.58026">
        <ele>1658</ele>
        <time>2022-06-29T14:37:56.000Z</time>
      </trkpt>
      <trkpt lat="45.16029" lon="5.58027">
        <ele>1655</ele>
        <time>2022-06-29T14:37:57.000Z</time>
      </trkpt>
      <trkpt lat="45.16018" lon="5.58024">
        <ele>1655</ele>
        <time>2022-06-29T14:37:58.000Z</time>
      </trkpt>
      <trkpt lat="45.16007" lon="5.5802">
        <ele>1655</ele>
        <time>2022-06-29T14:37:59.000Z</time>
      </trkpt>
      <trkpt lat="45.15987" lon="5.58011">
        <ele>1655</ele>
        <time>2022-06-29T14:38:00.000Z</time>
      </trkpt>
      <trkpt lat="45.15968" lon="5.58001">
        <ele>1655</ele>
        <time>2022-06-29T14:38:01.000Z</time>
      </trkpt>
      <trkpt lat="45.1595" lon="5.57995">
        <ele>1650</ele>
        <time>2022-06-29T14:38:02.000Z</time>
      </trkpt>
      <trkpt lat="45.15932" lon="5.5799">
        <ele>1650</ele>
        <time>2022-06-29T14:38:03.000Z</time>
      </trkpt>
      <trkpt lat="45.15915" lon="5.57972">
        <ele>1650</ele>
        <time>2022-06-29T14:38:04.000Z</time>
      </trkpt>
      <trkpt lat="45.15897" lon="5.57954">
        <ele>1653</ele>
        <time>2022-06-29T14:38:05.000Z</time>
      </trkpt>
      <trkpt lat="45.1588" lon="5.57936">
        <ele>1653</ele>
        <time>2022-06-29T14:38:06.000Z</time>
      </trkpt>
      <trkpt lat="45.15863" lon="5.57925">
        <ele>1651</ele>
        <time>2022-06-29T14:38:07.000Z</time>
      </trkpt>
      <trkpt lat="45.15846" lon="5.57914">
        <ele>1651</ele>
        <time>2022-06-29T14:38:08.000Z</time>
      </trkpt>
      <trkpt lat="45.15829" lon="5.57903">
        <ele>1651</ele>
        <time>2022-06-29T14:38:09.000Z</time>
      </trkpt>
      <trkpt lat="45.15814" lon="5.57897">
        <ele>1651</ele>
        <time>2022-06-29T14:38:10.000Z</time>
      </trkpt>
      <trkpt lat="45.15798" lon="5.57891">
        <ele>1651</ele>
        <time>2022-06-29T14:38:11.000Z</time>
      </trkpt>
      <trkpt lat="45.15781" lon="5.5788">
        <ele>1643</ele>
        <time>2022-06-29T14:38:12.000Z</time>
      </trkpt>
      <trkpt lat="45.15765" lon="5.5787">
        <ele>1643</ele>
        <time>2022-06-29T14:38:13.000Z</time>
      </trkpt>
      <trkpt lat="45.15748" lon="5.5786">
        <ele>1643</ele>
        <time>2022-06-29T14:38:14.000Z</time>
      </trkpt>
      <trkpt lat="45.15732" lon="5.57865">
        <ele>1643</ele>
        <time>2022-06-29T14:38:15.000Z</time>
      </trkpt>
      <trkpt lat="45.15716" lon="5.5787">
        <ele>1643</ele>
        <time>2022-06-29T14:38:16.000Z</time>
      </trkpt>
      <trkpt lat="45.157" lon="5.57875">
        <ele>1640</ele>
        <time>2022-06-29T14:38:17.000Z</time>
      </trkpt>
      <trkpt lat="45.15687" lon="5.57875">
        <ele>1640</ele>
        <time>2022-06-29T14:38:18.000Z</time>
      </trkpt>
      <trkpt lat="45.15674" lon="5.57875">
        <ele>1640</ele>
        <time>2022-06-29T14:38:19.000Z</time>
      </trkpt>
      <trkpt lat="45.15655" lon="5.57868">
        <ele>1640</ele>
        <time>2022-06-29T14:38:20.000Z</time>
      </trkpt>
      <trkpt lat="45.15641" lon="5.5787">
        <ele>1640</ele>
        <time>2022-06-29T14:38:21.000Z</time>
      </trkpt>
      <trkpt lat="45.15628" lon="5.57871">
        <ele>1640</ele>
        <time>2022-06-29T14:38:22.000Z</time>
      </trkpt>
      <trkpt lat="45.1561" lon="5.57859">
        <ele>1631</ele>
        <time>2022-06-29T14:38:23.000Z</time>
      </trkpt>
      <trkpt lat="45.15591" lon="5.57847">
        <ele>1631</ele>
        <time>2022-06-29T14:38:24.000Z</time>
      </trkpt>
      <trkpt lat="45.15573" lon="5.57836">
        <ele>1631</ele>
        <time>2022-06-29T14:38:25.000Z</time>
      </trkpt>
      <trkpt lat="45.15558" lon="5.57831">
        <ele>1631</ele>
        <time>2022-06-29T14:38:26.000Z</time>
      </trkpt>
      <trkpt lat="45.15546" lon="5.57829">
        <ele>1631</ele>
        <time>2022-06-29T14:38:27.000Z</time>
      </trkpt>
      <trkpt lat="45.15534" lon="5.57826">
        <ele>1633</ele>
        <time>2022-06-29T14:38:28.000Z</time>
      </trkpt>
      <trkpt lat="45.15521" lon="5.57815">
        <ele>1633</ele>
        <time>2022-06-29T14:38:29.000Z</time>
      </trkpt>
      <trkpt lat="45.15508" lon="5.57803">
        <ele>1633</ele>
        <time>2022-06-29T14:38:30.000Z</time>
      </trkpt>
      <trkpt lat="45.15495" lon="5.57792">
        <ele>1630</ele>
        <time>2022-06-29T14:38:31.000Z</time>
      </trkpt>
      <trkpt lat="45.15483" lon="5.57787">
        <ele>1630</ele>
        <time>2022-06-29T14:38:32.000Z</time>
      </trkpt>
      <trkpt lat="45.15472" lon="5.57782">
        <ele>1630</ele>
        <time>2022-06-29T14:38:33.000Z</time>
      </trkpt>
      <trkpt lat="45.1546" lon="5.57781">
        <ele>1631</ele>
        <time>2022-06-29T14:38:34.000Z</time>
      </trkpt>
      <trkpt lat="45.15447" lon="5.5778">
        <ele>1631</ele>
        <time>2022-06-29T14:38:35.000Z</time>
      </trkpt>
      <trkpt lat="45.15432" lon="5.57784">
        <ele>1631</ele>
        <time>2022-06-29T14:38:36.000Z</time>
      </trkpt>
      <trkpt lat="45.15417" lon="5.57788">
        <ele>1631</ele>
        <time>2022-06-29T14:38:37.000Z</time>
      </trkpt>
      <trkpt lat="45.15402" lon="5.57792">
        <ele>1631</ele>
        <time>2022-06-29T14:38:38.000Z</time>
      </trkpt>
      <trkpt lat="45.15388" lon="5.5779">
        <ele>1631</ele>
        <time>2022-06-29T14:38:39.000Z</time>
      </trkpt>
      <trkpt lat="45.15374" lon="5.57788">
        <ele>1623</ele>
        <time>2022-06-29T14:38:40.000Z</time>
      </trkpt>
      <trkpt lat="45.15353" lon="5.57779">
        <ele>1623</ele>
        <time>2022-06-29T14:38:41.000Z</time>
      </trkpt>
      <trkpt lat="45.15332" lon="5.5777">
        <ele>1623</ele>
        <time>2022-06-29T14:38:42.000Z</time>
      </trkpt>
      <trkpt lat="45.15311" lon="5.57762">
        <ele>1623</ele>
        <time>2022-06-29T14:38:43.000Z</time>
      </trkpt>
      <trkpt lat="45.15296" lon="5.57759">
        <ele>1623</ele>
        <time>2022-06-29T14:38:44.000Z</time>
      </trkpt>
      <trkpt lat="45.15281" lon="5.57756">
        <ele>1615</ele>
        <time>2022-06-29T14:38:45.000Z</time>
      </trkpt>
      <trkpt lat="45.15264" lon="5.57747">
        <ele>1615</ele>
        <time>2022-06-29T14:38:46.000Z</time>
      </trkpt>
      <trkpt lat="45.15247" lon="5.57741">
        <ele>1615</ele>
        <time>2022-06-29T14:38:47.000Z</time>
      </trkpt>
      <trkpt lat="45.15229" lon="5.57736">
        <ele>1615</ele>
        <time>2022-06-29T14:38:48.000Z</time>
      </trkpt>
      <trkpt lat="45.1521" lon="5.57727">
        <ele>1601</ele>
        <time>2022-06-29T14:38:49.000Z</time>
      </trkpt>
      <trkpt lat="45.15191" lon="5.57718">
        <ele>1601</ele>
        <time>2022-06-29T14:38:50.000Z</time>
      </trkpt>
      <trkpt lat="45.15176" lon="5.57708">
        <ele>1601</ele>
        <time>2022-06-29T14:38:51.000Z</time>
      </trkpt>
      <trkpt lat="45.15161" lon="5.57698">
        <ele>1601</ele>
        <time>2022-06-29T14:38:52.000Z</time>
      </trkpt>
      <trkpt lat="45.15145" lon="5.5769">
        <ele>1601</ele>
        <time>2022-06-29T14:38:53.000Z</time>
      </trkpt>
      <trkpt lat="45.15129" lon="5.57683">
        <ele>1601</ele>
        <time>2022-06-29T14:38:54.000Z</time>
      </trkpt>
      <trkpt lat="45.15113" lon="5.57676">
        <ele>1586</ele>
        <time>2022-06-29T14:38:55.000Z</time>
      </trkpt>
      <trkpt lat="45.15093" lon="5.57676">
        <ele>1586</ele>
        <time>2022-06-29T14:38:56.000Z</time>
      </trkpt>
      <trkpt lat="45.15073" lon="5.57676">
        <ele>1586</ele>
        <time>2022-06-29T14:38:57.000Z</time>
      </trkpt>
      <trkpt lat="45.15059" lon="5.57682">
        <ele>1586</ele>
        <time>2022-06-29T14:38:58.000Z</time>
      </trkpt>
      <trkpt lat="45.15045" lon="5.57688">
        <ele>1586</ele>
        <time>2022-06-29T14:38:59.000Z</time>
      </trkpt>
      <trkpt lat="45.15032" lon="5.57684">
        <ele>1580</ele>
        <time>2022-06-29T14:39:00.000Z</time>
      </trkpt>
      <trkpt lat="45.1502" lon="5.5768">
        <ele>1580</ele>
        <time>2022-06-29T14:39:01.000Z</time>
      </trkpt>
      <trkpt lat="45.15008" lon="5.57684">
        <ele>1580</ele>
        <time>2022-06-29T14:39:02.000Z</time>
      </trkpt>
      <trkpt lat="45.14996" lon="5.57689">
        <ele>1580</ele>
        <time>2022-06-29T14:39:03.000Z</time>
      </trkpt>
      <trkpt lat="45.14978" lon="5.57684">
        <ele>1580</ele>
        <time>2022-06-29T14:39:04.000Z</time>
      </trkpt>
      <trkpt lat="45.14961" lon="5.57673">
        <ele>1577</ele>
        <time>2022-06-29T14:39:05.000Z</time>
      </trkpt>
      <trkpt lat="45.14944" lon="5.57663">
        <ele>1577</ele>
        <time>2022-06-29T14:39:06.000Z</time>
      </trkpt>
      <trkpt lat="45.14929" lon="5.5766">
        <ele>1577</ele>
        <time>2022-06-29T14:39:07.000Z</time>
      </trkpt>
      <trkpt lat="45.14913" lon="5.57657">
        <ele>1577</ele>
        <time>2022-06-29T14:39:08.000Z</time>
      </trkpt>
      <trkpt lat="45.14898" lon="5.57654">
        <ele>1577</ele>
        <time>2022-06-29T14:39:09.000Z</time>
      </trkpt>
      <trkpt lat="45.14879" lon="5.57638">
        <ele>1577</ele>
        <time>2022-06-29T14:39:10.000Z</time>
      </trkpt>
      <trkpt lat="45.1486" lon="5.57629">
        <ele>1568</ele>
        <time>2022-06-29T14:39:11.000Z</time>
      </trkpt>
      <trkpt lat="45.14852" lon="5.57613">
        <ele>1568</ele>
        <time>2022-06-29T14:39:12.000Z</time>
      </trkpt>
      <trkpt lat="45.14844" lon="5.57598">
        <ele>1568</ele>
        <time>2022-06-29T14:39:13.000Z</time>
      </trkpt>
      <trkpt lat="45.1483" lon="5.57589">
        <ele>1568</ele>
        <time>2022-06-29T14:39:14.000Z</time>
      </trkpt>
      <trkpt lat="45.14818" lon="5.57589">
        <ele>1568</ele>
        <time>2022-06-29T14:39:15.000Z</time>
      </trkpt>
      <trkpt lat="45.14806" lon="5.57589">
        <ele>1568</ele>
        <time>2022-06-29T14:39:16.000Z</time>
      </trkpt>
      <trkpt lat="45.14787" lon="5.57584">
        <ele>1560</ele>
        <time>2022-06-29T14:39:17.000Z</time>
      </trkpt>
      <trkpt lat="45.14768" lon="5.57579">
        <ele>1560</ele>
        <time>2022-06-29T14:39:18.000Z</time>
      </trkpt>
      <trkpt lat="45.14749" lon="5.57574">
        <ele>1560</ele>
        <time>2022-06-29T14:39:19.000Z</time>
      </trkpt>
      <trkpt lat="45.1473" lon="5.57569">
        <ele>1560</ele>
        <time>2022-06-29T14:39:20.000Z</time>
      </trkpt>
      <trkpt lat="45.14711" lon="5.57564">
        <ele>1560</ele>
        <time>2022-06-29T14:39:21.000Z</time>
      </trkpt>
      <trkpt lat="45.14692" lon="5.57559">
        <ele>1559</ele>
        <time>2022-06-29T14:39:22.000Z</time>
      </trkpt>
      <trkpt lat="45.14679" lon="5.57562">
        <ele>1559</ele>
        <time>2022-06-29T14:39:23.000Z</time>
      </trkpt>
      <trkpt lat="45.14665" lon="5.57564">
        <ele>1559</ele>
        <time>2022-06-29T14:39:24.000Z</time>
      </trkpt>
      <trkpt lat="45.14646" lon="5.57564">
        <ele>1559</ele>
        <time>2022-06-29T14:39:25.000Z</time>
      </trkpt>
      <trkpt lat="45.14626" lon="5.57563">
        <ele>1552</ele>
        <time>2022-06-29T14:39:26.000Z</time>
      </trkpt>
      <trkpt lat="45.14607" lon="5.57562">
        <ele>1552</ele>
        <time>2022-06-29T14:39:27.000Z</time>
      </trkpt>
      <trkpt lat="45.14594" lon="5.57557">
        <ele>1552</ele>
        <time>2022-06-29T14:39:28.000Z</time>
      </trkpt>
      <trkpt lat="45.14582" lon="5.57553">
        <ele>1552</ele>
        <time>2022-06-29T14:39:29.000Z</time>
      </trkpt>
      <trkpt lat="45.14564" lon="5.57544">
        <ele>1546</ele>
        <time>2022-06-29T14:39:30.000Z</time>
      </trkpt>
      <trkpt lat="45.14546" lon="5.57534">
        <ele>1546</ele>
        <time>2022-06-29T14:39:31.000Z</time>
      </trkpt>
      <trkpt lat="45.14527" lon="5.57524">
        <ele>1540</ele>
        <time>2022-06-29T14:39:32.000Z</time>
      </trkpt>
      <trkpt lat="45.14509" lon="5.57515">
        <ele>1540</ele>
        <time>2022-06-29T14:39:33.000Z</time>
      </trkpt>
      <trkpt lat="45.1449" lon="5.57517">
        <ele>1540</ele>
        <time>2022-06-29T14:39:34.000Z</time>
      </trkpt>
      <trkpt lat="45.14471" lon="5.57519">
        <ele>1540</ele>
        <time>2022-06-29T14:39:35.000Z</time>
      </trkpt>
      <trkpt lat="45.14456" lon="5.57526">
        <ele>1529</ele>
        <time>2022-06-29T14:39:36.000Z</time>
      </trkpt>
      <trkpt lat="45.14443" lon="5.57525">
        <ele>1529</ele>
        <time>2022-06-29T14:39:37.000Z</time>
      </trkpt>
      <trkpt lat="45.1443" lon="5.57524">
        <ele>1529</ele>
        <time>2022-06-29T14:39:38.000Z</time>
      </trkpt>
      <trkpt lat="45.14409" lon="5.57531">
        <ele>1529</ele>
        <time>2022-06-29T14:39:39.000Z</time>
      </trkpt>
      <trkpt lat="45.14388" lon="5.57538">
        <ele>1529</ele>
        <time>2022-06-29T14:39:40.000Z</time>
      </trkpt>
      <trkpt lat="45.14368" lon="5.57545">
        <ele>1516</ele>
        <time>2022-06-29T14:39:41.000Z</time>
      </trkpt>
      <trkpt lat="45.14347" lon="5.57552">
        <ele>1518</ele>
        <time>2022-06-29T14:39:42.000Z</time>
      </trkpt>
      <trkpt lat="45.14327" lon="5.57554">
        <ele>1518</ele>
        <time>2022-06-29T14:39:43.000Z</time>
      </trkpt>
      <trkpt lat="45.14307" lon="5.57555">
        <ele>1518</ele>
        <time>2022-06-29T14:39:44.000Z</time>
      </trkpt>
      <trkpt lat="45.14287" lon="5.57556">
        <ele>1502</ele>
        <time>2022-06-29T14:39:45.000Z</time>
      </trkpt>
      <trkpt lat="45.14274" lon="5.57552">
        <ele>1502</ele>
        <time>2022-06-29T14:39:46.000Z</time>
      </trkpt>
      <trkpt lat="45.14261" lon="5.57547">
        <ele>1508</ele>
        <time>2022-06-29T14:39:47.000Z</time>
      </trkpt>
      <trkpt lat="45.14241" lon="5.57532">
        <ele>1508</ele>
        <time>2022-06-29T14:39:48.000Z</time>
      </trkpt>
      <trkpt lat="45.14222" lon="5.57516">
        <ele>1508</ele>
        <time>2022-06-29T14:39:49.000Z</time>
      </trkpt>
      <trkpt lat="45.14208" lon="5.57502">
        <ele>1500</ele>
        <time>2022-06-29T14:39:50.000Z</time>
      </trkpt>
      <trkpt lat="45.14194" lon="5.57488">
        <ele>1500</ele>
        <time>2022-06-29T14:39:51.000Z</time>
      </trkpt>
      <trkpt lat="45.14174" lon="5.57481">
        <ele>1500</ele>
        <time>2022-06-29T14:39:52.000Z</time>
      </trkpt>
      <trkpt lat="45.14156" lon="5.57483">
        <ele>1500</ele>
        <time>2022-06-29T14:39:53.000Z</time>
      </trkpt>
      <trkpt lat="45.14138" lon="5.57484">
        <ele>1500</ele>
        <time>2022-06-29T14:39:54.000Z</time>
      </trkpt>
      <trkpt lat="45.1412" lon="5.57486">
        <ele>1493</ele>
        <time>2022-06-29T14:39:55.000Z</time>
      </trkpt>
      <trkpt lat="45.141" lon="5.57479">
        <ele>1493</ele>
        <time>2022-06-29T14:39:56.000Z</time>
      </trkpt>
      <trkpt lat="45.14082" lon="5.57463">
        <ele>1491</ele>
        <time>2022-06-29T14:39:57.000Z</time>
      </trkpt>
      <trkpt lat="45.14065" lon="5.57447">
        <ele>1491</ele>
        <time>2022-06-29T14:39:58.000Z</time>
      </trkpt>
      <trkpt lat="45.14043" lon="5.57448">
        <ele>1485</ele>
        <time>2022-06-29T14:39:59.000Z</time>
      </trkpt>
      <trkpt lat="45.14031" lon="5.57439">
        <ele>1485</ele>
        <time>2022-06-29T14:40:00.000Z</time>
      </trkpt>
      <trkpt lat="45.1402" lon="5.5743">
        <ele>1485</ele>
        <time>2022-06-29T14:40:01.000Z</time>
      </trkpt>
      <trkpt lat="45.14007" lon="5.57431">
        <ele>1485</ele>
        <time>2022-06-29T14:40:02.000Z</time>
      </trkpt>
      <trkpt lat="45.13995" lon="5.57431">
        <ele>1485</ele>
        <time>2022-06-29T14:40:03.000Z</time>
      </trkpt>
      <trkpt lat="45.13977" lon="5.57426">
        <ele>1485</ele>
        <time>2022-06-29T14:40:04.000Z</time>
      </trkpt>
      <trkpt lat="45.13958" lon="5.57427">
        <ele>1468</ele>
        <time>2022-06-29T14:40:05.000Z</time>
      </trkpt>
      <trkpt lat="45.1394" lon="5.57429">
        <ele>1468</ele>
        <time>2022-06-29T14:40:06.000Z</time>
      </trkpt>
      <trkpt lat="45.13921" lon="5.5743">
        <ele>1468</ele>
        <time>2022-06-29T14:40:07.000Z</time>
      </trkpt>
      <trkpt lat="45.13906" lon="5.57423">
        <ele>1468</ele>
        <time>2022-06-29T14:40:08.000Z</time>
      </trkpt>
      <trkpt lat="45.13885" lon="5.57419">
        <ele>1468</ele>
        <time>2022-06-29T14:40:09.000Z</time>
      </trkpt>
      <trkpt lat="45.13873" lon="5.57412">
        <ele>1449</ele>
        <time>2022-06-29T14:40:10.000Z</time>
      </trkpt>
      <trkpt lat="45.13862" lon="5.57404">
        <ele>1449</ele>
        <time>2022-06-29T14:40:11.000Z</time>
      </trkpt>
      <trkpt lat="45.13846" lon="5.57408">
        <ele>1449</ele>
        <time>2022-06-29T14:40:12.000Z</time>
      </trkpt>
      <trkpt lat="45.13829" lon="5.57412">
        <ele>1449</ele>
        <time>2022-06-29T14:40:13.000Z</time>
      </trkpt>
      <trkpt lat="45.13813" lon="5.57416">
        <ele>1449</ele>
        <time>2022-06-29T14:40:14.000Z</time>
      </trkpt>
      <trkpt lat="45.13795" lon="5.57409">
        <ele>1449</ele>
        <time>2022-06-29T14:40:15.000Z</time>
      </trkpt>
      <trkpt lat="45.13777" lon="5.57403">
        <ele>1431</ele>
        <time>2022-06-29T14:40:16.000Z</time>
      </trkpt>
      <trkpt lat="45.1376" lon="5.57397">
        <ele>1431</ele>
        <time>2022-06-29T14:40:17.000Z</time>
      </trkpt>
      <trkpt lat="45.13749" lon="5.57389">
        <ele>1431</ele>
        <time>2022-06-29T14:40:18.000Z</time>
      </trkpt>
      <trkpt lat="45.13739" lon="5.57382">
        <ele>1440</ele>
        <time>2022-06-29T14:40:19.000Z</time>
      </trkpt>
      <trkpt lat="45.13728" lon="5.57381">
        <ele>1440</ele>
        <time>2022-06-29T14:40:20.000Z</time>
      </trkpt>
      <trkpt lat="45.13708" lon="5.57388">
        <ele>1416</ele>
        <time>2022-06-29T14:40:21.000Z</time>
      </trkpt>
      <trkpt lat="45.13689" lon="5.57395">
        <ele>1416</ele>
        <time>2022-06-29T14:40:22.000Z</time>
      </trkpt>
      <trkpt lat="45.13678" lon="5.57391">
        <ele>1416</ele>
        <time>2022-06-29T14:40:23.000Z</time>
      </trkpt>
      <trkpt lat="45.13666" lon="5.57378">
        <ele>1428</ele>
        <time>2022-06-29T14:40:24.000Z</time>
      </trkpt>
      <trkpt lat="45.13654" lon="5.57365">
        <ele>1428</ele>
        <time>2022-06-29T14:40:25.000Z</time>
      </trkpt>
      <trkpt lat="45.13642" lon="5.57352">
        <ele>1428</ele>
        <time>2022-06-29T14:40:26.000Z</time>
      </trkpt>
      <trkpt lat="45.13623" lon="5.57338">
        <ele>1424</ele>
        <time>2022-06-29T14:40:27.000Z</time>
      </trkpt>
      <trkpt lat="45.13604" lon="5.57337">
        <ele>1424</ele>
        <time>2022-06-29T14:40:28.000Z</time>
      </trkpt>
      <trkpt lat="45.13585" lon="5.57335">
        <ele>1424</ele>
        <time>2022-06-29T14:40:29.000Z</time>
      </trkpt>
      <trkpt lat="45.13566" lon="5.57334">
        <ele>1424</ele>
        <time>2022-06-29T14:40:30.000Z</time>
      </trkpt>
      <trkpt lat="45.13551" lon="5.57328">
        <ele>1424</ele>
        <time>2022-06-29T14:40:31.000Z</time>
      </trkpt>
      <trkpt lat="45.13532" lon="5.5732">
        <ele>1409</ele>
        <time>2022-06-29T14:40:32.000Z</time>
      </trkpt>
      <trkpt lat="45.13514" lon="5.57313">
        <ele>1409</ele>
        <time>2022-06-29T14:40:33.000Z</time>
      </trkpt>
      <trkpt lat="45.13496" lon="5.57306">
        <ele>1409</ele>
        <time>2022-06-29T14:40:34.000Z</time>
      </trkpt>
      <trkpt lat="45.13478" lon="5.57298">
        <ele>1412</ele>
        <time>2022-06-29T14:40:35.000Z</time>
      </trkpt>
      <trkpt lat="45.13462" lon="5.57277">
        <ele>1412</ele>
        <time>2022-06-29T14:40:36.000Z</time>
      </trkpt>
      <trkpt lat="45.13441" lon="5.5727">
        <ele>1409</ele>
        <time>2022-06-29T14:40:37.000Z</time>
      </trkpt>
      <trkpt lat="45.13419" lon="5.57263">
        <ele>1409</ele>
        <time>2022-06-29T14:40:38.000Z</time>
      </trkpt>
      <trkpt lat="45.13398" lon="5.57256">
        <ele>1409</ele>
        <time>2022-06-29T14:40:39.000Z</time>
      </trkpt>
      <trkpt lat="45.13381" lon="5.57246">
        <ele>1409</ele>
        <time>2022-06-29T14:40:40.000Z</time>
      </trkpt>
      <trkpt lat="45.13363" lon="5.57236">
        <ele>1399</ele>
        <time>2022-06-29T14:40:41.000Z</time>
      </trkpt>
      <trkpt lat="45.13345" lon="5.5722">
        <ele>1399</ele>
        <time>2022-06-29T14:40:42.000Z</time>
      </trkpt>
      <trkpt lat="45.13327" lon="5.57203">
        <ele>1403</ele>
        <time>2022-06-29T14:40:43.000Z</time>
      </trkpt>
      <trkpt lat="45.1331" lon="5.57187">
        <ele>1403</ele>
        <time>2022-06-29T14:40:44.000Z</time>
      </trkpt>
      <trkpt lat="45.13292" lon="5.5717">
        <ele>1397</ele>
        <time>2022-06-29T14:40:45.000Z</time>
      </trkpt>
      <trkpt lat="45.13274" lon="5.57154">
        <ele>1397</ele>
        <time>2022-06-29T14:40:46.000Z</time>
      </trkpt>
      <trkpt lat="45.13256" lon="5.57137">
        <ele>1397</ele>
        <time>2022-06-29T14:40:47.000Z</time>
      </trkpt>
      <trkpt lat="45.13243" lon="5.57128">
        <ele>1396</ele>
        <time>2022-06-29T14:40:48.000Z</time>
      </trkpt>
      <trkpt lat="45.13229" lon="5.57119">
        <ele>1396</ele>
        <time>2022-06-29T14:40:49.000Z</time>
      </trkpt>
      <trkpt lat="45.1321" lon="5.57111">
        <ele>1390</ele>
        <time>2022-06-29T14:40:50.000Z</time>
      </trkpt>
      <trkpt lat="45.13191" lon="5.57103">
        <ele>1390</ele>
        <time>2022-06-29T14:40:51.000Z</time>
      </trkpt>
      <trkpt lat="45.13172" lon="5.57089">
        <ele>1390</ele>
        <time>2022-06-29T14:40:52.000Z</time>
      </trkpt>
      <trkpt lat="45.13153" lon="5.57074">
        <ele>1390</ele>
        <time>2022-06-29T14:40:53.000Z</time>
      </trkpt>
      <trkpt lat="45.13134" lon="5.57064">
        <ele>1390</ele>
        <time>2022-06-29T14:40:54.000Z</time>
      </trkpt>
      <trkpt lat="45.13114" lon="5.57054">
        <ele>1379</ele>
        <time>2022-06-29T14:40:55.000Z</time>
      </trkpt>
      <trkpt lat="45.13097" lon="5.57052">
        <ele>1379</ele>
        <time>2022-06-29T14:40:56.000Z</time>
      </trkpt>
      <trkpt lat="45.1308" lon="5.57049">
        <ele>1370</ele>
        <time>2022-06-29T14:40:57.000Z</time>
      </trkpt>
      <trkpt lat="45.13061" lon="5.57039">
        <ele>1370</ele>
        <time>2022-06-29T14:40:58.000Z</time>
      </trkpt>
      <trkpt lat="45.13041" lon="5.57029">
        <ele>1362</ele>
        <time>2022-06-29T14:40:59.000Z</time>
      </trkpt>
      <trkpt lat="45.13022" lon="5.57017">
        <ele>1362</ele>
        <time>2022-06-29T14:41:00.000Z</time>
      </trkpt>
      <trkpt lat="45.13004" lon="5.57006">
        <ele>1362</ele>
        <time>2022-06-29T14:41:01.000Z</time>
      </trkpt>
      <trkpt lat="45.12992" lon="5.56996">
        <ele>1362</ele>
        <time>2022-06-29T14:41:02.000Z</time>
      </trkpt>
      <trkpt lat="45.12981" lon="5.56986">
        <ele>1362</ele>
        <time>2022-06-29T14:41:03.000Z</time>
      </trkpt>
      <trkpt lat="45.12963" lon="5.56981">
        <ele>1362</ele>
        <time>2022-06-29T14:41:04.000Z</time>
      </trkpt>
      <trkpt lat="45.12945" lon="5.56976">
        <ele>1351</ele>
        <time>2022-06-29T14:41:05.000Z</time>
      </trkpt>
      <trkpt lat="45.12924" lon="5.56967">
        <ele>1341</ele>
        <time>2022-06-29T14:41:06.000Z</time>
      </trkpt>
      <trkpt lat="45.12903" lon="5.56959">
        <ele>1341</ele>
        <time>2022-06-29T14:41:07.000Z</time>
      </trkpt>
      <trkpt lat="45.12882" lon="5.5695">
        <ele>1341</ele>
        <time>2022-06-29T14:41:08.000Z</time>
      </trkpt>
      <trkpt lat="45.12862" lon="5.56941">
        <ele>1332</ele>
        <time>2022-06-29T14:41:09.000Z</time>
      </trkpt>
      <trkpt lat="45.12843" lon="5.56937">
        <ele>1332</ele>
        <time>2022-06-29T14:41:10.000Z</time>
      </trkpt>
      <trkpt lat="45.12825" lon="5.56933">
        <ele>1332</ele>
        <time>2022-06-29T14:41:11.000Z</time>
      </trkpt>
      <trkpt lat="45.12805" lon="5.5693">
        <ele>1332</ele>
        <time>2022-06-29T14:41:12.000Z</time>
      </trkpt>
      <trkpt lat="45.12785" lon="5.56927">
        <ele>1319</ele>
        <time>2022-06-29T14:41:13.000Z</time>
      </trkpt>
      <trkpt lat="45.12765" lon="5.56928">
        <ele>1319</ele>
        <time>2022-06-29T14:41:14.000Z</time>
      </trkpt>
      <trkpt lat="45.12746" lon="5.56928">
        <ele>1319</ele>
        <time>2022-06-29T14:41:15.000Z</time>
      </trkpt>
      <trkpt lat="45.12728" lon="5.56937">
        <ele>1319</ele>
        <time>2022-06-29T14:41:16.000Z</time>
      </trkpt>
      <trkpt lat="45.12709" lon="5.56945">
        <ele>1305</ele>
        <time>2022-06-29T14:41:17.000Z</time>
      </trkpt>
      <trkpt lat="45.12712" lon="5.56922">
        <ele>1319</ele>
        <time>2022-06-29T14:41:18.000Z</time>
      </trkpt>
      <trkpt lat="45.12725" lon="5.56898">
        <ele>1319</ele>
        <time>2022-06-29T14:41:19.000Z</time>
      </trkpt>
      <trkpt lat="45.12727" lon="5.56882">
        <ele>1306</ele>
        <time>2022-06-29T14:41:20.000Z</time>
      </trkpt>
      <trkpt lat="45.12734" lon="5.56867">
        <ele>1306</ele>
        <time>2022-06-29T14:41:21.000Z</time>
      </trkpt>
      <trkpt lat="45.12723" lon="5.56866">
        <ele>1306</ele>
        <time>2022-06-29T14:41:22.000Z</time>
      </trkpt>
      <trkpt lat="45.12725" lon="5.5685">
        <ele>1306</ele>
        <time>2022-06-29T14:41:23.000Z</time>
      </trkpt>
      <trkpt lat="45.12727" lon="5.56833">
        <ele>1306</ele>
        <time>2022-06-29T14:41:24.000Z</time>
      </trkpt>
      <trkpt lat="45.12709" lon="5.56829">
        <ele>1298</ele>
        <time>2022-06-29T14:41:25.000Z</time>
      </trkpt>
      <trkpt lat="45.12709" lon="5.56829">
        <ele>1298</ele>
        <time>2022-06-29T14:41:26.000Z</time>
      </trkpt>
      <trkpt lat="45.12693" lon="5.56824">
        <ele>1298</ele>
        <time>2022-06-29T14:41:27.000Z</time>
      </trkpt>
      <trkpt lat="45.12684" lon="5.56818">
        <ele>1298</ele>
        <time>2022-06-29T14:41:28.000Z</time>
      </trkpt>
      <trkpt lat="45.12673" lon="5.56813">
        <ele>1298</ele>
        <time>2022-06-29T14:41:29.000Z</time>
      </trkpt>
      <trkpt lat="45.12662" lon="5.56808">
        <ele>1298</ele>
        <time>2022-06-29T14:41:30.000Z</time>
      </trkpt>
      <trkpt lat="45.12651" lon="5.56806">
        <ele>1298</ele>
        <time>2022-06-29T14:41:31.000Z</time>
      </trkpt>
      <trkpt lat="45.12631" lon="5.56798">
        <ele>1289</ele>
        <time>2022-06-29T14:41:32.000Z</time>
      </trkpt>
      <trkpt lat="45.12613" lon="5.56783">
        <ele>1273</ele>
        <time>2022-06-29T14:41:33.000Z</time>
      </trkpt>
      <trkpt lat="45.12598" lon="5.56789">
        <ele>1273</ele>
        <time>2022-06-29T14:41:34.000Z</time>
      </trkpt>
      <trkpt lat="45.12582" lon="5.56792">
        <ele>1273</ele>
        <time>2022-06-29T14:41:35.000Z</time>
      </trkpt>
      <trkpt lat="45.12566" lon="5.56795">
        <ele>1273</ele>
        <time>2022-06-29T14:41:36.000Z</time>
      </trkpt>
      <trkpt lat="45.12545" lon="5.56796">
        <ele>1273</ele>
        <time>2022-06-29T14:41:37.000Z</time>
      </trkpt>
      <trkpt lat="45.12524" lon="5.56801">
        <ele>1259</ele>
        <time>2022-06-29T14:41:38.000Z</time>
      </trkpt>
      <trkpt lat="45.12509" lon="5.56796">
        <ele>1259</ele>
        <time>2022-06-29T14:41:39.000Z</time>
      </trkpt>
      <trkpt lat="45.12498" lon="5.56796">
        <ele>1259</ele>
        <time>2022-06-29T14:41:40.000Z</time>
      </trkpt>
      <trkpt lat="45.12487" lon="5.56795">
        <ele>1259</ele>
        <time>2022-06-29T14:41:41.000Z</time>
      </trkpt>
      <trkpt lat="45.12475" lon="5.56793">
        <ele>1259</ele>
        <time>2022-06-29T14:41:42.000Z</time>
      </trkpt>
      <trkpt lat="45.12459" lon="5.56783">
        <ele>1253</ele>
        <time>2022-06-29T14:41:43.000Z</time>
      </trkpt>
      <trkpt lat="45.12452" lon="5.56786">
        <ele>1253</ele>
        <time>2022-06-29T14:41:44.000Z</time>
      </trkpt>
      <trkpt lat="45.12446" lon="5.56789">
        <ele>1253</ele>
        <time>2022-06-29T14:41:45.000Z</time>
      </trkpt>
      <trkpt lat="45.12436" lon="5.56795">
        <ele>1253</ele>
        <time>2022-06-29T14:41:46.000Z</time>
      </trkpt>
      <trkpt lat="45.12428" lon="5.56799">
        <ele>1253</ele>
        <time>2022-06-29T14:41:47.000Z</time>
      </trkpt>
      <trkpt lat="45.12418" lon="5.56803">
        <ele>1259</ele>
        <time>2022-06-29T14:41:48.000Z</time>
      </trkpt>
      <trkpt lat="45.124" lon="5.56811">
        <ele>1259</ele>
        <time>2022-06-29T14:41:49.000Z</time>
      </trkpt>
      <trkpt lat="45.12397" lon="5.56814">
        <ele>1259</ele>
        <time>2022-06-29T14:41:50.000Z</time>
      </trkpt>
      <trkpt lat="45.12394" lon="5.56827">
        <ele>1259</ele>
        <time>2022-06-29T14:41:51.000Z</time>
      </trkpt>
      <trkpt lat="45.1238" lon="5.56832">
        <ele>1259</ele>
        <time>2022-06-29T14:41:52.000Z</time>
      </trkpt>
      <trkpt lat="45.12367" lon="5.56829">
        <ele>1242</ele>
        <time>2022-06-29T14:41:53.000Z</time>
      </trkpt>
      <trkpt lat="45.12356" lon="5.56826">
        <ele>1242</ele>
        <time>2022-06-29T14:41:54.000Z</time>
      </trkpt>
      <trkpt lat="45.12344" lon="5.5683">
        <ele>1242</ele>
        <time>2022-06-29T14:41:55.000Z</time>
      </trkpt>
      <trkpt lat="45.12334" lon="5.56834">
        <ele>1242</ele>
        <time>2022-06-29T14:41:56.000Z</time>
      </trkpt>
      <trkpt lat="45.12323" lon="5.56835">
        <ele>1242</ele>
        <time>2022-06-29T14:41:57.000Z</time>
      </trkpt>
      <trkpt lat="45.12312" lon="5.56833">
        <ele>1242</ele>
        <time>2022-06-29T14:41:58.000Z</time>
      </trkpt>
      <trkpt lat="45.12305" lon="5.56831">
        <ele>1242</ele>
        <time>2022-06-29T14:41:59.000Z</time>
      </trkpt>
      <trkpt lat="45.12293" lon="5.56823">
        <ele>1223</ele>
        <time>2022-06-29T14:42:00.000Z</time>
      </trkpt>
      <trkpt lat="45.12286" lon="5.56841">
        <ele>1223</ele>
        <time>2022-06-29T14:42:01.000Z</time>
      </trkpt>
      <trkpt lat="45.12283" lon="5.56846">
        <ele>1223</ele>
        <time>2022-06-29T14:42:02.000Z</time>
      </trkpt>
      <trkpt lat="45.12266" lon="5.56847">
        <ele>1223</ele>
        <time>2022-06-29T14:42:03.000Z</time>
      </trkpt>
      <trkpt lat="45.12253" lon="5.56847">
        <ele>1223</ele>
        <time>2022-06-29T14:42:04.000Z</time>
      </trkpt>
      <trkpt lat="45.1224" lon="5.56846">
        <ele>1223</ele>
        <time>2022-06-29T14:42:05.000Z</time>
      </trkpt>
      <trkpt lat="45.12229" lon="5.56847">
        <ele>1223</ele>
        <time>2022-06-29T14:42:06.000Z</time>
      </trkpt>
      <trkpt lat="45.12218" lon="5.56848">
        <ele>1223</ele>
        <time>2022-06-29T14:42:07.000Z</time>
      </trkpt>
      <trkpt lat="45.12201" lon="5.56843">
        <ele>1205</ele>
        <time>2022-06-29T14:42:08.000Z</time>
      </trkpt>
      <trkpt lat="45.12192" lon="5.56844">
        <ele>1205</ele>
        <time>2022-06-29T14:42:09.000Z</time>
      </trkpt>
      <trkpt lat="45.12178" lon="5.56849">
        <ele>1205</ele>
        <time>2022-06-29T14:42:10.000Z</time>
      </trkpt>
      <trkpt lat="45.12167" lon="5.56848">
        <ele>1205</ele>
        <time>2022-06-29T14:42:11.000Z</time>
      </trkpt>
      <trkpt lat="45.12156" lon="5.56854">
        <ele>1205</ele>
        <time>2022-06-29T14:42:12.000Z</time>
      </trkpt>
      <trkpt lat="45.12152" lon="5.56856">
        <ele>1205</ele>
        <time>2022-06-29T14:42:13.000Z</time>
      </trkpt>
      <trkpt lat="45.12144" lon="5.56863">
        <ele>1205</ele>
        <time>2022-06-29T14:42:14.000Z</time>
      </trkpt>
      <trkpt lat="45.12122" lon="5.56867">
        <ele>1184</ele>
        <time>2022-06-29T14:42:15.000Z</time>
      </trkpt>
      <trkpt lat="45.12111" lon="5.56863">
        <ele>1184</ele>
        <time>2022-06-29T14:42:16.000Z</time>
      </trkpt>
      <trkpt lat="45.121" lon="5.56859">
        <ele>1184</ele>
        <time>2022-06-29T14:42:17.000Z</time>
      </trkpt>
      <trkpt lat="45.12085" lon="5.56842">
        <ele>1184</ele>
        <time>2022-06-29T14:42:18.000Z</time>
      </trkpt>
      <trkpt lat="45.12067" lon="5.5684">
        <ele>1184</ele>
        <time>2022-06-29T14:42:19.000Z</time>
      </trkpt>
      <trkpt lat="45.12049" lon="5.56839">
        <ele>1184</ele>
        <time>2022-06-29T14:42:20.000Z</time>
      </trkpt>
      <trkpt lat="45.12038" lon="5.56834">
        <ele>1166</ele>
        <time>2022-06-29T14:42:21.000Z</time>
      </trkpt>
      <trkpt lat="45.12037" lon="5.5683">
        <ele>1166</ele>
        <time>2022-06-29T14:42:22.000Z</time>
      </trkpt>
      <trkpt lat="45.12032" lon="5.56831">
        <ele>1166</ele>
        <time>2022-06-29T14:42:23.000Z</time>
      </trkpt>
      <trkpt lat="45.12012" lon="5.56824">
        <ele>1166</ele>
        <time>2022-06-29T14:42:24.000Z</time>
      </trkpt>
      <trkpt lat="45.12002" lon="5.56824">
        <ele>1166</ele>
        <time>2022-06-29T14:42:25.000Z</time>
      </trkpt>
      <trkpt lat="45.11988" lon="5.56826">
        <ele>1166</ele>
        <time>2022-06-29T14:42:26.000Z</time>
      </trkpt>
      <trkpt lat="45.11969" lon="5.56833">
        <ele>1166</ele>
        <time>2022-06-29T14:42:27.000Z</time>
      </trkpt>
      <trkpt lat="45.11949" lon="5.56837">
        <ele>1145</ele>
        <time>2022-06-29T14:42:28.000Z</time>
      </trkpt>
      <trkpt lat="45.11935" lon="5.56841">
        <ele>1145</ele>
        <time>2022-06-29T14:42:29.000Z</time>
      </trkpt>
      <trkpt lat="45.11925" lon="5.56846">
        <ele>1145</ele>
        <time>2022-06-29T14:42:30.000Z</time>
      </trkpt>
      <trkpt lat="45.11909" lon="5.5685">
        <ele>1145</ele>
        <time>2022-06-29T14:42:31.000Z</time>
      </trkpt>
      <trkpt lat="45.11893" lon="5.56848">
        <ele>1145</ele>
        <time>2022-06-29T14:42:32.000Z</time>
      </trkpt>
      <trkpt lat="45.11877" lon="5.56844">
        <ele>1114</ele>
        <time>2022-06-29T14:42:33.000Z</time>
      </trkpt>
      <trkpt lat="45.11886" lon="5.56834">
        <ele>1145</ele>
        <time>2022-06-29T14:42:34.000Z</time>
      </trkpt>
      <trkpt lat="45.11895" lon="5.56823">
        <ele>1145</ele>
        <time>2022-06-29T14:42:35.000Z</time>
      </trkpt>
      <trkpt lat="45.11903" lon="5.568">
        <ele>1145</ele>
        <time>2022-06-29T14:42:36.000Z</time>
      </trkpt>
      <trkpt lat="45.1191" lon="5.56776">
        <ele>1145</ele>
        <time>2022-06-29T14:42:37.000Z</time>
      </trkpt>
      <trkpt lat="45.11917" lon="5.56753">
        <ele>1145</ele>
        <time>2022-06-29T14:42:38.000Z</time>
      </trkpt>
      <trkpt lat="45.11924" lon="5.56729">
        <ele>1145</ele>
        <time>2022-06-29T14:42:39.000Z</time>
      </trkpt>
      <trkpt lat="45.11931" lon="5.56706">
        <ele>1142</ele>
        <time>2022-06-29T14:42:40.000Z</time>
      </trkpt>
      <trkpt lat="45.11945" lon="5.56683">
        <ele>1142</ele>
        <time>2022-06-29T14:42:41.000Z</time>
      </trkpt>
      <trkpt lat="45.11959" lon="5.5666">
        <ele>1142</ele>
        <time>2022-06-29T14:42:42.000Z</time>
      </trkpt>
      <trkpt lat="45.11972" lon="5.56638">
        <ele>1157</ele>
        <time>2022-06-29T14:42:43.000Z</time>
      </trkpt>
      <trkpt lat="45.11986" lon="5.56615">
        <ele>1160</ele>
        <time>2022-06-29T14:42:44.000Z</time>
      </trkpt>
      <trkpt lat="45.11995" lon="5.56605">
        <ele>1160</ele>
        <time>2022-06-29T14:42:45.000Z</time>
      </trkpt>
      <trkpt lat="45.12005" lon="5.56596">
        <ele>1160</ele>
        <time>2022-06-29T14:42:46.000Z</time>
      </trkpt>
      <trkpt lat="45.12023" lon="5.56594">
        <ele>1160</ele>
        <time>2022-06-29T14:42:47.000Z</time>
      </trkpt>
      <trkpt lat="45.12041" lon="5.56592">
        <ele>1160</ele>
        <time>2022-06-29T14:42:48.000Z</time>
      </trkpt>
      <trkpt lat="45.12056" lon="5.56585">
        <ele>1172</ele>
        <time>2022-06-29T14:42:49.000Z</time>
      </trkpt>
      <trkpt lat="45.12061" lon="5.56574">
        <ele>1172</ele>
        <time>2022-06-29T14:42:50.000Z</time>
      </trkpt>
      <trkpt lat="45.12059" lon="5.56549">
        <ele>1180</ele>
        <time>2022-06-29T14:42:51.000Z</time>
      </trkpt>
      <trkpt lat="45.12046" lon="5.56529">
        <ele>1180</ele>
        <time>2022-06-29T14:42:52.000Z</time>
      </trkpt>
      <trkpt lat="45.12032" lon="5.5651">
        <ele>1173</ele>
        <time>2022-06-29T14:42:53.000Z</time>
      </trkpt>
      <trkpt lat="45.12019" lon="5.5649">
        <ele>1173</ele>
        <time>2022-06-29T14:42:54.000Z</time>
      </trkpt>
      <trkpt lat="45.12005" lon="5.56471">
        <ele>1173</ele>
        <time>2022-06-29T14:42:55.000Z</time>
      </trkpt>
      <trkpt lat="45.11992" lon="5.56451">
        <ele>1180</ele>
        <time>2022-06-29T14:42:56.000Z</time>
      </trkpt>
      <trkpt lat="45.11983" lon="5.56425">
        <ele>1180</ele>
        <time>2022-06-29T14:42:57.000Z</time>
      </trkpt>
      <trkpt lat="45.1199" lon="5.56411">
        <ele>1180</ele>
        <time>2022-06-29T14:42:58.000Z</time>
      </trkpt>
      <trkpt lat="45.11997" lon="5.56397">
        <ele>1180</ele>
        <time>2022-06-29T14:42:59.000Z</time>
      </trkpt>
      <trkpt lat="45.1201" lon="5.56385">
        <ele>1180</ele>
        <time>2022-06-29T14:43:00.000Z</time>
      </trkpt>
      <trkpt lat="45.12025" lon="5.56386">
        <ele>1180</ele>
        <time>2022-06-29T14:43:01.000Z</time>
      </trkpt>
      <trkpt lat="45.12041" lon="5.56387">
        <ele>1180</ele>
        <time>2022-06-29T14:43:02.000Z</time>
      </trkpt>
      <trkpt lat="45.12056" lon="5.56388">
        <ele>1181</ele>
        <time>2022-06-29T14:43:03.000Z</time>
      </trkpt>
      <trkpt lat="45.12073" lon="5.56395">
        <ele>1181</ele>
        <time>2022-06-29T14:43:04.000Z</time>
      </trkpt>
      <trkpt lat="45.12091" lon="5.56401">
        <ele>1181</ele>
        <time>2022-06-29T14:43:05.000Z</time>
      </trkpt>
      <trkpt lat="45.12108" lon="5.56408">
        <ele>1181</ele>
        <time>2022-06-29T14:43:06.000Z</time>
      </trkpt>
      <trkpt lat="45.12125" lon="5.56414">
        <ele>1181</ele>
        <time>2022-06-29T14:43:07.000Z</time>
      </trkpt>
      <trkpt lat="45.12144" lon="5.56415">
        <ele>1188</ele>
        <time>2022-06-29T14:43:08.000Z</time>
      </trkpt>
      <trkpt lat="45.12164" lon="5.56416">
        <ele>1188</ele>
        <time>2022-06-29T14:43:09.000Z</time>
      </trkpt>
      <trkpt lat="45.12183" lon="5.56417">
        <ele>1188</ele>
        <time>2022-06-29T14:43:10.000Z</time>
      </trkpt>
      <trkpt lat="45.12202" lon="5.56418">
        <ele>1188</ele>
        <time>2022-06-29T14:43:11.000Z</time>
      </trkpt>
      <trkpt lat="45.12221" lon="5.56419">
        <ele>1196</ele>
        <time>2022-06-29T14:43:12.000Z</time>
      </trkpt>
      <trkpt lat="45.1224" lon="5.56419">
        <ele>1196</ele>
        <time>2022-06-29T14:43:13.000Z</time>
      </trkpt>
      <trkpt lat="45.12246" lon="5.56401">
        <ele>1196</ele>
        <time>2022-06-29T14:43:14.000Z</time>
      </trkpt>
      <trkpt lat="45.1226" lon="5.56418">
        <ele>1196</ele>
        <time>2022-06-29T14:43:15.000Z</time>
      </trkpt>
      <trkpt lat="45.12277" lon="5.56428">
        <ele>1196</ele>
        <time>2022-06-29T14:43:16.000Z</time>
      </trkpt>
      <trkpt lat="45.12293" lon="5.56439">
        <ele>1196</ele>
        <time>2022-06-29T14:43:17.000Z</time>
      </trkpt>
      <trkpt lat="45.12312" lon="5.56455">
        <ele>1206</ele>
        <time>2022-06-29T14:43:18.000Z</time>
      </trkpt>
      <trkpt lat="45.12326" lon="5.56462">
        <ele>1206</ele>
        <time>2022-06-29T14:43:19.000Z</time>
      </trkpt>
      <trkpt lat="45.1234" lon="5.56469">
        <ele>1209</ele>
        <time>2022-06-29T14:43:20.000Z</time>
      </trkpt>
      <trkpt lat="45.12354" lon="5.56472">
        <ele>1209</ele>
        <time>2022-06-29T14:43:21.000Z</time>
      </trkpt>
      <trkpt lat="45.12365" lon="5.5647">
        <ele>1209</ele>
        <time>2022-06-29T14:43:22.000Z</time>
      </trkpt>
      <trkpt lat="45.12384" lon="5.56472">
        <ele>1215</ele>
        <time>2022-06-29T14:43:23.000Z</time>
      </trkpt>
      <trkpt lat="45.12404" lon="5.56475">
        <ele>1215</ele>
        <time>2022-06-29T14:43:24.000Z</time>
      </trkpt>
      <trkpt lat="45.12423" lon="5.56478">
        <ele>1215</ele>
        <time>2022-06-29T14:43:25.000Z</time>
      </trkpt>
      <trkpt lat="45.12432" lon="5.56471">
        <ele>1215</ele>
        <time>2022-06-29T14:43:26.000Z</time>
      </trkpt>
      <trkpt lat="45.12435" lon="5.56461">
        <ele>1209</ele>
        <time>2022-06-29T14:43:27.000Z</time>
      </trkpt>
      <trkpt lat="45.12436" lon="5.56443">
        <ele>1209</ele>
        <time>2022-06-29T14:43:28.000Z</time>
      </trkpt>
      <trkpt lat="45.12436" lon="5.56424">
        <ele>1209</ele>
        <time>2022-06-29T14:43:29.000Z</time>
      </trkpt>
      <trkpt lat="45.1245" lon="5.56418">
        <ele>1209</ele>
        <time>2022-06-29T14:43:30.000Z</time>
      </trkpt>
      <trkpt lat="45.12465" lon="5.56412">
        <ele>1222</ele>
        <time>2022-06-29T14:43:31.000Z</time>
      </trkpt>
      <trkpt lat="45.12476" lon="5.56394">
        <ele>1222</ele>
        <time>2022-06-29T14:43:32.000Z</time>
      </trkpt>
      <trkpt lat="45.12487" lon="5.56377">
        <ele>1217</ele>
        <time>2022-06-29T14:43:33.000Z</time>
      </trkpt>
      <trkpt lat="45.12498" lon="5.5636">
        <ele>1217</ele>
        <time>2022-06-29T14:43:34.000Z</time>
      </trkpt>
      <trkpt lat="45.12506" lon="5.56348">
        <ele>1217</ele>
        <time>2022-06-29T14:43:35.000Z</time>
      </trkpt>
      <trkpt lat="45.12514" lon="5.56336">
        <ele>1217</ele>
        <time>2022-06-29T14:43:36.000Z</time>
      </trkpt>
      <trkpt lat="45.12527" lon="5.56324">
        <ele>1217</ele>
        <time>2022-06-29T14:43:37.000Z</time>
      </trkpt>
      <trkpt lat="45.12541" lon="5.56311">
        <ele>1217</ele>
        <time>2022-06-29T14:43:38.000Z</time>
      </trkpt>
      <trkpt lat="45.12554" lon="5.56298">
        <ele>1215</ele>
        <time>2022-06-29T14:43:39.000Z</time>
      </trkpt>
      <trkpt lat="45.12567" lon="5.56293">
        <ele>1215</ele>
        <time>2022-06-29T14:43:40.000Z</time>
      </trkpt>
      <trkpt lat="45.1258" lon="5.56288">
        <ele>1215</ele>
        <time>2022-06-29T14:43:41.000Z</time>
      </trkpt>
      <trkpt lat="45.12596" lon="5.56277">
        <ele>1215</ele>
        <time>2022-06-29T14:43:42.000Z</time>
      </trkpt>
      <trkpt lat="45.12612" lon="5.56267">
        <ele>1215</ele>
        <time>2022-06-29T14:43:43.000Z</time>
      </trkpt>
      <trkpt lat="45.12627" lon="5.5626">
        <ele>1215</ele>
        <time>2022-06-29T14:43:44.000Z</time>
      </trkpt>
      <trkpt lat="45.12636" lon="5.56237">
        <ele>1227</ele>
        <time>2022-06-29T14:43:45.000Z</time>
      </trkpt>
      <trkpt lat="45.12645" lon="5.56213">
        <ele>1229</ele>
        <time>2022-06-29T14:43:46.000Z</time>
      </trkpt>
      <trkpt lat="45.12654" lon="5.56189">
        <ele>1229</ele>
        <time>2022-06-29T14:43:47.000Z</time>
      </trkpt>
      <trkpt lat="45.12675" lon="5.56178">
        <ele>1229</ele>
        <time>2022-06-29T14:43:48.000Z</time>
      </trkpt>
      <trkpt lat="45.12696" lon="5.56167">
        <ele>1229</ele>
        <time>2022-06-29T14:43:49.000Z</time>
      </trkpt>
      <trkpt lat="45.12716" lon="5.56156">
        <ele>1242</ele>
        <time>2022-06-29T14:43:50.000Z</time>
      </trkpt>
      <trkpt lat="45.12732" lon="5.56147">
        <ele>1242</ele>
        <time>2022-06-29T14:43:51.000Z</time>
      </trkpt>
      <trkpt lat="45.12748" lon="5.56138">
        <ele>1242</ele>
        <time>2022-06-29T14:43:52.000Z</time>
      </trkpt>
      <trkpt lat="45.12764" lon="5.56129">
        <ele>1231</ele>
        <time>2022-06-29T14:43:53.000Z</time>
      </trkpt>
      <trkpt lat="45.12779" lon="5.56121">
        <ele>1231</ele>
        <time>2022-06-29T14:43:54.000Z</time>
      </trkpt>
      <trkpt lat="45.12796" lon="5.56114">
        <ele>1231</ele>
        <time>2022-06-29T14:43:55.000Z</time>
      </trkpt>
      <trkpt lat="45.12812" lon="5.56107">
        <ele>1231</ele>
        <time>2022-06-29T14:43:56.000Z</time>
      </trkpt>
      <trkpt lat="45.12829" lon="5.561">
        <ele>1231</ele>
        <time>2022-06-29T14:43:57.000Z</time>
      </trkpt>
      <trkpt lat="45.12848" lon="5.56098">
        <ele>1231</ele>
        <time>2022-06-29T14:43:58.000Z</time>
      </trkpt>
      <trkpt lat="45.12868" lon="5.56095">
        <ele>1231</ele>
        <time>2022-06-29T14:43:59.000Z</time>
      </trkpt>
      <trkpt lat="45.1288" lon="5.56098">
        <ele>1234</ele>
        <time>2022-06-29T14:44:00.000Z</time>
      </trkpt>
      <trkpt lat="45.12892" lon="5.561">
        <ele>1234</ele>
        <time>2022-06-29T14:44:01.000Z</time>
      </trkpt>
      <trkpt lat="45.1291" lon="5.56091">
        <ele>1234</ele>
        <time>2022-06-29T14:44:02.000Z</time>
      </trkpt>
      <trkpt lat="45.12927" lon="5.56083">
        <ele>1234</ele>
        <time>2022-06-29T14:44:03.000Z</time>
      </trkpt>
      <trkpt lat="45.12944" lon="5.56074">
        <ele>1234</ele>
        <time>2022-06-29T14:44:04.000Z</time>
      </trkpt>
      <trkpt lat="45.12962" lon="5.56066">
        <ele>1236</ele>
        <time>2022-06-29T14:44:05.000Z</time>
      </trkpt>
      <trkpt lat="45.12979" lon="5.56057">
        <ele>1236</ele>
        <time>2022-06-29T14:44:06.000Z</time>
      </trkpt>
      <trkpt lat="45.12987" lon="5.56034">
        <ele>1226</ele>
        <time>2022-06-29T14:44:07.000Z</time>
      </trkpt>
      <trkpt lat="45.13001" lon="5.56024">
        <ele>1226</ele>
        <time>2022-06-29T14:44:08.000Z</time>
      </trkpt>
      <trkpt lat="45.13015" lon="5.56014">
        <ele>1226</ele>
        <time>2022-06-29T14:44:09.000Z</time>
      </trkpt>
      <trkpt lat="45.1303" lon="5.56003">
        <ele>1226</ele>
        <time>2022-06-29T14:44:10.000Z</time>
      </trkpt>
      <trkpt lat="45.13051" lon="5.56004">
        <ele>1228</ele>
        <time>2022-06-29T14:44:11.000Z</time>
      </trkpt>
      <trkpt lat="45.13054" lon="5.55974">
        <ele>1228</ele>
        <time>2022-06-29T14:44:12.000Z</time>
      </trkpt>
      <trkpt lat="45.13036" lon="5.55979">
        <ele>1226</ele>
        <time>2022-06-29T14:44:13.000Z</time>
      </trkpt>
      <trkpt lat="45.13017" lon="5.55983">
        <ele>1226</ele>
        <time>2022-06-29T14:44:14.000Z</time>
      </trkpt>
      <trkpt lat="45.13016" lon="5.55958">
        <ele>1237</ele>
        <time>2022-06-29T14:44:15.000Z</time>
      </trkpt>
      <trkpt lat="45.13014" lon="5.55932">
        <ele>1237</ele>
        <time>2022-06-29T14:44:16.000Z</time>
      </trkpt>
      <trkpt lat="45.13013" lon="5.55906">
        <ele>1237</ele>
        <time>2022-06-29T14:44:17.000Z</time>
      </trkpt>
      <trkpt lat="45.13001" lon="5.55899">
        <ele>1237</ele>
        <time>2022-06-29T14:44:18.000Z</time>
      </trkpt>
      <trkpt lat="45.1299" lon="5.55893">
        <ele>1237</ele>
        <time>2022-06-29T14:44:19.000Z</time>
      </trkpt>
      <trkpt lat="45.12969" lon="5.55882">
        <ele>1245</ele>
        <time>2022-06-29T14:44:20.000Z</time>
      </trkpt>
      <trkpt lat="45.12948" lon="5.55872">
        <ele>1240</ele>
        <time>2022-06-29T14:44:21.000Z</time>
      </trkpt>
      <trkpt lat="45.1293" lon="5.55868">
        <ele>1240</ele>
        <time>2022-06-29T14:44:22.000Z</time>
      </trkpt>
      <trkpt lat="45.12911" lon="5.55863">
        <ele>1240</ele>
        <time>2022-06-29T14:44:23.000Z</time>
      </trkpt>
      <trkpt lat="45.12893" lon="5.55859">
        <ele>1240</ele>
        <time>2022-06-29T14:44:24.000Z</time>
      </trkpt>
      <trkpt lat="45.12874" lon="5.55854">
        <ele>1234</ele>
        <time>2022-06-29T14:44:25.000Z</time>
      </trkpt>
      <trkpt lat="45.12852" lon="5.55853">
        <ele>1234</ele>
        <time>2022-06-29T14:44:26.000Z</time>
      </trkpt>
      <trkpt lat="45.1283" lon="5.55852">
        <ele>1234</ele>
        <time>2022-06-29T14:44:27.000Z</time>
      </trkpt>
      <trkpt lat="45.12808" lon="5.55852">
        <ele>1234</ele>
        <time>2022-06-29T14:44:28.000Z</time>
      </trkpt>
      <trkpt lat="45.12786" lon="5.55851">
        <ele>1224</ele>
        <time>2022-06-29T14:44:29.000Z</time>
      </trkpt>
      <trkpt lat="45.12769" lon="5.55839">
        <ele>1224</ele>
        <time>2022-06-29T14:44:30.000Z</time>
      </trkpt>
      <trkpt lat="45.12753" lon="5.55828">
        <ele>1224</ele>
        <time>2022-06-29T14:44:31.000Z</time>
      </trkpt>
      <trkpt lat="45.12736" lon="5.55821">
        <ele>1224</ele>
        <time>2022-06-29T14:44:32.000Z</time>
      </trkpt>
      <trkpt lat="45.1272" lon="5.55804">
        <ele>1224</ele>
        <time>2022-06-29T14:44:33.000Z</time>
      </trkpt>
      <trkpt lat="45.12704" lon="5.55787">
        <ele>1231</ele>
        <time>2022-06-29T14:44:34.000Z</time>
      </trkpt>
      <trkpt lat="45.12687" lon="5.55774">
        <ele>1231</ele>
        <time>2022-06-29T14:44:35.000Z</time>
      </trkpt>
      <trkpt lat="45.1267" lon="5.55761">
        <ele>1231</ele>
        <time>2022-06-29T14:44:36.000Z</time>
      </trkpt>
      <trkpt lat="45.1266" lon="5.55768">
        <ele>1231</ele>
        <time>2022-06-29T14:44:37.000Z</time>
      </trkpt>
      <trkpt lat="45.1265" lon="5.55776">
        <ele>1231</ele>
        <time>2022-06-29T14:44:38.000Z</time>
      </trkpt>
      <trkpt lat="45.12635" lon="5.55781">
        <ele>1231</ele>
        <time>2022-06-29T14:44:39.000Z</time>
      </trkpt>
      <trkpt lat="45.12621" lon="5.55799">
        <ele>1234</ele>
        <time>2022-06-29T14:44:40.000Z</time>
      </trkpt>
      <trkpt lat="45.12606" lon="5.55818">
        <ele>1228</ele>
        <time>2022-06-29T14:44:41.000Z</time>
      </trkpt>
      <trkpt lat="45.12592" lon="5.55836">
        <ele>1228</ele>
        <time>2022-06-29T14:44:42.000Z</time>
      </trkpt>
      <trkpt lat="45.12578" lon="5.55839">
        <ele>1228</ele>
        <time>2022-06-29T14:44:43.000Z</time>
      </trkpt>
      <trkpt lat="45.12565" lon="5.55841">
        <ele>1228</ele>
        <time>2022-06-29T14:44:44.000Z</time>
      </trkpt>
      <trkpt lat="45.12544" lon="5.55839">
        <ele>1226</ele>
        <time>2022-06-29T14:44:45.000Z</time>
      </trkpt>
      <trkpt lat="45.12526" lon="5.55835">
        <ele>1226</ele>
        <time>2022-06-29T14:44:46.000Z</time>
      </trkpt>
      <trkpt lat="45.1251" lon="5.55817">
        <ele>1226</ele>
        <time>2022-06-29T14:44:47.000Z</time>
      </trkpt>
      <trkpt lat="45.12493" lon="5.558">
        <ele>1231</ele>
        <time>2022-06-29T14:44:48.000Z</time>
      </trkpt>
      <trkpt lat="45.12477" lon="5.55782">
        <ele>1231</ele>
        <time>2022-06-29T14:44:49.000Z</time>
      </trkpt>
      <trkpt lat="45.12461" lon="5.55765">
        <ele>1231</ele>
        <time>2022-06-29T14:44:50.000Z</time>
      </trkpt>
      <trkpt lat="45.12444" lon="5.55747">
        <ele>1221</ele>
        <time>2022-06-29T14:44:51.000Z</time>
      </trkpt>
      <trkpt lat="45.12442" lon="5.55725">
        <ele>1221</ele>
        <time>2022-06-29T14:44:52.000Z</time>
      </trkpt>
      <trkpt lat="45.12423" lon="5.55719">
        <ele>1221</ele>
        <time>2022-06-29T14:44:53.000Z</time>
      </trkpt>
      <trkpt lat="45.12404" lon="5.55712">
        <ele>1229</ele>
        <time>2022-06-29T14:44:54.000Z</time>
      </trkpt>
      <trkpt lat="45.12386" lon="5.55706">
        <ele>1229</ele>
        <time>2022-06-29T14:44:55.000Z</time>
      </trkpt>
      <trkpt lat="45.12378" lon="5.55693">
        <ele>1229</ele>
        <time>2022-06-29T14:44:56.000Z</time>
      </trkpt>
      <trkpt lat="45.12376" lon="5.55666">
        <ele>1224</ele>
        <time>2022-06-29T14:44:57.000Z</time>
      </trkpt>
      <trkpt lat="45.12375" lon="5.5564">
        <ele>1224</ele>
        <time>2022-06-29T14:44:58.000Z</time>
      </trkpt>
      <trkpt lat="45.12374" lon="5.55613">
        <ele>1221</ele>
        <time>2022-06-29T14:44:59.000Z</time>
      </trkpt>
      <trkpt lat="45.12372" lon="5.55586">
        <ele>1221</ele>
        <time>2022-06-29T14:45:00.000Z</time>
      </trkpt>
      <trkpt lat="45.12371" lon="5.5556">
        <ele>1221</ele>
        <time>2022-06-29T14:45:01.000Z</time>
      </trkpt>
      <trkpt lat="45.12373" lon="5.55538">
        <ele>1223</ele>
        <time>2022-06-29T14:45:02.000Z</time>
      </trkpt>
      <trkpt lat="45.12374" lon="5.55517">
        <ele>1223</ele>
        <time>2022-06-29T14:45:03.000Z</time>
      </trkpt>
      <trkpt lat="45.12379" lon="5.55488">
        <ele>1238</ele>
        <time>2022-06-29T14:45:04.000Z</time>
      </trkpt>
      <trkpt lat="45.12384" lon="5.55459">
        <ele>1238</ele>
        <time>2022-06-29T14:45:05.000Z</time>
      </trkpt>
      <trkpt lat="45.1239" lon="5.55438">
        <ele>1238</ele>
        <time>2022-06-29T14:45:06.000Z</time>
      </trkpt>
      <trkpt lat="45.12397" lon="5.55416">
        <ele>1238</ele>
        <time>2022-06-29T14:45:07.000Z</time>
      </trkpt>
      <trkpt lat="45.12409" lon="5.55395">
        <ele>1238</ele>
        <time>2022-06-29T14:45:08.000Z</time>
      </trkpt>
      <trkpt lat="45.12422" lon="5.55373">
        <ele>1240</ele>
        <time>2022-06-29T14:45:09.000Z</time>
      </trkpt>
      <trkpt lat="45.12434" lon="5.55352">
        <ele>1240</ele>
        <time>2022-06-29T14:45:10.000Z</time>
      </trkpt>
      <trkpt lat="45.12447" lon="5.55331">
        <ele>1240</ele>
        <time>2022-06-29T14:45:11.000Z</time>
      </trkpt>
      <trkpt lat="45.1246" lon="5.55309">
        <ele>1240</ele>
        <time>2022-06-29T14:45:12.000Z</time>
      </trkpt>
      <trkpt lat="45.12467" lon="5.55292">
        <ele>1251</ele>
        <time>2022-06-29T14:45:13.000Z</time>
      </trkpt>
      <trkpt lat="45.12474" lon="5.55275">
        <ele>1251</ele>
        <time>2022-06-29T14:45:14.000Z</time>
      </trkpt>
      <trkpt lat="45.12478" lon="5.55258">
        <ele>1251</ele>
        <time>2022-06-29T14:45:15.000Z</time>
      </trkpt>
      <trkpt lat="45.12483" lon="5.55241">
        <ele>1251</ele>
        <time>2022-06-29T14:45:16.000Z</time>
      </trkpt>
      <trkpt lat="45.12486" lon="5.5522">
        <ele>1251</ele>
        <time>2022-06-29T14:45:17.000Z</time>
      </trkpt>
      <trkpt lat="45.1249" lon="5.552">
        <ele>1249</ele>
        <time>2022-06-29T14:45:18.000Z</time>
      </trkpt>
      <trkpt lat="45.12489" lon="5.55184">
        <ele>1249</ele>
        <time>2022-06-29T14:45:19.000Z</time>
      </trkpt>
      <trkpt lat="45.12489" lon="5.55168">
        <ele>1249</ele>
        <time>2022-06-29T14:45:20.000Z</time>
      </trkpt>
      <trkpt lat="45.12475" lon="5.55171">
        <ele>1249</ele>
        <time>2022-06-29T14:45:21.000Z</time>
      </trkpt>
      <trkpt lat="45.12462" lon="5.55174">
        <ele>1249</ele>
        <time>2022-06-29T14:45:22.000Z</time>
      </trkpt>
      <trkpt lat="45.12444" lon="5.55166">
        <ele>1256</ele>
        <time>2022-06-29T14:45:23.000Z</time>
      </trkpt>
      <trkpt lat="45.12426" lon="5.55157">
        <ele>1256</ele>
        <time>2022-06-29T14:45:24.000Z</time>
      </trkpt>
      <trkpt lat="45.12408" lon="5.55148">
        <ele>1256</ele>
        <time>2022-06-29T14:45:25.000Z</time>
      </trkpt>
      <trkpt lat="45.12391" lon="5.55139">
        <ele>1256</ele>
        <time>2022-06-29T14:45:26.000Z</time>
      </trkpt>
      <trkpt lat="45.12375" lon="5.55135">
        <ele>1268</ele>
        <time>2022-06-29T14:45:27.000Z</time>
      </trkpt>
      <trkpt lat="45.12358" lon="5.55132">
        <ele>1269</ele>
        <time>2022-06-29T14:45:28.000Z</time>
      </trkpt>
      <trkpt lat="45.12342" lon="5.55129">
        <ele>1269</ele>
        <time>2022-06-29T14:45:29.000Z</time>
      </trkpt>
      <trkpt lat="45.1233" lon="5.55131">
        <ele>1269</ele>
        <time>2022-06-29T14:45:30.000Z</time>
      </trkpt>
      <trkpt lat="45.12319" lon="5.55134">
        <ele>1269</ele>
        <time>2022-06-29T14:45:31.000Z</time>
      </trkpt>
      <trkpt lat="45.12302" lon="5.55141">
        <ele>1268</ele>
        <time>2022-06-29T14:45:32.000Z</time>
      </trkpt>
      <trkpt lat="45.12285" lon="5.55149">
        <ele>1278</ele>
        <time>2022-06-29T14:45:33.000Z</time>
      </trkpt>
      <trkpt lat="45.12269" lon="5.55157">
        <ele>1278</ele>
        <time>2022-06-29T14:45:34.000Z</time>
      </trkpt>
      <trkpt lat="45.12252" lon="5.55165">
        <ele>1278</ele>
        <time>2022-06-29T14:45:35.000Z</time>
      </trkpt>
      <trkpt lat="45.12232" lon="5.55169">
        <ele>1278</ele>
        <time>2022-06-29T14:45:36.000Z</time>
      </trkpt>
      <trkpt lat="45.12212" lon="5.55173">
        <ele>1278</ele>
        <time>2022-06-29T14:45:37.000Z</time>
      </trkpt>
      <trkpt lat="45.12192" lon="5.55178">
        <ele>1283</ele>
        <time>2022-06-29T14:45:38.000Z</time>
      </trkpt>
      <trkpt lat="45.12172" lon="5.55182">
        <ele>1283</ele>
        <time>2022-06-29T14:45:39.000Z</time>
      </trkpt>
      <trkpt lat="45.12152" lon="5.55181">
        <ele>1283</ele>
        <time>2022-06-29T14:45:40.000Z</time>
      </trkpt>
      <trkpt lat="45.12133" lon="5.5518">
        <ele>1283</ele>
        <time>2022-06-29T14:45:41.000Z</time>
      </trkpt>
      <trkpt lat="45.12113" lon="5.55179">
        <ele>1284</ele>
        <time>2022-06-29T14:45:42.000Z</time>
      </trkpt>
      <trkpt lat="45.12096" lon="5.55175">
        <ele>1284</ele>
        <time>2022-06-29T14:45:43.000Z</time>
      </trkpt>
      <trkpt lat="45.12078" lon="5.55171">
        <ele>1284</ele>
        <time>2022-06-29T14:45:44.000Z</time>
      </trkpt>
      <trkpt lat="45.12061" lon="5.55167">
        <ele>1284</ele>
        <time>2022-06-29T14:45:45.000Z</time>
      </trkpt>
      <trkpt lat="45.12046" lon="5.55162">
        <ele>1284</ele>
        <time>2022-06-29T14:45:46.000Z</time>
      </trkpt>
      <trkpt lat="45.12032" lon="5.55156">
        <ele>1277</ele>
        <time>2022-06-29T14:45:47.000Z</time>
      </trkpt>
      <trkpt lat="45.12017" lon="5.5515">
        <ele>1277</ele>
        <time>2022-06-29T14:45:48.000Z</time>
      </trkpt>
      <trkpt lat="45.12003" lon="5.55139">
        <ele>1277</ele>
        <time>2022-06-29T14:45:49.000Z</time>
      </trkpt>
      <trkpt lat="45.11989" lon="5.55128">
        <ele>1274</ele>
        <time>2022-06-29T14:45:50.000Z</time>
      </trkpt>
      <trkpt lat="45.11971" lon="5.55111">
        <ele>1274</ele>
        <time>2022-06-29T14:45:51.000Z</time>
      </trkpt>
      <trkpt lat="45.11952" lon="5.55094">
        <ele>1269</ele>
        <time>2022-06-29T14:45:52.000Z</time>
      </trkpt>
      <trkpt lat="45.11938" lon="5.55081">
        <ele>1269</ele>
        <time>2022-06-29T14:45:53.000Z</time>
      </trkpt>
      <trkpt lat="45.11923" lon="5.55068">
        <ele>1269</ele>
        <time>2022-06-29T14:45:54.000Z</time>
      </trkpt>
      <trkpt lat="45.11909" lon="5.55052">
        <ele>1269</ele>
        <time>2022-06-29T14:45:55.000Z</time>
      </trkpt>
      <trkpt lat="45.11894" lon="5.55036">
        <ele>1271</ele>
        <time>2022-06-29T14:45:56.000Z</time>
      </trkpt>
      <trkpt lat="45.11879" lon="5.55017">
        <ele>1271</ele>
        <time>2022-06-29T14:45:57.000Z</time>
      </trkpt>
      <trkpt lat="45.11872" lon="5.55002">
        <ele>1271</ele>
        <time>2022-06-29T14:45:58.000Z</time>
      </trkpt>
      <trkpt lat="45.11865" lon="5.54988">
        <ele>1271</ele>
        <time>2022-06-29T14:45:59.000Z</time>
      </trkpt>
      <trkpt lat="45.11864" lon="5.54987">
        <ele>1271</ele>
        <time>2022-06-29T14:46:00.000Z</time>
      </trkpt>
      <trkpt lat="45.11851" lon="5.54968">
        <ele>1271</ele>
        <time>2022-06-29T14:46:01.000Z</time>
      </trkpt>
      <trkpt lat="45.11837" lon="5.54961">
        <ele>1275</ele>
        <time>2022-06-29T14:46:02.000Z</time>
      </trkpt>
      <trkpt lat="45.11824" lon="5.54953">
        <ele>1275</ele>
        <time>2022-06-29T14:46:03.000Z</time>
      </trkpt>
      <trkpt lat="45.11802" lon="5.5495">
        <ele>1275</ele>
        <time>2022-06-29T14:46:04.000Z</time>
      </trkpt>
      <trkpt lat="45.11781" lon="5.54947">
        <ele>1279</ele>
        <time>2022-06-29T14:46:05.000Z</time>
      </trkpt>
      <trkpt lat="45.11763" lon="5.54945">
        <ele>1279</ele>
        <time>2022-06-29T14:46:06.000Z</time>
      </trkpt>
      <trkpt lat="45.11746" lon="5.54942">
        <ele>1279</ele>
        <time>2022-06-29T14:46:07.000Z</time>
      </trkpt>
      <trkpt lat="45.11728" lon="5.54939">
        <ele>1279</ele>
        <time>2022-06-29T14:46:08.000Z</time>
      </trkpt>
      <trkpt lat="45.11711" lon="5.54937">
        <ele>1279</ele>
        <time>2022-06-29T14:46:09.000Z</time>
      </trkpt>
      <trkpt lat="45.11694" lon="5.5493">
        <ele>1272</ele>
        <time>2022-06-29T14:46:10.000Z</time>
      </trkpt>
      <trkpt lat="45.11678" lon="5.54923">
        <ele>1272</ele>
        <time>2022-06-29T14:46:11.000Z</time>
      </trkpt>
      <trkpt lat="45.11662" lon="5.54915">
        <ele>1272</ele>
        <time>2022-06-29T14:46:12.000Z</time>
      </trkpt>
      <trkpt lat="45.11642" lon="5.54905">
        <ele>1272</ele>
        <time>2022-06-29T14:46:13.000Z</time>
      </trkpt>
      <trkpt lat="45.11622" lon="5.54895">
        <ele>1269</ele>
        <time>2022-06-29T14:46:14.000Z</time>
      </trkpt>
      <trkpt lat="45.11602" lon="5.54885">
        <ele>1269</ele>
        <time>2022-06-29T14:46:15.000Z</time>
      </trkpt>
      <trkpt lat="45.11607" lon="5.54911">
        <ele>1269</ele>
        <time>2022-06-29T14:46:16.000Z</time>
      </trkpt>
      <trkpt lat="45.11613" lon="5.54936">
        <ele>1269</ele>
        <time>2022-06-29T14:46:17.000Z</time>
      </trkpt>
      <trkpt lat="45.11613" lon="5.54953">
        <ele>1269</ele>
        <time>2022-06-29T14:46:18.000Z</time>
      </trkpt>
      <trkpt lat="45.11613" lon="5.5497">
        <ele>1263</ele>
        <time>2022-06-29T14:46:19.000Z</time>
      </trkpt>
      <trkpt lat="45.11615" lon="5.54996">
        <ele>1263</ele>
        <time>2022-06-29T14:46:20.000Z</time>
      </trkpt>
      <trkpt lat="45.11618" lon="5.55021">
        <ele>1263</ele>
        <time>2022-06-29T14:46:21.000Z</time>
      </trkpt>
      <trkpt lat="45.1162" lon="5.55046">
        <ele>1263</ele>
        <time>2022-06-29T14:46:22.000Z</time>
      </trkpt>
      <trkpt lat="45.1162" lon="5.55078">
        <ele>1254</ele>
        <time>2022-06-29T14:46:23.000Z</time>
      </trkpt>
      <trkpt lat="45.11623" lon="5.55106">
        <ele>1254</ele>
        <time>2022-06-29T14:46:24.000Z</time>
      </trkpt>
      <trkpt lat="45.11625" lon="5.55134">
        <ele>1254</ele>
        <time>2022-06-29T14:46:25.000Z</time>
      </trkpt>
      <trkpt lat="45.11627" lon="5.55162">
        <ele>1253</ele>
        <time>2022-06-29T14:46:26.000Z</time>
      </trkpt>
      <trkpt lat="45.11635" lon="5.55183">
        <ele>1253</ele>
        <time>2022-06-29T14:46:27.000Z</time>
      </trkpt>
      <trkpt lat="45.11643" lon="5.55204">
        <ele>1253</ele>
        <time>2022-06-29T14:46:28.000Z</time>
      </trkpt>
      <trkpt lat="45.1165" lon="5.55225">
        <ele>1240</ele>
        <time>2022-06-29T14:46:29.000Z</time>
      </trkpt>
      <trkpt lat="45.11664" lon="5.55244">
        <ele>1240</ele>
        <time>2022-06-29T14:46:30.000Z</time>
      </trkpt>
      <trkpt lat="45.11678" lon="5.55263">
        <ele>1240</ele>
        <time>2022-06-29T14:46:31.000Z</time>
      </trkpt>
      <trkpt lat="45.11694" lon="5.5527">
        <ele>1240</ele>
        <time>2022-06-29T14:46:32.000Z</time>
      </trkpt>
      <trkpt lat="45.11711" lon="5.55278">
        <ele>1242</ele>
        <time>2022-06-29T14:46:33.000Z</time>
      </trkpt>
      <trkpt lat="45.11728" lon="5.5528">
        <ele>1242</ele>
        <time>2022-06-29T14:46:34.000Z</time>
      </trkpt>
      <trkpt lat="45.11739" lon="5.55272">
        <ele>1242</ele>
        <time>2022-06-29T14:46:35.000Z</time>
      </trkpt>
      <trkpt lat="45.1175" lon="5.55264">
        <ele>1242</ele>
        <time>2022-06-29T14:46:36.000Z</time>
      </trkpt>
      <trkpt lat="45.11763" lon="5.55258">
        <ele>1242</ele>
        <time>2022-06-29T14:46:37.000Z</time>
      </trkpt>
      <trkpt lat="45.11777" lon="5.55253">
        <ele>1242</ele>
        <time>2022-06-29T14:46:38.000Z</time>
      </trkpt>
      <trkpt lat="45.11787" lon="5.55237">
        <ele>1242</ele>
        <time>2022-06-29T14:46:39.000Z</time>
      </trkpt>
      <trkpt lat="45.11802" lon="5.55233">
        <ele>1247</ele>
        <time>2022-06-29T14:46:40.000Z</time>
      </trkpt>
      <trkpt lat="45.11805" lon="5.55257">
        <ele>1247</ele>
        <time>2022-06-29T14:46:41.000Z</time>
      </trkpt>
      <trkpt lat="45.11807" lon="5.55281">
        <ele>1247</ele>
        <time>2022-06-29T14:46:42.000Z</time>
      </trkpt>
      <trkpt lat="45.11809" lon="5.55306">
        <ele>1239</ele>
        <time>2022-06-29T14:46:43.000Z</time>
      </trkpt>
      <trkpt lat="45.11816" lon="5.55328">
        <ele>1239</ele>
        <time>2022-06-29T14:46:44.000Z</time>
      </trkpt>
      <trkpt lat="45.11823" lon="5.5535">
        <ele>1239</ele>
        <time>2022-06-29T14:46:45.000Z</time>
      </trkpt>
      <trkpt lat="45.11835" lon="5.5537">
        <ele>1239</ele>
        <time>2022-06-29T14:46:46.000Z</time>
      </trkpt>
      <trkpt lat="45.11847" lon="5.55391">
        <ele>1227</ele>
        <time>2022-06-29T14:46:47.000Z</time>
      </trkpt>
      <trkpt lat="45.11859" lon="5.55411">
        <ele>1227</ele>
        <time>2022-06-29T14:46:48.000Z</time>
      </trkpt>
      <trkpt lat="45.11871" lon="5.55424">
        <ele>1227</ele>
        <time>2022-06-29T14:46:49.000Z</time>
      </trkpt>
      <trkpt lat="45.11883" lon="5.55436">
        <ele>1243</ele>
        <time>2022-06-29T14:46:50.000Z</time>
      </trkpt>
      <trkpt lat="45.1189" lon="5.55448">
        <ele>1243</ele>
        <time>2022-06-29T14:46:51.000Z</time>
      </trkpt>
      <trkpt lat="45.11898" lon="5.55459">
        <ele>1243</ele>
        <time>2022-06-29T14:46:52.000Z</time>
      </trkpt>
      <trkpt lat="45.11905" lon="5.55478">
        <ele>1231</ele>
        <time>2022-06-29T14:46:53.000Z</time>
      </trkpt>
      <trkpt lat="45.11911" lon="5.55497">
        <ele>1231</ele>
        <time>2022-06-29T14:46:54.000Z</time>
      </trkpt>
      <trkpt lat="45.1192" lon="5.55513">
        <ele>1231</ele>
        <time>2022-06-29T14:46:55.000Z</time>
      </trkpt>
      <trkpt lat="45.11921" lon="5.55531">
        <ele>1231</ele>
        <time>2022-06-29T14:46:56.000Z</time>
      </trkpt>
      <trkpt lat="45.11921" lon="5.5555">
        <ele>1231</ele>
        <time>2022-06-29T14:46:57.000Z</time>
      </trkpt>
      <trkpt lat="45.11928" lon="5.55568">
        <ele>1216</ele>
        <time>2022-06-29T14:46:58.000Z</time>
      </trkpt>
      <trkpt lat="45.11934" lon="5.55587">
        <ele>1216</ele>
        <time>2022-06-29T14:46:59.000Z</time>
      </trkpt>
      <trkpt lat="45.11946" lon="5.55607">
        <ele>1216</ele>
        <time>2022-06-29T14:47:00.000Z</time>
      </trkpt>
      <trkpt lat="45.11957" lon="5.55626">
        <ele>1216</ele>
        <time>2022-06-29T14:47:01.000Z</time>
      </trkpt>
      <trkpt lat="45.11958" lon="5.55656">
        <ele>1207</ele>
        <time>2022-06-29T14:47:02.000Z</time>
      </trkpt>
      <trkpt lat="45.11959" lon="5.55686">
        <ele>1207</ele>
        <time>2022-06-29T14:47:03.000Z</time>
      </trkpt>
      <trkpt lat="45.11962" lon="5.55696">
        <ele>1212</ele>
        <time>2022-06-29T14:47:04.000Z</time>
      </trkpt>
      <trkpt lat="45.11978" lon="5.55717">
        <ele>1212</ele>
        <time>2022-06-29T14:47:05.000Z</time>
      </trkpt>
      <trkpt lat="45.11994" lon="5.55738">
        <ele>1204</ele>
        <time>2022-06-29T14:47:06.000Z</time>
      </trkpt>
      <trkpt lat="45.1201" lon="5.55759">
        <ele>1204</ele>
        <time>2022-06-29T14:47:07.000Z</time>
      </trkpt>
      <trkpt lat="45.12026" lon="5.55781">
        <ele>1204</ele>
        <time>2022-06-29T14:47:08.000Z</time>
      </trkpt>
      <trkpt lat="45.12044" lon="5.5579">
        <ele>1204</ele>
        <time>2022-06-29T14:47:09.000Z</time>
      </trkpt>
      <trkpt lat="45.12062" lon="5.558">
        <ele>1204</ele>
        <time>2022-06-29T14:47:10.000Z</time>
      </trkpt>
      <trkpt lat="45.12056" lon="5.55824">
        <ele>1202</ele>
        <time>2022-06-29T14:47:11.000Z</time>
      </trkpt>
      <trkpt lat="45.12051" lon="5.55849">
        <ele>1202</ele>
        <time>2022-06-29T14:47:12.000Z</time>
      </trkpt>
      <trkpt lat="45.12045" lon="5.55874">
        <ele>1202</ele>
        <time>2022-06-29T14:47:13.000Z</time>
      </trkpt>
      <trkpt lat="45.12036" lon="5.55901">
        <ele>1192</ele>
        <time>2022-06-29T14:47:14.000Z</time>
      </trkpt>
      <trkpt lat="45.12026" lon="5.55915">
        <ele>1192</ele>
        <time>2022-06-29T14:47:15.000Z</time>
      </trkpt>
      <trkpt lat="45.12009" lon="5.55934">
        <ele>1192</ele>
        <time>2022-06-29T14:47:16.000Z</time>
      </trkpt>
      <trkpt lat="45.11992" lon="5.55953">
        <ele>1192</ele>
        <time>2022-06-29T14:47:17.000Z</time>
      </trkpt>
      <trkpt lat="45.11973" lon="5.55964">
        <ele>1192</ele>
        <time>2022-06-29T14:47:18.000Z</time>
      </trkpt>
      <trkpt lat="45.11953" lon="5.55975">
        <ele>1180</ele>
        <time>2022-06-29T14:47:19.000Z</time>
      </trkpt>
      <trkpt lat="45.11934" lon="5.55986">
        <ele>1180</ele>
        <time>2022-06-29T14:47:20.000Z</time>
      </trkpt>
      <trkpt lat="45.11915" lon="5.55998">
        <ele>1180</ele>
        <time>2022-06-29T14:47:21.000Z</time>
      </trkpt>
      <trkpt lat="45.11896" lon="5.56009">
        <ele>1180</ele>
        <time>2022-06-29T14:47:22.000Z</time>
      </trkpt>
      <trkpt lat="45.11879" lon="5.56014">
        <ele>1180</ele>
        <time>2022-06-29T14:47:23.000Z</time>
      </trkpt>
      <trkpt lat="45.11862" lon="5.56019">
        <ele>1172</ele>
        <time>2022-06-29T14:47:24.000Z</time>
      </trkpt>
      <trkpt lat="45.11845" lon="5.56024">
        <ele>1172</ele>
        <time>2022-06-29T14:47:25.000Z</time>
      </trkpt>
      <trkpt lat="45.11827" lon="5.5603">
        <ele>1172</ele>
        <time>2022-06-29T14:47:26.000Z</time>
      </trkpt>
      <trkpt lat="45.11809" lon="5.56036">
        <ele>1172</ele>
        <time>2022-06-29T14:47:27.000Z</time>
      </trkpt>
      <trkpt lat="45.1179" lon="5.56042">
        <ele>1159</ele>
        <time>2022-06-29T14:47:28.000Z</time>
      </trkpt>
      <trkpt lat="45.11774" lon="5.56056">
        <ele>1159</ele>
        <time>2022-06-29T14:47:29.000Z</time>
      </trkpt>
      <trkpt lat="45.11757" lon="5.56069">
        <ele>1159</ele>
        <time>2022-06-29T14:47:30.000Z</time>
      </trkpt>
      <trkpt lat="45.11741" lon="5.56082">
        <ele>1159</ele>
        <time>2022-06-29T14:47:31.000Z</time>
      </trkpt>
      <trkpt lat="45.11727" lon="5.56096">
        <ele>1159</ele>
        <time>2022-06-29T14:47:32.000Z</time>
      </trkpt>
      <trkpt lat="45.11714" lon="5.56109">
        <ele>1159</ele>
        <time>2022-06-29T14:47:33.000Z</time>
      </trkpt>
      <trkpt lat="45.117" lon="5.56123">
        <ele>1145</ele>
        <time>2022-06-29T14:47:34.000Z</time>
      </trkpt>
      <trkpt lat="45.11688" lon="5.56137">
        <ele>1145</ele>
        <time>2022-06-29T14:47:35.000Z</time>
      </trkpt>
      <trkpt lat="45.11677" lon="5.56151">
        <ele>1145</ele>
        <time>2022-06-29T14:47:36.000Z</time>
      </trkpt>
      <trkpt lat="45.11665" lon="5.56165">
        <ele>1145</ele>
        <time>2022-06-29T14:47:37.000Z</time>
      </trkpt>
      <trkpt lat="45.11662" lon="5.56175">
        <ele>1145</ele>
        <time>2022-06-29T14:47:38.000Z</time>
      </trkpt>
      <trkpt lat="45.1164" lon="5.56179">
        <ele>1145</ele>
        <time>2022-06-29T14:47:39.000Z</time>
      </trkpt>
      <trkpt lat="45.11618" lon="5.56184">
        <ele>1138</ele>
        <time>2022-06-29T14:47:40.000Z</time>
      </trkpt>
      <trkpt lat="45.11601" lon="5.56178">
        <ele>1138</ele>
        <time>2022-06-29T14:47:41.000Z</time>
      </trkpt>
      <trkpt lat="45.11584" lon="5.56173">
        <ele>1138</ele>
        <time>2022-06-29T14:47:42.000Z</time>
      </trkpt>
      <trkpt lat="45.11566" lon="5.56168">
        <ele>1138</ele>
        <time>2022-06-29T14:47:43.000Z</time>
      </trkpt>
      <trkpt lat="45.11549" lon="5.56163">
        <ele>1138</ele>
        <time>2022-06-29T14:47:44.000Z</time>
      </trkpt>
      <trkpt lat="45.11537" lon="5.56157">
        <ele>1140</ele>
        <time>2022-06-29T14:47:45.000Z</time>
      </trkpt>
      <trkpt lat="45.11525" lon="5.56151">
        <ele>1140</ele>
        <time>2022-06-29T14:47:46.000Z</time>
      </trkpt>
      <trkpt lat="45.11514" lon="5.56135">
        <ele>1140</ele>
        <time>2022-06-29T14:47:47.000Z</time>
      </trkpt>
      <trkpt lat="45.11504" lon="5.56119">
        <ele>1137</ele>
        <time>2022-06-29T14:47:48.000Z</time>
      </trkpt>
      <trkpt lat="45.11492" lon="5.56106">
        <ele>1137</ele>
        <time>2022-06-29T14:47:49.000Z</time>
      </trkpt>
      <trkpt lat="45.1148" lon="5.56092">
        <ele>1137</ele>
        <time>2022-06-29T14:47:50.000Z</time>
      </trkpt>
      <trkpt lat="45.11463" lon="5.56081">
        <ele>1137</ele>
        <time>2022-06-29T14:47:51.000Z</time>
      </trkpt>
      <trkpt lat="45.11446" lon="5.56069">
        <ele>1133</ele>
        <time>2022-06-29T14:47:52.000Z</time>
      </trkpt>
      <trkpt lat="45.11425" lon="5.56062">
        <ele>1133</ele>
        <time>2022-06-29T14:47:53.000Z</time>
      </trkpt>
      <trkpt lat="45.11404" lon="5.56055">
        <ele>1133</ele>
        <time>2022-06-29T14:47:54.000Z</time>
      </trkpt>
      <trkpt lat="45.11382" lon="5.56048">
        <ele>1126</ele>
        <time>2022-06-29T14:47:55.000Z</time>
      </trkpt>
      <trkpt lat="45.11361" lon="5.56041">
        <ele>1123</ele>
        <time>2022-06-29T14:47:56.000Z</time>
      </trkpt>
      <trkpt lat="45.1134" lon="5.56034">
        <ele>1123</ele>
        <time>2022-06-29T14:47:57.000Z</time>
      </trkpt>
      <trkpt lat="45.11318" lon="5.56027">
        <ele>1123</ele>
        <time>2022-06-29T14:47:58.000Z</time>
      </trkpt>
      <trkpt lat="45.11319" lon="5.56006">
        <ele>1123</ele>
        <time>2022-06-29T14:47:59.000Z</time>
      </trkpt>
      <trkpt lat="45.11301" lon="5.56005">
        <ele>1123</ele>
        <time>2022-06-29T14:48:00.000Z</time>
      </trkpt>
      <trkpt lat="45.11283" lon="5.56004">
        <ele>1121</ele>
        <time>2022-06-29T14:48:01.000Z</time>
      </trkpt>
      <trkpt lat="45.11269" lon="5.56017">
        <ele>1121</ele>
        <time>2022-06-29T14:48:02.000Z</time>
      </trkpt>
      <trkpt lat="45.11259" lon="5.56035">
        <ele>1121</ele>
        <time>2022-06-29T14:48:03.000Z</time>
      </trkpt>
      <trkpt lat="45.11239" lon="5.56049">
        <ele>1121</ele>
        <time>2022-06-29T14:48:04.000Z</time>
      </trkpt>
      <trkpt lat="45.11228" lon="5.56048">
        <ele>1121</ele>
        <time>2022-06-29T14:48:05.000Z</time>
      </trkpt>
      <trkpt lat="45.11216" lon="5.56047">
        <ele>1121</ele>
        <time>2022-06-29T14:48:06.000Z</time>
      </trkpt>
      <trkpt lat="45.11207" lon="5.56037">
        <ele>1126</ele>
        <time>2022-06-29T14:48:07.000Z</time>
      </trkpt>
      <trkpt lat="45.11197" lon="5.56026">
        <ele>1126</ele>
        <time>2022-06-29T14:48:08.000Z</time>
      </trkpt>
      <trkpt lat="45.11185" lon="5.56026">
        <ele>1126</ele>
        <time>2022-06-29T14:48:09.000Z</time>
      </trkpt>
      <trkpt lat="45.11172" lon="5.56025">
        <ele>1126</ele>
        <time>2022-06-29T14:48:10.000Z</time>
      </trkpt>
      <trkpt lat="45.11154" lon="5.56029">
        <ele>1126</ele>
        <time>2022-06-29T14:48:11.000Z</time>
      </trkpt>
      <trkpt lat="45.11137" lon="5.56023">
        <ele>1126</ele>
        <time>2022-06-29T14:48:12.000Z</time>
      </trkpt>
      <trkpt lat="45.1112" lon="5.56017">
        <ele>1122</ele>
        <time>2022-06-29T14:48:13.000Z</time>
      </trkpt>
      <trkpt lat="45.11099" lon="5.56005">
        <ele>1122</ele>
        <time>2022-06-29T14:48:14.000Z</time>
      </trkpt>
      <trkpt lat="45.11078" lon="5.55993">
        <ele>1122</ele>
        <time>2022-06-29T14:48:15.000Z</time>
      </trkpt>
      <trkpt lat="45.11058" lon="5.55981">
        <ele>1122</ele>
        <time>2022-06-29T14:48:16.000Z</time>
      </trkpt>
      <trkpt lat="45.11039" lon="5.55975">
        <ele>1115</ele>
        <time>2022-06-29T14:48:17.000Z</time>
      </trkpt>
      <trkpt lat="45.1102" lon="5.55969">
        <ele>1115</ele>
        <time>2022-06-29T14:48:18.000Z</time>
      </trkpt>
      <trkpt lat="45.11001" lon="5.55962">
        <ele>1109</ele>
        <time>2022-06-29T14:48:19.000Z</time>
      </trkpt>
      <trkpt lat="45.10982" lon="5.55956">
        <ele>1109</ele>
        <time>2022-06-29T14:48:20.000Z</time>
      </trkpt>
      <trkpt lat="45.10963" lon="5.5595">
        <ele>1109</ele>
        <time>2022-06-29T14:48:21.000Z</time>
      </trkpt>
      <trkpt lat="45.10944" lon="5.55943">
        <ele>1103</ele>
        <time>2022-06-29T14:48:22.000Z</time>
      </trkpt>
      <trkpt lat="45.10924" lon="5.5593">
        <ele>1103</ele>
        <time>2022-06-29T14:48:23.000Z</time>
      </trkpt>
      <trkpt lat="45.10904" lon="5.55916">
        <ele>1103</ele>
        <time>2022-06-29T14:48:24.000Z</time>
      </trkpt>
      <trkpt lat="45.10884" lon="5.55902">
        <ele>1103</ele>
        <time>2022-06-29T14:48:25.000Z</time>
      </trkpt>
      <trkpt lat="45.10864" lon="5.55893">
        <ele>1093</ele>
        <time>2022-06-29T14:48:26.000Z</time>
      </trkpt>
      <trkpt lat="45.10852" lon="5.55894">
        <ele>1093</ele>
        <time>2022-06-29T14:48:27.000Z</time>
      </trkpt>
      <trkpt lat="45.10834" lon="5.55902">
        <ele>1093</ele>
        <time>2022-06-29T14:48:28.000Z</time>
      </trkpt>
      <trkpt lat="45.10816" lon="5.5591">
        <ele>1093</ele>
        <time>2022-06-29T14:48:29.000Z</time>
      </trkpt>
      <trkpt lat="45.10798" lon="5.55919">
        <ele>1093</ele>
        <time>2022-06-29T14:48:30.000Z</time>
      </trkpt>
      <trkpt lat="45.10787" lon="5.5592">
        <ele>1084</ele>
        <time>2022-06-29T14:48:31.000Z</time>
      </trkpt>
      <trkpt lat="45.10775" lon="5.55921">
        <ele>1084</ele>
        <time>2022-06-29T14:48:32.000Z</time>
      </trkpt>
      <trkpt lat="45.10757" lon="5.55917">
        <ele>1084</ele>
        <time>2022-06-29T14:48:33.000Z</time>
      </trkpt>
      <trkpt lat="45.10739" lon="5.55913">
        <ele>1084</ele>
        <time>2022-06-29T14:48:34.000Z</time>
      </trkpt>
      <trkpt lat="45.10721" lon="5.55908">
        <ele>1084</ele>
        <time>2022-06-29T14:48:35.000Z</time>
      </trkpt>
      <trkpt lat="45.107" lon="5.5591">
        <ele>1076</ele>
        <time>2022-06-29T14:48:36.000Z</time>
      </trkpt>
      <trkpt lat="45.10682" lon="5.55906">
        <ele>1076</ele>
        <time>2022-06-29T14:48:37.000Z</time>
      </trkpt>
      <trkpt lat="45.10663" lon="5.55902">
        <ele>1076</ele>
        <time>2022-06-29T14:48:38.000Z</time>
      </trkpt>
      <trkpt lat="45.10649" lon="5.55906">
        <ele>1076</ele>
        <time>2022-06-29T14:48:39.000Z</time>
      </trkpt>
      <trkpt lat="45.10634" lon="5.5591">
        <ele>1076</ele>
        <time>2022-06-29T14:48:40.000Z</time>
      </trkpt>
      <trkpt lat="45.10619" lon="5.55914">
        <ele>1065</ele>
        <time>2022-06-29T14:48:41.000Z</time>
      </trkpt>
      <trkpt lat="45.106" lon="5.55917">
        <ele>1065</ele>
        <time>2022-06-29T14:48:42.000Z</time>
      </trkpt>
      <trkpt lat="45.10581" lon="5.5592">
        <ele>1065</ele>
        <time>2022-06-29T14:48:43.000Z</time>
      </trkpt>
      <trkpt lat="45.10565" lon="5.55914">
        <ele>1065</ele>
        <time>2022-06-29T14:48:44.000Z</time>
      </trkpt>
      <trkpt lat="45.1055" lon="5.55908">
        <ele>1065</ele>
        <time>2022-06-29T14:48:45.000Z</time>
      </trkpt>
      <trkpt lat="45.10534" lon="5.55902">
        <ele>1052</ele>
        <time>2022-06-29T14:48:46.000Z</time>
      </trkpt>
      <trkpt lat="45.10518" lon="5.55903">
        <ele>1052</ele>
        <time>2022-06-29T14:48:47.000Z</time>
      </trkpt>
      <trkpt lat="45.10502" lon="5.55904">
        <ele>1052</ele>
        <time>2022-06-29T14:48:48.000Z</time>
      </trkpt>
      <trkpt lat="45.10486" lon="5.55904">
        <ele>1052</ele>
        <time>2022-06-29T14:48:49.000Z</time>
      </trkpt>
      <trkpt lat="45.10471" lon="5.55913">
        <ele>1052</ele>
        <time>2022-06-29T14:48:50.000Z</time>
      </trkpt>
      <trkpt lat="45.10457" lon="5.55922">
        <ele>1037</ele>
        <time>2022-06-29T14:48:51.000Z</time>
      </trkpt>
      <trkpt lat="45.10444" lon="5.55925">
        <ele>1037</ele>
        <time>2022-06-29T14:48:52.000Z</time>
      </trkpt>
      <trkpt lat="45.10432" lon="5.55929">
        <ele>1037</ele>
        <time>2022-06-29T14:48:53.000Z</time>
      </trkpt>
      <trkpt lat="45.10415" lon="5.55915">
        <ele>1037</ele>
        <time>2022-06-29T14:48:54.000Z</time>
      </trkpt>
      <trkpt lat="45.10398" lon="5.55902">
        <ele>1037</ele>
        <time>2022-06-29T14:48:55.000Z</time>
      </trkpt>
      <trkpt lat="45.10383" lon="5.55893">
        <ele>1037</ele>
        <time>2022-06-29T14:48:56.000Z</time>
      </trkpt>
      <trkpt lat="45.10367" lon="5.55885">
        <ele>1018</ele>
        <time>2022-06-29T14:48:57.000Z</time>
      </trkpt>
      <trkpt lat="45.10352" lon="5.55876">
        <ele>1018</ele>
        <time>2022-06-29T14:48:58.000Z</time>
      </trkpt>
      <trkpt lat="45.10339" lon="5.55864">
        <ele>1018</ele>
        <time>2022-06-29T14:48:59.000Z</time>
      </trkpt>
      <trkpt lat="45.10327" lon="5.55852">
        <ele>1018</ele>
        <time>2022-06-29T14:49:00.000Z</time>
      </trkpt>
      <trkpt lat="45.10327" lon="5.55852">
        <ele>1018</ele>
        <time>2022-06-29T14:49:01.000Z</time>
      </trkpt>
      <trkpt lat="45.10323" lon="5.55833">
        <ele>1018</ele>
        <time>2022-06-29T14:49:02.000Z</time>
      </trkpt>
      <trkpt lat="45.10309" lon="5.55832">
        <ele>1018</ele>
        <time>2022-06-29T14:49:03.000Z</time>
      </trkpt>
      <trkpt lat="45.10294" lon="5.55831">
        <ele>1018</ele>
        <time>2022-06-29T14:49:04.000Z</time>
      </trkpt>
      <trkpt lat="45.10285" lon="5.55841">
        <ele>1020</ele>
        <time>2022-06-29T14:49:05.000Z</time>
      </trkpt>
      <trkpt lat="45.10276" lon="5.55852">
        <ele>1020</ele>
        <time>2022-06-29T14:49:06.000Z</time>
      </trkpt>
      <trkpt lat="45.10268" lon="5.55872">
        <ele>1020</ele>
        <time>2022-06-29T14:49:07.000Z</time>
      </trkpt>
      <trkpt lat="45.1026" lon="5.55891">
        <ele>1015</ele>
        <time>2022-06-29T14:49:08.000Z</time>
      </trkpt>
      <trkpt lat="45.10246" lon="5.55915">
        <ele>1015</ele>
        <time>2022-06-29T14:49:09.000Z</time>
      </trkpt>
      <trkpt lat="45.10228" lon="5.55926">
        <ele>1015</ele>
        <time>2022-06-29T14:49:10.000Z</time>
      </trkpt>
      <trkpt lat="45.10225" lon="5.55946">
        <ele>1015</ele>
        <time>2022-06-29T14:49:11.000Z</time>
      </trkpt>
      <trkpt lat="45.10212" lon="5.55934">
        <ele>1015</ele>
        <time>2022-06-29T14:49:12.000Z</time>
      </trkpt>
      <trkpt lat="45.102" lon="5.55921">
        <ele>1014</ele>
        <time>2022-06-29T14:49:13.000Z</time>
      </trkpt>
      <trkpt lat="45.10187" lon="5.55909">
        <ele>1014</ele>
        <time>2022-06-29T14:49:14.000Z</time>
      </trkpt>
      <trkpt lat="45.10181" lon="5.55888">
        <ele>1014</ele>
        <time>2022-06-29T14:49:15.000Z</time>
      </trkpt>
      <trkpt lat="45.10176" lon="5.55867">
        <ele>1015</ele>
        <time>2022-06-29T14:49:16.000Z</time>
      </trkpt>
      <trkpt lat="45.1017" lon="5.55846">
        <ele>1015</ele>
        <time>2022-06-29T14:49:17.000Z</time>
      </trkpt>
      <trkpt lat="45.10155" lon="5.55831">
        <ele>1015</ele>
        <time>2022-06-29T14:49:18.000Z</time>
      </trkpt>
      <trkpt lat="45.1014" lon="5.55817">
        <ele>1015</ele>
        <time>2022-06-29T14:49:19.000Z</time>
      </trkpt>
      <trkpt lat="45.10122" lon="5.55809">
        <ele>1007</ele>
        <time>2022-06-29T14:49:20.000Z</time>
      </trkpt>
      <trkpt lat="45.10108" lon="5.55809">
        <ele>1007</ele>
        <time>2022-06-29T14:49:21.000Z</time>
      </trkpt>
      <trkpt lat="45.10094" lon="5.5581">
        <ele>1007</ele>
        <time>2022-06-29T14:49:22.000Z</time>
      </trkpt>
      <trkpt lat="45.10082" lon="5.55812">
        <ele>1007</ele>
        <time>2022-06-29T14:49:23.000Z</time>
      </trkpt>
      <trkpt lat="45.10069" lon="5.55815">
        <ele>1007</ele>
        <time>2022-06-29T14:49:24.000Z</time>
      </trkpt>
      <trkpt lat="45.10053" lon="5.55832">
        <ele>1007</ele>
        <time>2022-06-29T14:49:25.000Z</time>
      </trkpt>
      <trkpt lat="45.10036" lon="5.55849">
        <ele>994</ele>
        <time>2022-06-29T14:49:26.000Z</time>
      </trkpt>
      <trkpt lat="45.10029" lon="5.55873">
        <ele>994</ele>
        <time>2022-06-29T14:49:27.000Z</time>
      </trkpt>
      <trkpt lat="45.10023" lon="5.55896">
        <ele>987</ele>
        <time>2022-06-29T14:49:28.000Z</time>
      </trkpt>
      <trkpt lat="45.10027" lon="5.55917">
        <ele>987</ele>
        <time>2022-06-29T14:49:29.000Z</time>
      </trkpt>
      <trkpt lat="45.10032" lon="5.55938">
        <ele>987</ele>
        <time>2022-06-29T14:49:30.000Z</time>
      </trkpt>
      <trkpt lat="45.10036" lon="5.55959">
        <ele>987</ele>
        <time>2022-06-29T14:49:31.000Z</time>
      </trkpt>
      <trkpt lat="45.10044" lon="5.55978">
        <ele>991</ele>
        <time>2022-06-29T14:49:32.000Z</time>
      </trkpt>
      <trkpt lat="45.10052" lon="5.55997">
        <ele>991</ele>
        <time>2022-06-29T14:49:33.000Z</time>
      </trkpt>
      <trkpt lat="45.1005" lon="5.56017">
        <ele>991</ele>
        <time>2022-06-29T14:49:34.000Z</time>
      </trkpt>
      <trkpt lat="45.10047" lon="5.56037">
        <ele>991</ele>
        <time>2022-06-29T14:49:35.000Z</time>
      </trkpt>
      <trkpt lat="45.10055" lon="5.56059">
        <ele>983</ele>
        <time>2022-06-29T14:49:36.000Z</time>
      </trkpt>
      <trkpt lat="45.10063" lon="5.56081">
        <ele>983</ele>
        <time>2022-06-29T14:49:37.000Z</time>
      </trkpt>
      <trkpt lat="45.10065" lon="5.56105">
        <ele>983</ele>
        <time>2022-06-29T14:49:38.000Z</time>
      </trkpt>
      <trkpt lat="45.10068" lon="5.56129">
        <ele>983</ele>
        <time>2022-06-29T14:49:39.000Z</time>
      </trkpt>
      <trkpt lat="45.1007" lon="5.56153">
        <ele>982</ele>
        <time>2022-06-29T14:49:40.000Z</time>
      </trkpt>
      <trkpt lat="45.10073" lon="5.56177">
        <ele>982</ele>
        <time>2022-06-29T14:49:41.000Z</time>
      </trkpt>
      <trkpt lat="45.10083" lon="5.56203">
        <ele>982</ele>
        <time>2022-06-29T14:49:42.000Z</time>
      </trkpt>
      <trkpt lat="45.10093" lon="5.56229">
        <ele>984</ele>
        <time>2022-06-29T14:49:43.000Z</time>
      </trkpt>
      <trkpt lat="45.10096" lon="5.56259">
        <ele>984</ele>
        <time>2022-06-29T14:49:44.000Z</time>
      </trkpt>
      <trkpt lat="45.10099" lon="5.5629">
        <ele>984</ele>
        <time>2022-06-29T14:49:45.000Z</time>
      </trkpt>
      <trkpt lat="45.10096" lon="5.56312">
        <ele>986</ele>
        <time>2022-06-29T14:49:46.000Z</time>
      </trkpt>
      <trkpt lat="45.10097" lon="5.56312">
        <ele>986</ele>
        <time>2022-06-29T14:49:47.000Z</time>
      </trkpt>
      <trkpt lat="45.10097" lon="5.5631">
        <ele>986</ele>
        <time>2022-06-29T14:49:48.000Z</time>
      </trkpt>
      <trkpt lat="45.10224" lon="5.56424">
        <ele>988</ele>
        <time>2022-06-29T14:49:49.000Z</time>
      </trkpt>
      <trkpt lat="45.10331" lon="5.5652">
        <ele>986</ele>
        <time>2022-06-29T14:49:50.000Z</time>
      </trkpt>
      <trkpt lat="45.10398" lon="5.56579">
        <ele>990</ele>
        <time>2022-06-29T14:49:51.000Z</time>
      </trkpt>
      <trkpt lat="45.10485" lon="5.56654">
        <ele>991</ele>
        <time>2022-06-29T14:49:52.000Z</time>
      </trkpt>
      <trkpt lat="45.10907" lon="5.57145">
        <ele>991</ele>
        <time>2022-06-29T14:49:53.000Z</time>
      </trkpt>
      <trkpt lat="45.11026" lon="5.57285">
        <ele>993</ele>
        <time>2022-06-29T14:49:54.000Z</time>
      </trkpt>
      <trkpt lat="45.11102" lon="5.57373">
        <ele>988</ele>
        <time>2022-06-29T14:49:55.000Z</time>
      </trkpt>
      <trkpt lat="45.11144" lon="5.57413">
        <ele>990</ele>
        <time>2022-06-29T14:49:56.000Z</time>
      </trkpt>
      <trkpt lat="45.11193" lon="5.57447">
        <ele>990</ele>
        <time>2022-06-29T14:49:57.000Z</time>
      </trkpt>
      <trkpt lat="45.11231" lon="5.57474">
        <ele>990</ele>
        <time>2022-06-29T14:49:58.000Z</time>
      </trkpt>
      <trkpt lat="45.11257" lon="5.57492">
        <ele>990</ele>
        <time>2022-06-29T14:49:59.000Z</time>
      </trkpt>
      <trkpt lat="45.11396" lon="5.57589">
        <ele>992</ele>
        <time>2022-06-29T14:50:00.000Z</time>
      </trkpt>
      <trkpt lat="45.11501" lon="5.57662">
        <ele>995</ele>
        <time>2022-06-29T14:50:01.000Z</time>
      </trkpt>
      <trkpt lat="45.11632" lon="5.57751">
        <ele>994</ele>
        <time>2022-06-29T14:50:02.000Z</time>
      </trkpt>
      <trkpt lat="45.11766" lon="5.57844">
        <ele>995</ele>
        <time>2022-06-29T14:50:03.000Z</time>
      </trkpt>
      <trkpt lat="45.11781" lon="5.57854">
        <ele>995</ele>
        <time>2022-06-29T14:50:04.000Z</time>
      </trkpt>
      <trkpt lat="45.119" lon="5.57936">
        <ele>993</ele>
        <time>2022-06-29T14:50:05.000Z</time>
      </trkpt>
      <trkpt lat="45.12001" lon="5.58005">
        <ele>994</ele>
        <time>2022-06-29T14:50:06.000Z</time>
      </trkpt>
      <trkpt lat="45.12024" lon="5.58018">
        <ele>994</ele>
        <time>2022-06-29T14:50:07.000Z</time>
      </trkpt>
      <trkpt lat="45.1205" lon="5.5803">
        <ele>995</ele>
        <time>2022-06-29T14:50:08.000Z</time>
      </trkpt>
      <trkpt lat="45.12191" lon="5.58079">
        <ele>997</ele>
        <time>2022-06-29T14:50:09.000Z</time>
      </trkpt>
      <trkpt lat="45.12272" lon="5.58107">
        <ele>999</ele>
        <time>2022-06-29T14:50:10.000Z</time>
      </trkpt>
      <trkpt lat="45.12422" lon="5.58156">
        <ele>1000</ele>
        <time>2022-06-29T14:50:11.000Z</time>
      </trkpt>
      <trkpt lat="45.12497" lon="5.5818">
        <ele>1003</ele>
        <time>2022-06-29T14:50:12.000Z</time>
      </trkpt>
      <trkpt lat="45.1254" lon="5.58196">
        <ele>1003</ele>
        <time>2022-06-29T14:50:13.000Z</time>
      </trkpt>
      <trkpt lat="45.12538" lon="5.58203">
        <ele>1003</ele>
        <time>2022-06-29T14:50:14.000Z</time>
      </trkpt>
      <trkpt lat="45.1254" lon="5.58211">
        <ele>1003</ele>
        <time>2022-06-29T14:50:15.000Z</time>
      </trkpt>
      <trkpt lat="45.12572" lon="5.58251">
        <ele>1005</ele>
        <time>2022-06-29T14:50:16.000Z</time>
      </trkpt>
      <trkpt lat="45.12581" lon="5.58267">
        <ele>1005</ele>
        <time>2022-06-29T14:50:17.000Z</time>
      </trkpt>
      <trkpt lat="45.12639" lon="5.58394">
        <ele>1009</ele>
        <time>2022-06-29T14:50:18.000Z</time>
      </trkpt>
      <trkpt lat="45.12655" lon="5.58431">
        <ele>1009</ele>
        <time>2022-06-29T14:50:19.000Z</time>
      </trkpt>
      <trkpt lat="45.12657" lon="5.58448">
        <ele>1009</ele>
        <time>2022-06-29T14:50:20.000Z</time>
      </trkpt>
      <trkpt lat="45.12659" lon="5.58468">
        <ele>1014</ele>
        <time>2022-06-29T14:50:21.000Z</time>
      </trkpt>
      <trkpt lat="45.12661" lon="5.58492">
        <ele>1014</ele>
        <time>2022-06-29T14:50:22.000Z</time>
      </trkpt>
      <trkpt lat="45.12663" lon="5.58506">
        <ele>1014</ele>
        <time>2022-06-29T14:50:23.000Z</time>
      </trkpt>
      <trkpt lat="45.12685" lon="5.58567">
        <ele>1016</ele>
        <time>2022-06-29T14:50:24.000Z</time>
      </trkpt>
      <trkpt lat="45.12731" lon="5.58666">
        <ele>1018</ele>
        <time>2022-06-29T14:50:25.000Z</time>
      </trkpt>
      <trkpt lat="45.12858" lon="5.5875">
        <ele>1016</ele>
        <time>2022-06-29T14:50:26.000Z</time>
      </trkpt>
      <trkpt lat="45.12857" lon="5.58754">
        <ele>1016</ele>
        <time>2022-06-29T14:50:27.000Z</time>
      </trkpt>
      <trkpt lat="45.12845" lon="5.58794">
        <ele>1016</ele>
        <time>2022-06-29T14:50:28.000Z</time>
      </trkpt>
      <trkpt lat="45.12833" lon="5.58833">
        <ele>1016</ele>
        <time>2022-06-29T14:50:29.000Z</time>
      </trkpt>
      <trkpt lat="45.12829" lon="5.58844">
        <ele>1016</ele>
        <time>2022-06-29T14:50:30.000Z</time>
      </trkpt>
      <trkpt lat="45.12825" lon="5.58861">
        <ele>1016</ele>
        <time>2022-06-29T14:50:31.000Z</time>
      </trkpt>
      <trkpt lat="45.12824" lon="5.58866">
        <ele>1016</ele>
        <time>2022-06-29T14:50:32.000Z</time>
      </trkpt>
      <trkpt lat="45.12822" lon="5.58875">
        <ele>1016</ele>
        <time>2022-06-29T14:50:33.000Z</time>
      </trkpt>
      <trkpt lat="45.12819" lon="5.58897">
        <ele>1016</ele>
        <time>2022-06-29T14:50:34.000Z</time>
      </trkpt>
    </trkseg>
  </trk>
</gpx>